[[{"header":{"parameterUnit":"m.s-1","parameterCategory":1,"la1":30.6,"la2":29.2853,"lo1":-89.7004,"lo2":-87.6739,"dy":0.0162,"dx":0.0183,"nx":112,"ny":82,"refTime":"2026-03-15T00:00:00:Z","depth":0,"parameterNumber":2,"parameterNumberName":"U-component_of_WINDS"},"data":[0.0,0.0,0.0,0.0,0.0,0.0,0.0,0.0,0.0,0.0,0.0,0.0,0.0,0.0,0.0,0.0,0.0,0.0,0.0,0.0,0.0,0.0,0.0,0.0,0.0,0.0,0.0,0.0,0.0,0.0,0.0,0.0,0.0,0.0,0.0,0.0,0.0,0.0,0.0,0.0,0.0,0.0,0.0,0.0,0.0,0.0,0.0,0.0,0.0,0.0,0.0,0.0,0.0,0.0,0.0,0.0,0.0,0.0,0.0,0.0,0.0,0.0,0.0,0.0,0.0,0.0,0.0,0.0,0.0,0.0,0.0,0.0,0.0,0.0,0.0,0.0,0.0,0.0,0.0,0.0,0.0,0.0,0.0,0.0,0.0,0.0,0.0,0.0,0.0,0.0,0.0,-2.2252,-2.427,-2.5589,-2.5522,-2.5431,-2.3961,-2.0615,0.0,0.0,0.0,0.0,0.0,0.0,0.0,0.0,0.0,0.0,0.0,0.0,0.0,0.0,0.0,0.0,0.0,0.0,0.0,0.0,0.0,0.0,0.0,0.0,0.0,0.0,0.0,0.0,0.0,0.0,0.0,0.0,0.0,0.0,0.0,0.0,0.0,0.0,0.0,0.0,0.0,0.0,0.0,0.0,0.0,0.0,0.0,0.0,0.0,0.0,0.0,0.0,0.0,0.0,0.0,0.0,0.0,0.0,0.0,0.0,0.0,0.0,0.0,0.0,0.0,0.0,0.0,0.0,0.0,0.0,0.0,0.0,0.0,0.0,0.0,0.0,0.0,0.0,0.0,0.0,0.0,0.0,0.0,0.0,0.0,0.0,0.0,0.0,0.0,0.0,0.0,0.0,0.0,0.0,0.0,0.0,0.0,0.0,0.0,0.0,0.0,0.0,0.0,0.0,-2.3278,-2.4768,-2.5328,-2.5592,-2.5596,-2.4924,-2.3332,-2.056,0.0,0.0,0.0,0.0,0.0,0.0,0.0,0.0,0.0,0.0,0.0,0.0,0.0,0.0,0.0,0.0,0.0,0.0,0.0,0.0,0.0,0.0,0.0,0.0,0.0,0.0,0.0,0.0,0.0,0.0,0.0,0.0,0.0,0.0,0.0,0.0,0.0,0.0,0.0,0.0,0.0,0.0,0.0,0.0,0.0,0.0,0.0,0.0,0.0,0.0,0.0,0.0,0.0,0.0,0.0,0.0,0.0,0.0,0.0,0.0,0.0,0.0,0.0,0.0,0.0,0.0,0.0,0.0,0.0,0.0,0.0,0.0,0.0,0.0,0.0,0.0,0.0,0.0,0.0,0.0,0.0,0.0,0.0,0.0,0.0,0.0,0.0,0.0,0.0,0.0,0.0,0.0,0.0,0.0,0.0,0.0,0.0,0.0,0.0,0.0,0.0,0.0,0.0,-2.1804,-2.3085,-2.5259,-2.5554,-2.5603,-2.559,-2.5223,-2.3706,-2.0648,-2.0449,0.0,0.0,0.0,0.0,0.0,0.0,0.0,0.0,0.0,0.0,0.0,0.0,0.0,0.0,0.0,0.0,0.0,0.0,0.0,0.0,0.0,0.0,0.0,0.0,0.0,0.0,0.0,0.0,0.0,0.0,0.0,0.0,0.0,0.0,0.0,0.0,0.0,0.0,0.0,0.0,0.0,0.0,0.0,0.0,0.0,0.0,0.0,0.0,0.0,0.0,0.0,0.0,0.0,0.0,0.0,0.0,0.0,0.0,0.0,0.0,0.0,0.0,0.0,0.0,0.0,0.0,0.0,0.0,0.0,0.0,0.0,0.0,0.0,0.0,0.0,0.0,0.0,0.0,0.0,0.0,0.0,0.0,0.0,0.0,0.0,0.0,0.0,0.0,0.0,0.0,0.0,0.0,0.0,0.0,0.0,0.0,0.0,0.0,0.0,0.0,0.0,0.0,-2.2594,-2.3318,-2.5298,-2.5556,-2.5595,-2.5609,-2.524,-2.3718,-2.0696,-2.0115,0.0,0.0,0.0,0.0,0.0,0.0,0.0,0.0,0.0,0.0,0.0,0.0,0.0,0.0,0.0,0.0,0.0,0.0,0.0,0.0,0.0,0.0,0.0,0.0,0.0,0.0,0.0,0.0,0.0,0.0,0.0,0.0,0.0,0.0,0.0,0.0,0.0,0.0,0.0,0.0,0.0,0.0,0.0,0.0,0.0,0.0,0.0,0.0,0.0,0.0,0.0,0.0,0.0,0.0,0.0,0.0,0.0,0.0,0.0,0.0,0.0,0.0,0.0,0.0,0.0,0.0,0.0,0.0,0.0,0.0,0.0,0.0,0.0,0.0,0.0,0.0,0.0,0.0,0.0,0.0,0.0,0.0,0.0,0.0,0.0,0.0,0.0,0.0,0.0,0.0,0.0,0.0,0.0,0.0,0.0,0.0,0.0,0.0,0.0,0.0,0.0,0.0,-2.3755,-2.5236,-2.5469,-2.5568,-2.5591,-2.56,-2.417,-2.2475,-2.0623,-1.8982,0.0,0.0,0.0,0.0,0.0,0.0,0.0,0.0,0.0,0.0,0.0,0.0,0.0,0.0,0.0,0.0,0.0,0.0,0.0,0.0,0.0,0.0,0.0,0.0,0.0,0.0,0.0,0.0,0.0,0.0,0.0,0.0,0.0,0.0,0.0,0.0,0.0,0.0,0.0,0.0,0.0,0.0,0.0,0.0,0.0,0.0,0.0,0.0,0.0,0.0,0.0,0.0,0.0,0.0,0.0,0.0,0.0,0.0,0.0,0.0,0.0,0.0,0.0,0.0,0.0,0.0,0.0,0.0,0.0,0.0,0.0,0.0,0.0,0.0,0.0,0.0,0.0,0.0,0.0,0.0,0.0,0.0,0.0,0.0,0.0,0.0,0.0,0.0,0.0,0.0,0.0,0.0,0.0,0.0,0.0,0.0,0.0,0.0,0.0,0.0,0.0,0.0,-2.2596,-2.4273,0.0,-2.5563,-2.5598,-2.5601,-2.4554,-2.3164,-2.1422,0.0,0.0,0.0,0.0,0.0,0.0,0.0,0.0,0.0,0.0,0.0,0.0,0.0,0.0,0.0,0.0,0.0,0.0,0.0,0.0,0.0,0.0,0.0,0.0,0.0,0.0,0.0,0.0,0.0,0.0,0.0,0.0,0.0,0.0,0.0,0.0,0.0,0.0,0.0,0.0,0.0,0.0,0.0,0.0,0.0,0.0,0.0,0.0,0.0,0.0,0.0,0.0,0.0,0.0,0.0,0.0,0.0,0.0,0.0,0.0,0.0,0.0,0.0,0.0,0.0,0.0,0.0,0.0,0.0,0.0,0.0,0.0,0.0,0.0,0.0,0.0,0.0,0.0,0.0,0.0,0.0,0.0,0.0,0.0,0.0,0.0,0.0,0.0,0.0,0.0,0.0,0.0,0.0,0.0,0.0,0.0,0.0,0.0,0.0,0.0,0.0,0.0,-2.0118,-2.2037,-2.3732,0.0,-2.5135,-2.4942,-2.4407,-2.3616,-2.2421,-2.0661,0.0,0.0,0.0,0.0,0.0,0.0,0.0,0.0,0.0,0.0,0.0,0.0,0.0,0.0,0.0,0.0,0.0,0.0,0.0,0.0,0.0,0.0,0.0,0.0,0.0,0.0,0.0,0.0,0.0,0.0,0.0,0.0,0.0,0.0,0.0,0.0,0.0,0.0,0.0,0.0,0.0,0.0,0.0,0.0,0.0,0.0,0.0,0.0,0.0,0.0,0.0,0.0,0.0,0.0,0.0,0.0,0.0,0.0,0.0,0.0,0.0,0.0,0.0,0.0,0.0,0.0,0.0,0.0,0.0,0.0,0.0,0.0,0.0,0.0,0.0,0.0,0.0,0.0,0.0,0.0,0.0,0.0,0.0,0.0,0.0,0.0,0.0,0.0,0.0,0.0,0.0,0.0,0.0,0.0,0.0,0.0,0.0,0.0,0.0,0.0,0.0,0.0,-2.0173,-2.2504,-2.4109,-2.4188,-2.4187,-2.3502,-2.1843,-2.0953,-1.9754,0.0,0.0,0.0,0.0,0.0,0.0,0.0,0.0,0.0,0.0,0.0,0.0,0.0,0.0,0.0,0.0,0.0,0.0,0.0,0.0,0.0,0.0,0.0,0.0,0.0,0.0,0.0,0.0,0.0,0.0,0.0,0.0,0.0,0.0,0.0,0.0,0.0,0.0,0.0,0.0,0.0,0.0,0.0,0.0,0.0,0.0,0.0,0.0,0.0,0.0,0.0,0.0,0.0,0.0,0.0,0.0,0.0,0.0,0.0,0.0,0.0,0.0,0.0,0.0,0.0,0.0,0.0,0.0,0.0,0.0,0.0,0.0,0.0,0.0,0.0,0.0,0.0,0.0,0.0,0.0,0.0,0.0,0.0,0.0,0.0,0.0,0.0,0.0,0.0,0.0,0.0,0.0,0.0,0.0,0.0,0.0,0.0,0.0,0.0,0.0,0.0,0.0,0.0,-1.9347,-2.1606,-2.3189,-2.3203,-2.3255,-2.2833,-2.1723,-2.0895,-1.9975,-1.8883,0.0,0.0,0.0,0.0,0.0,0.0,0.0,0.0,0.0,0.0,0.0,0.0,0.0,0.0,0.0,0.0,0.0,0.0,0.0,0.0,0.0,0.0,0.0,0.0,0.0,0.0,0.0,0.0,0.0,0.0,0.0,0.0,0.0,0.0,0.0,0.0,0.0,0.0,0.0,0.0,0.0,0.0,0.0,0.0,0.0,0.0,0.0,0.0,0.0,0.0,0.0,0.0,0.0,0.0,0.0,0.0,0.0,0.0,0.0,0.0,0.0,0.0,0.0,0.0,0.0,0.0,0.0,0.0,0.0,0.0,0.0,0.0,0.0,0.0,0.0,0.0,0.0,0.0,0.0,0.0,0.0,0.0,0.0,0.0,0.0,0.0,0.0,0.0,0.0,0.0,0.0,0.0,0.0,0.0,0.0,0.0,0.0,0.0,0.0,0.0,0.0,0.0,-1.8945,-2.0892,-2.2267,-2.2322,-2.2041,-2.1375,-2.0186,-1.9644,-1.8729,-1.7216,0.0,0.0,0.0,0.0,0.0,0.0,0.0,0.0,0.0,0.0,0.0,0.0,0.0,0.0,0.0,0.0,0.0,0.0,0.0,0.0,0.0,0.0,0.0,0.0,0.0,0.0,0.0,0.0,0.0,0.0,0.0,0.0,0.0,0.0,0.0,0.0,0.0,0.0,0.0,0.0,0.0,0.0,0.0,0.0,0.0,0.0,0.0,0.0,0.0,0.0,0.0,0.0,0.0,0.0,0.0,0.0,0.0,0.0,0.0,0.0,0.0,0.0,0.0,0.0,0.0,0.0,0.0,0.0,0.0,0.0,0.0,0.0,0.0,0.0,0.0,0.0,0.0,0.0,0.0,0.0,0.0,0.0,0.0,0.0,0.0,0.0,0.0,0.0,0.0,0.0,0.0,0.0,0.0,0.0,0.0,0.0,0.0,0.0,0.0,0.0,0.0,0.0,-1.8657,-2.0161,-2.1177,-2.1228,-2.0527,-1.9402,-1.7802,-1.769,-1.6656,-1.4267,0.0,0.0,0.0,0.0,0.0,0.0,0.0,0.0,0.0,0.0,0.0,0.0,0.0,0.0,0.0,0.0,0.0,0.0,0.0,0.0,0.0,0.0,0.0,0.0,0.0,0.0,0.0,0.0,0.0,0.0,0.0,0.0,0.0,0.0,0.0,0.0,0.0,0.0,0.0,0.0,0.0,0.0,0.0,0.0,0.0,0.0,0.0,0.0,0.0,0.0,0.0,0.0,0.0,0.0,0.0,0.0,0.0,0.0,0.0,0.0,-2.1083,0.0,0.0,0.0,0.0,0.0,0.0,0.0,0.0,0.0,0.0,0.0,0.0,0.0,0.0,0.0,0.0,0.0,0.0,0.0,0.0,0.0,0.0,0.0,0.0,0.0,0.0,0.0,0.0,0.0,0.0,0.0,0.0,0.0,0.0,0.0,0.0,0.0,0.0,0.0,0.0,0.0,-1.6926,-1.8286,-1.9064,-1.8518,-1.834,-1.7841,-1.6862,-1.6785,-1.6259,-1.5014,0.0,0.0,0.0,0.0,0.0,0.0,0.0,0.0,0.0,0.0,0.0,0.0,0.0,0.0,0.0,0.0,0.0,0.0,0.0,0.0,0.0,0.0,0.0,0.0,0.0,0.0,0.0,0.0,0.0,0.0,0.0,0.0,0.0,0.0,0.0,0.0,0.0,0.0,0.0,0.0,0.0,0.0,0.0,0.0,0.0,0.0,0.0,0.0,0.0,0.0,0.0,0.0,0.0,0.0,0.0,0.0,0.0,0.0,0.0,0.0,0.0,-2.1934,0.0,0.0,0.0,0.0,0.0,0.0,0.0,0.0,0.0,0.0,0.0,0.0,0.0,0.0,0.0,0.0,0.0,0.0,0.0,0.0,0.0,0.0,0.0,0.0,0.0,0.0,0.0,0.0,0.0,0.0,0.0,0.0,0.0,0.0,0.0,0.0,0.0,0.0,0.0,0.0,-1.6271,-1.7269,-1.786,-1.7547,-1.7213,-1.6857,-1.6432,-1.6042,-1.5462,-1.4634,-1.3768,0.0,0.0,0.0,0.0,0.0,0.0,0.0,0.0,0.0,0.0,0.0,0.0,0.0,0.0,0.0,0.0,0.0,0.0,0.0,0.0,0.0,0.0,0.0,0.0,0.0,0.0,0.0,0.0,0.0,0.0,0.0,0.0,0.0,0.0,0.0,0.0,0.0,0.0,0.0,0.0,0.0,0.0,0.0,0.0,0.0,0.0,0.0,0.0,0.0,0.0,0.0,0.0,0.0,0.0,-2.4736,-2.3987,-2.4052,-2.4062,-2.4003,-2.4062,-2.3608,-2.2757,0.0,0.0,0.0,0.0,0.0,0.0,0.0,0.0,0.0,0.0,0.0,0.0,0.0,0.0,0.0,0.0,0.0,0.0,0.0,0.0,0.0,0.0,0.0,0.0,0.0,-1.6916,-1.594,0.0,0.0,0.0,0.0,0.0,0.0,0.0,0.0,0.0,0.0,0.0,0.0,-1.5913,-1.6535,-1.6945,-1.6927,-1.6406,-1.605,-1.6046,-1.5437,-1.4762,-1.4077,-1.3912,-1.3294,0.0,0.0,0.0,0.0,0.0,0.0,0.0,0.0,0.0,0.0,0.0,0.0,0.0,0.0,0.0,0.0,0.0,0.0,0.0,0.0,0.0,0.0,0.0,0.0,0.0,0.0,0.0,0.0,0.0,0.0,0.0,0.0,-2.0023,-2.019,0.0,0.0,0.0,0.0,0.0,0.0,0.0,0.0,0.0,0.0,0.0,0.0,0.0,0.0,-2.2197,-2.3334,-2.3635,-2.3134,-2.4929,-2.5387,-2.4677,-2.532,-2.5599,-2.5599,-2.5599,0.0,-2.4032,-2.2502,0.0,0.0,0.0,0.0,0.0,0.0,0.0,0.0,0.0,0.0,0.0,0.0,0.0,0.0,0.0,0.0,0.0,0.0,0.0,0.0,0.0,0.0,-1.7927,-1.7409,-1.667,-1.5969,0.0,-1.5424,-1.5239,-1.4529,0.0,0.0,0.0,0.0,0.0,0.0,0.0,0.0,-1.4892,-1.5497,-1.5726,-1.504,-1.5048,-1.5068,-1.4994,-1.4908,-1.4778,-1.4592,-1.3992,-1.3905,-1.4493,-1.2566,0.0,0.0,0.0,0.0,0.0,0.0,0.0,0.0,0.0,0.0,0.0,0.0,0.0,0.0,0.0,0.0,0.0,0.0,0.0,0.0,0.0,0.0,0.0,0.0,0.0,0.0,0.0,0.0,0.0,-2.025,-2.1019,-2.1093,-2.1123,-2.0999,0.0,0.0,0.0,0.0,0.0,0.0,0.0,0.0,0.0,-2.2839,-2.3693,-2.4397,-2.488,-2.5043,-2.5141,-2.5205,-2.5675,-2.5717,-2.5422,-2.5662,-2.5791,-2.5791,-2.5749,-2.5484,-2.4957,-2.3635,-2.2881,-2.2463,0.0,0.0,0.0,0.0,0.0,-1.9641,-2.0172,0.0,0.0,0.0,0.0,0.0,0.0,0.0,0.0,0.0,0.0,0.0,0.0,0.0,0.0,-1.7302,-1.6541,-1.6004,-1.582,-1.5766,-1.5569,0.0,-1.5409,-1.5732,-1.5331,0.0,0.0,0.0,0.0,0.0,-1.4354,-1.4548,-1.4602,-1.4246,-1.4454,-1.4598,-1.4516,-1.4695,-1.4771,-1.4695,-1.441,-1.4188,-1.4103,-1.3524,-1.2907,0.0,0.0,0.0,0.0,0.0,0.0,0.0,0.0,0.0,0.0,0.0,0.0,0.0,0.0,0.0,0.0,0.0,0.0,0.0,0.0,0.0,0.0,0.0,0.0,0.0,0.0,0.0,0.0,-2.1053,-2.1954,-2.1928,-2.2178,-2.2031,0.0,0.0,0.0,0.0,0.0,0.0,-2.3591,-2.4182,-2.4398,-2.4149,-2.4651,-2.5458,-2.655,-2.6262,-2.6265,-2.6556,-2.6175,-2.5912,-2.5749,-2.5586,-2.5513,-2.5513,-2.5359,-2.5282,-2.524,-2.4399,-2.3703,-2.3063,-2.195,-2.1407,-2.1287,-2.1238,-2.0572,-1.9822,-2.0621,-2.0345,-1.9635,-1.9635,0.0,-1.9009,-1.8097,0.0,0.0,0.0,0.0,-1.9137,-1.873,0.0,-1.8007,-1.7179,-1.6323,-1.5754,-1.5854,-1.6075,-1.6095,0.0,-1.6328,-1.6931,-1.6459,0.0,0.0,0.0,0.0,-1.4443,-1.4002,-1.3924,-1.3899,-1.3899,-1.4125,-1.4252,-1.4203,-1.4438,-1.4568,-1.455,-1.4566,-1.4304,-1.3717,-1.411,-1.3589,-1.1973,0.0,0.0,0.0,0.0,0.0,0.0,0.0,0.0,0.0,0.0,0.0,0.0,0.0,0.0,0.0,0.0,0.0,0.0,0.0,0.0,0.0,0.0,0.0,0.0,0.0,0.0,0.0,0.0,0.0,-2.2309,-2.3177,0.0,0.0,0.0,0.0,-2.4553,-2.4013,-2.388,-2.4495,-2.521,-2.5273,-2.4486,-2.5181,-2.56,-2.5664,-2.6332,-2.6332,-2.5664,-2.6069,-2.5958,-2.5333,-2.5139,-2.5045,-2.5005,-2.4623,-2.445,-2.4444,-2.4258,-2.4198,-2.4124,-2.3042,-2.249,-2.2282,-2.1963,-2.1299,-2.0531,-2.0387,-1.9926,-1.9424,-1.9424,-1.9158,-1.878,-1.8543,-1.813,0.0,0.0,-1.817,-1.825,-1.86,-1.7788,-1.6898,-1.6909,-1.5914,-1.5059,-1.5448,-1.6277,-1.6825,0.0,-1.5845,-1.5782,-1.6943,0.0,-1.4388,-1.5501,-1.4477,-1.3625,-1.3798,-1.3866,-1.3906,-1.3906,-1.3924,-1.392,-1.391,-1.3942,-1.3991,-1.4123,-1.4185,-1.4289,-1.4444,-1.3748,-1.3728,-1.4497,-1.2114,0.0,0.0,0.0,0.0,0.0,0.0,0.0,0.0,0.0,0.0,0.0,0.0,0.0,0.0,0.0,0.0,0.0,0.0,0.0,0.0,0.0,0.0,0.0,0.0,0.0,0.0,0.0,0.0,-2.2175,-2.3509,0.0,0.0,-2.3083,-2.3569,-2.4166,-2.3935,-2.4051,-2.4699,-2.5419,-2.588,-2.5979,-2.6705,-2.7062,-2.7062,-2.7143,-2.7017,-2.6759,-2.6757,-2.6277,-2.5362,-2.528,-2.4901,-2.4292,-2.4152,-2.4074,-2.4059,-2.3886,-2.3902,-2.3966,-2.3106,-2.2668,-2.245,-2.1858,-2.1362,-2.0966,-2.0906,-2.0396,-1.9672,-1.8932,-1.8593,-1.8431,-1.8191,-1.7889,-1.7698,-1.8144,-1.8158,-1.8119,-1.8526,-1.7713,-1.6792,-1.6714,-1.5748,-1.4858,-1.5026,-1.5322,-1.5546,-1.5388,-1.6089,-1.6745,-1.6862,-1.6127,-1.5454,-1.5277,-1.4692,-1.4024,-1.3311,-1.3236,-1.3312,-1.3436,-1.357,-1.3632,-1.3638,-1.3718,-1.3793,-1.3833,-1.3862,-1.3705,-1.3291,-1.3001,-1.2764,-1.2573,-1.1663,-1.115,0.0,0.0,0.0,0.0,0.0,0.0,0.0,0.0,0.0,0.0,0.0,0.0,0.0,0.0,0.0,0.0,0.0,0.0,0.0,0.0,0.0,0.0,0.0,0.0,0.0,0.0,-2.2988,-2.2899,-2.4076,-2.4544,-2.3564,-2.4027,-2.4511,-2.4856,-2.4842,-2.5016,-2.5463,-2.594,-2.6265,-2.6415,-2.6901,-2.7152,-2.7152,-2.7177,-2.7064,-2.6834,-2.6832,-2.6216,-2.509,-2.5024,-2.4522,-2.3702,-2.3558,-2.3515,-2.3471,-2.3231,-2.3143,-2.3172,-2.288,-2.2717,-2.2553,-2.1957,-2.146,-2.1032,-2.0538,-1.9892,-1.9163,-1.8418,-1.8175,-1.8101,-1.7848,-1.7652,-1.7557,-1.7848,-1.7828,-1.7787,-1.8048,-1.7396,-1.6596,-1.6308,-1.5462,-1.4697,-1.46,-1.4606,-1.4653,-1.4732,-1.5831,-1.664,-1.6284,-1.6028,-1.5713,-1.5273,-1.4634,-1.3972,-1.3351,-1.299,-1.2845,-1.2982,-1.3176,-1.3278,-1.3192,-1.3419,-1.3523,-1.3393,-1.3475,-1.3292,-1.2791,-1.2801,-1.2598,-1.2089,-1.1768,-1.1245,-1.0503,0.0,0.0,0.0,0.0,0.0,0.0,0.0,0.0,0.0,0.0,0.0,0.0,0.0,0.0,0.0,0.0,0.0,0.0,0.0,0.0,0.0,0.0,0.0,-2.1564,-2.2562,-2.3459,-2.447,-2.4908,-2.5,-2.4634,-2.5273,-2.5997,-2.6684,-2.6729,-2.6729,-2.6729,-2.6729,-2.6428,-2.5718,-2.5703,-2.5703,-2.5703,-2.6428,-2.6436,-2.5726,-2.6252,-2.5813,-2.4514,-2.4309,-2.3864,-2.326,-2.2836,-2.2649,-2.2626,-2.231,-2.202,-2.1841,-2.2434,-2.2686,-2.2603,-2.2287,-2.1644,-2.0698,-1.9236,-1.8377,-1.7936,-1.7896,-1.7882,-1.7808,-1.7537,-1.7475,-1.7434,-1.724,-1.7199,-1.7199,-1.7199,-1.6781,-1.6219,-1.563,-1.5016,-1.4485,-1.4152,-1.4176,-1.4335,-1.4533,-1.4937,-1.527,-1.5285,-1.5019,-1.4972,-1.5496,-1.4241,0.0,-1.3905,-1.3174,-1.2623,-1.2633,-1.282,-1.2864,-1.2684,-1.3075,-1.3174,-1.2826,-1.3045,-1.3142,-1.3041,-1.316,-1.3259,-1.3334,-1.2429,-1.1489,-1.0519,0.0,0.0,0.0,0.0,0.0,0.0,0.0,0.0,0.0,0.0,0.0,0.0,0.0,0.0,0.0,0.0,0.0,0.0,0.0,0.0,0.0,0.0,-2.1187,-2.2418,-2.2904,-2.3369,-2.4161,-2.5089,-2.5462,-2.4937,-2.5489,-2.5759,-2.5512,-2.5483,-2.5483,-2.5483,-2.5483,-2.5612,-2.5833,-2.5847,-2.5847,-2.5847,-2.6358,-2.6473,-2.6298,-2.6743,-2.6224,-2.4919,-2.4576,-2.3739,-2.2561,-2.2092,-2.1864,-2.1756,-2.165,-2.1592,-2.1544,-2.1912,-2.1921,-2.1746,-2.165,-2.1459,-2.105,-1.9629,-1.903,-1.8754,-1.7726,-1.724,-1.7018,-1.6942,-1.6934,-1.6913,-1.6837,-1.6997,-1.7178,-1.7073,-1.638,-1.5613,-1.5363,-1.4518,-1.3775,-1.3674,-1.3698,-1.3732,-1.3785,-1.41,-1.4533,-1.5058,-1.5035,-1.4906,-1.4827,0.0,0.0,-1.3281,-1.2977,-1.2988,-1.3426,-1.3517,-1.3707,-1.409,-1.3838,-1.35,0.0,-1.2744,-1.2301,-1.1748,-1.1762,-1.1789,-1.1807,-1.1462,-1.1136,0.0,0.0,0.0,0.0,0.0,0.0,0.0,0.0,0.0,0.0,0.0,0.0,0.0,0.0,0.0,0.0,0.0,0.0,0.0,0.0,0.0,0.0,-2.0597,-2.1855,-2.3224,-2.3247,-2.346,-2.4425,-2.5019,-2.531,-2.5293,-2.5656,-2.5739,-2.5414,-2.5386,-2.5386,-2.5386,-2.5386,-2.5474,-2.5729,-2.5716,-2.5661,-2.5536,-2.5756,-2.5865,-2.5865,-2.6122,-2.5675,-2.4673,-2.4443,-2.3596,0.0,-2.2013,-2.1703,-2.1399,-2.1215,-2.1093,0.0,0.0,0.0,0.0,0.0,-2.0576,-2.0186,-1.9061,-1.8516,-1.8109,-1.6981,-1.6475,-1.629,-1.6182,-1.616,-1.616,-1.616,-1.629,-1.642,-1.6346,-1.5873,-1.5268,-1.4769,-1.4156,-1.3544,-1.3069,-1.3109,-1.3246,-1.3207,0.0,0.0,-1.4501,-1.4705,-1.4764,-1.4674,-1.4328,-1.391,-1.339,-1.2783,-1.2532,-1.2868,-1.2788,-1.2906,-1.3394,-1.3298,0.0,0.0,0.0,-1.1908,-1.1227,-1.1197,0.0,0.0,0.0,0.0,0.0,0.0,0.0,0.0,-1.0647,-1.07,0.0,0.0,0.0,0.0,0.0,0.0,0.0,0.0,0.0,0.0,0.0,0.0,0.0,0.0,0.0,0.0,-2.1387,-2.2001,-2.3621,-2.3393,-2.3568,-2.5023,-2.4806,-2.4832,-2.5563,-2.5729,-2.5811,-2.5811,-2.5811,-2.5811,-2.5811,0.0,0.0,0.0,0.0,-2.5313,-2.5005,-2.5005,-2.5005,-2.5005,-2.5005,-2.4706,-2.4136,-2.4041,-2.3393,-2.2316,-2.2143,-2.1768,-2.1236,-2.081,-2.051,-2.0346,-2.0945,-2.0957,-2.0572,-1.9978,-1.9434,0.0,0.0,0.0,0.0,-1.6148,-1.5818,-1.5668,-1.5481,-1.539,-1.5344,-1.5344,-1.5366,-1.5411,-1.5389,-1.5342,-1.5049,-1.4096,-1.3815,-1.349,-1.2408,-1.2508,-1.2801,-1.272,-1.2983,-1.3314,-1.3606,-1.4084,-1.4519,-1.479,-1.4111,-1.3644,-1.3812,-1.2636,-1.18,-1.1839,0.0,0.0,-1.1919,-1.227,-1.2291,-1.1923,-1.2032,-1.1856,-1.1255,-1.1227,-1.1187,-1.1105,-1.107,-1.0959,-1.0727,-1.0691,-1.0691,-1.069,-1.067,-1.0915,0.0,0.0,0.0,0.0,0.0,0.0,0.0,0.0,0.0,0.0,0.0,0.0,0.0,0.0,0.0,-1.9976,-2.0964,-2.1847,-2.2189,-2.2502,-2.3279,-2.4851,-2.4966,-2.4967,-2.5104,-2.5174,-2.5174,-2.5174,-2.5174,-2.5174,-2.5174,-2.5174,0.0,-2.5103,-2.5103,-2.5075,-2.5005,-2.5005,-2.5005,-2.5005,0.0,0.0,-2.4393,-2.3674,-2.3037,-2.2401,-2.1261,-2.063,-2.0398,-1.9869,-1.9642,-1.9617,-1.9746,-1.9746,-1.9668,-1.9512,-1.9399,-1.9162,-1.8344,-1.7713,-1.7219,-1.6763,-1.5916,-1.5143,-1.5461,-1.529,0.0,-1.4994,-1.5186,-1.5389,-1.5321,-1.4962,-1.4454,-1.3801,-1.3279,-1.2789,-1.224,-1.2192,-1.2228,-1.2102,-1.2144,-1.2198,-1.2187,-1.3118,-1.3983,-1.4356,-1.4258,-1.3967,-1.348,-1.2797,-1.2444,-1.2726,-1.2299,-1.2424,-1.3473,-1.3143,-1.2911,-1.2984,-1.2536,-1.2007,-1.1462,-1.1435,-1.1141,-1.0494,-1.026,-1.0008,-0.9701,-0.9465,-0.9371,-0.9384,-1.0114,-1.051,0.0,0.0,0.0,0.0,0.0,0.0,0.0,0.0,0.0,0.0,0.0,-1.9071,-1.9352,0.0,-2.0489,-2.0698,-2.1345,-2.1898,-2.2156,-2.2432,-2.2937,-2.3842,-2.4018,-2.4076,-2.4134,-2.4208,-2.4237,-2.4237,-2.4237,-2.4237,-2.4237,-2.4237,-2.4179,-2.4047,-2.4047,-2.3959,-2.38,-2.38,-2.38,-2.38,-2.38,-2.3712,-2.3522,-2.3107,-2.2636,-2.2085,-2.0969,-2.0287,-1.9885,-1.9015,-1.8494,-1.8306,-1.8344,-1.856,-1.8789,-1.8441,-1.8306,-1.8197,-1.7519,-1.6977,-1.6507,-1.5921,-1.5169,-1.4463,-1.4575,-1.4301,-1.3956,-1.3956,-1.3956,-1.3933,-1.392,-1.3445,-1.2916,-1.2626,-1.2099,-1.1594,-1.1389,-1.1516,-1.1627,-1.156,-1.1708,-1.1847,-1.1811,-1.2342,-1.2824,-1.3015,-1.3216,-1.3128,-1.2526,-1.2015,-1.1662,-1.1554,-1.0925,-1.0845,-1.1711,-1.1715,-1.1695,-1.178,-1.1425,-1.0986,-1.0513,-1.05,-1.02,-0.9557,-0.9412,-0.9266,-0.9093,-0.897,-0.8894,-0.8909,-0.9241,-0.9494,0.0,0.0,0.0,0.0,0.0,0.0,0.0,0.0,-1.8239,-1.8314,-1.9191,-2.0005,-2.0292,-2.0455,-2.0782,-2.1483,-2.1656,-2.1837,-2.2268,-2.2329,-2.2354,-2.242,-2.2754,-2.3058,-2.3165,-2.3272,-2.3331,-2.3331,-2.3331,-2.3331,-2.3331,-2.3331,-2.3212,-2.3027,-2.2997,-2.2864,-2.2592,-2.2592,-2.2573,-2.25,-2.25,-2.2482,-2.2408,-2.2317,-2.2037,-2.1554,-2.0634,-1.9792,-1.899,-1.8017,-1.7335,-1.6927,-1.692,-1.7273,-1.7694,-1.7234,-1.7078,-1.6996,-1.6459,-1.5983,-1.5493,-1.4929,-1.4333,-1.3776,-1.3665,-1.3286,-1.2895,-1.2812,-1.2613,-1.2387,-1.2338,-1.1965,-1.1546,-1.1357,-1.0927,-1.0539,-1.0371,-1.0611,-1.0829,-1.081,-1.1075,-1.13,-1.1263,-1.1263,-1.1375,-1.1756,-1.2077,-1.2089,-1.1559,-1.1078,-1.0583,-1.0053,-0.9289,-0.9018,-0.9544,-0.9988,-1.0236,-1.0236,-1.0141,-0.988,-0.9458,-0.9493,-0.9273,-0.8739,-0.8728,-0.8685,-0.8627,-0.8628,-0.8595,-0.854,-0.8365,-0.8459,-1.7054,-1.6844,-1.6903,-1.6687,-1.676,-1.7092,0.0,0.0,-1.8394,-1.8762,-1.9611,-2.0224,-1.9853,-2.0507,-2.1001,-2.063,-2.0969,-2.1279,-2.1336,-2.1348,-2.1174,-2.0723,-2.1837,-2.2652,-2.2683,-2.2683,-2.2713,-2.2713,-2.2713,-2.2713,-2.2713,-2.2713,-2.2683,-2.2652,-2.2665,-2.2622,-2.2592,-2.2592,-2.2439,-2.2175,-2.2175,-2.2021,-2.171,-2.129,-2.1046,-2.0911,-1.9518,-1.8123,-1.6839,-1.6712,-1.6368,-1.594,-1.569,-1.5671,-1.5806,-1.6379,-1.6578,-1.6482,-1.5785,-1.5219,-1.482,-1.4869,-1.4085,-1.3195,-1.3568,-1.3151,-1.2486,-1.2203,-1.2095,-1.1996,-1.1774,-1.1664,-1.144,-1.0777,-1.0561,-1.0328,-0.9591,-0.9478,-0.9498,-0.9428,-0.9468,-0.9448,-0.9328,-0.9308,-0.9884,-1.1542,-1.1847,-1.1685,-1.1223,-1.0697,-1.0183,-0.9705,-0.9136,-0.9018,-0.9544,-0.9872,-1.0026,-1.0026,-1.0016,-0.9788,-0.9252,-0.9463,-0.9224,-0.8457,-0.8447,-0.8305,-0.8007,-0.7991,-0.7875,-0.7646,-0.7805,-0.8078,-1.7754,0.0,0.0,0.0,-1.7638,-1.8113,-1.8116,-1.8844,-1.9575,-1.9734,-2.0354,-2.0822,-2.0615,-2.0914,-2.1057,0.0,-2.0703,-2.0764,-2.0592,-2.0314,-2.0089,-1.9845,-2.0156,-2.0549,-2.0981,-2.085,-2.0841,-2.1109,-2.1164,-2.1164,-2.1164,-2.1164,-2.1164,-2.1164,-2.1164,-2.1164,-2.1164,-2.1164,-2.1069,-2.0942,-2.0942,-2.0858,-2.073,-2.0505,-1.9875,-1.8879,-1.8277,-1.7081,-1.5575,-1.5575,-1.5459,-1.5255,-1.5147,-1.5118,-1.5147,-1.5459,-1.5575,-1.5517,-1.5206,-1.4821,-1.4477,-1.4535,-1.3736,-1.2802,-1.3004,-1.2404,-1.161,-1.1468,-1.1292,-1.1099,-1.0998,-1.0689,-1.0425,-1.0334,-0.9908,-0.9483,-0.9426,-0.9255,-0.9108,-0.9096,-0.9076,-0.9056,-0.9004,-0.8996,-0.9268,-1.005,-1.0379,-1.0342,-0.9818,-0.9476,-0.8916,-0.8003,-0.772,-0.7666,-0.7885,-0.8257,-0.8486,-0.8486,-0.8894,-0.8836,-0.8177,-0.8452,-0.8181,-0.7266,-0.7233,-0.7088,-0.6787,-0.6912,-0.6912,-0.6815,-0.7042,-0.7244,-1.7804,0.0,0.0,-1.7588,-1.8242,-1.8839,-1.8593,-1.9498,-2.0377,-2.024,-2.0545,-2.0823,-2.0685,-2.0671,0.0,-2.0338,-2.0385,-2.0322,-1.9953,-1.9594,-1.9308,-1.9045,-1.8577,-1.8481,-1.8991,-1.9253,-1.9572,-2.0063,-2.0096,-2.0096,-2.0096,-2.0096,-2.0096,-2.0096,-2.0096,-2.0096,-2.0096,-1.9966,-1.9835,-1.9737,-1.9595,-1.9464,-1.9365,-1.9271,-1.8455,-1.715,-1.703,-1.6124,-1.4715,-1.4715,-1.4627,-1.4499,-1.4499,-1.4499,-1.4499,-1.4419,-1.4508,-1.4686,-1.4449,-1.4207,-1.3932,-1.3836,-1.3189,-1.2422,-1.2307,-1.1678,-1.0935,-1.0777,-1.0557,-1.0342,-1.0283,-0.9918,-0.9661,-0.9864,-0.9408,-0.8918,-0.8984,-0.8887,-0.8733,-0.8545,-0.857,-0.8631,-0.8631,-0.8631,-0.859,-0.8431,-0.8683,-0.8802,-0.8714,-0.837,-0.7807,-0.6935,-0.6759,-0.6691,-0.6691,-0.6941,-0.7095,-0.7095,-0.7576,-0.7601,-0.7016,-0.7293,-0.7087,-0.6304,-0.6296,-0.622,-0.6079,-0.6172,-0.6203,-0.6191,-0.6413,-0.6449,0.0,0.0,-1.7913,-1.8061,-1.8478,-1.9023,-1.9528,-2.0044,-2.0285,-1.9815,-1.989,-1.9887,-1.9355,-1.9379,-1.946,-1.9428,-1.9822,-1.9964,-1.9494,-1.9406,-1.9056,-1.8137,-1.7402,-1.6957,0.0,-1.8401,-1.9572,-2.0063,-2.0096,-2.0096,-2.0096,-2.0096,-2.0096,-2.0096,-2.0096,-2.0096,-2.0096,-1.9562,-1.9166,-1.8834,-1.8297,-1.7876,-1.7467,-1.7159,-1.673,-1.6237,-1.5837,-1.5107,-1.4219,-1.4219,-1.3941,-1.3541,-1.3541,-1.3541,-1.3511,-1.3194,-1.3558,-1.41,-1.3316,-1.3033,-1.3003,-1.2658,-1.2312,-1.1953,-1.1631,-1.1233,-1.0784,-1.0194,-1.0025,-0.9947,-0.9692,-0.9607,-0.9526,-0.9291,-0.921,-0.8922,-0.7974,-0.8003,-0.8026,-0.7377,-0.7524,-0.7732,-0.7732,-0.7732,-0.7558,-0.7035,-0.6965,-0.7326,-0.8286,-0.7722,-0.7222,-0.718,-0.6897,-0.6691,-0.6691,-0.6475,-0.633,-0.633,-0.6298,-0.617,-0.5957,-0.621,-0.624,-0.6017,-0.601,-0.6103,-0.6291,-0.6112,-0.5973,-0.5919,-0.5981,-0.5844,0.0,0.0,-1.7595,-1.8257,-1.8847,-1.9188,-1.9074,-1.9396,-1.9638,-1.9182,-1.9155,-1.9149,-1.8953,-1.8962,-1.9006,-1.906,-1.8892,-1.8759,-1.8674,-1.8112,-1.7474,-1.6876,-1.6303,0.0,0.0,0.0,0.0,-1.7918,-1.7968,-1.8065,-1.8297,-1.8307,-1.8307,-1.8307,-1.8307,-1.8307,-1.8307,-1.8138,-1.7978,-1.7876,-1.7672,-1.7545,-1.7364,-1.6829,-1.6145,-1.5386,-1.4728,-1.3946,-1.3064,-1.3064,-1.2972,-1.285,-1.285,-1.265,-1.2358,-1.2243,-1.2143,-1.2135,-1.2536,-1.2674,-1.2644,-1.2552,-1.1912,-1.119,-1.1086,-1.0294,-0.9384,-0.9207,-0.9045,-0.8923,-0.8817,-0.8811,-0.8791,-0.8697,-0.8497,-0.8172,-0.7621,-0.7462,-0.7254,-0.6708,-0.6704,-0.673,-0.6602,-0.6571,-0.6507,-0.6331,-0.6571,-0.6804,-0.6915,-0.6971,-0.6797,-0.6261,-0.6114,-0.5905,-0.5602,-0.5492,-0.5446,-0.5446,-0.5626,-0.5609,-0.5305,-0.5597,-0.5544,-0.5077,-0.4848,-0.4809,-0.498,-0.4583,-0.4507,-0.4695,-0.4645,-0.4548,-1.7119,-1.7467,-1.7839,-1.8672,-1.9028,-1.9113,-1.8971,-1.9067,-1.9021,-1.8375,-1.8196,-1.8053,-1.7879,-1.7642,-1.7692,-1.8364,-1.8048,-1.7817,-1.8005,-1.7496,-1.6871,-1.6249,-1.5735,0.0,0.0,0.0,0.0,-1.6835,-1.6992,-1.7158,-1.7398,-1.7407,-1.7407,-1.7407,-1.7407,-1.7407,-1.7407,-1.7201,-1.6959,-1.6603,-1.6464,-1.6394,-1.6376,-1.5698,-1.5078,-1.4467,-1.3705,-1.3054,-1.2482,-1.2482,-1.239,-1.2251,-1.2251,-1.1934,-1.1485,-1.1392,-1.1111,-1.0923,-1.1562,-1.1787,-1.1756,-1.1663,-1.1122,-1.0489,-1.0276,-0.9586,-0.8827,-0.8659,-0.8421,-0.8229,-0.8229,-0.815,-0.807,-0.807,-0.7909,-0.7621,-0.7169,-0.7045,-0.6831,-0.6303,-0.6257,-0.6259,-0.614,-0.5864,-0.5674,-0.5674,-0.591,-0.6108,-0.6122,-0.6281,-0.6213,-0.5684,-0.552,-0.5336,-0.5031,-0.4993,-0.4993,-0.4993,-0.5084,-0.5007,-0.4697,-0.4769,-0.459,-0.4104,-0.3881,-0.3876,-0.4054,-0.3643,-0.3618,-0.3908,-0.3734,-0.3655,-1.7453,-1.7952,-1.8554,-1.9174,-1.9008,-1.8799,-1.918,-1.896,-1.84,-1.7426,-1.6985,-1.665,0.0,0.0,-1.5672,-1.7328,-1.7264,-1.7161,-1.7481,-1.7494,-1.7152,0.0,0.0,0.0,0.0,0.0,0.0,-1.6689,0.0,-1.7285,-1.7304,-1.7314,-1.7314,-1.727,-1.727,-1.727,-1.727,-1.6742,-1.6044,-1.5169,-1.4776,-1.4597,-1.4557,-1.386,-1.3535,-1.348,-1.2712,-1.2359,-1.2359,-1.2359,-1.2097,-1.171,-1.171,-1.1392,-1.086,-1.0546,-1.042,-1.0395,-1.0395,-1.0426,-1.042,-1.011,-0.999,-0.9857,-0.932,-0.9149,-0.8994,-0.8465,-0.8076,-0.7818,-0.7818,-0.7626,-0.7439,-0.7439,-0.7439,-0.7243,-0.6608,-0.6704,-0.673,-0.606,-0.6039,-0.6151,-0.6151,-0.5504,-0.5014,-0.5014,-0.4944,-0.5156,-0.5862,-0.5702,-0.5495,-0.5475,-0.5167,-0.4955,-0.4937,-0.4918,-0.4918,-0.4918,-0.4615,-0.4313,-0.406,-0.3754,-0.3469,-0.3209,-0.3186,-0.3315,-0.3579,-0.3292,-0.328,-0.3542,-0.3287,-0.3177,-1.7469,-1.803,-1.8427,-1.8606,-1.8585,-1.8312,-1.7746,-1.7303,-1.6848,-1.622,-1.5767,-1.5441,0.0,0.0,0.0,-1.6127,-1.6207,0.0,-1.6409,-1.6322,0.0,0.0,0.0,-1.5133,-1.4898,-1.499,0.0,0.0,-1.5539,-1.5894,-1.6202,-1.6211,-1.6061,-1.5762,-1.5762,-1.5621,-1.5303,-1.5169,-1.4991,-1.474,-1.4641,-1.4506,-1.4279,-1.3131,-1.2532,-1.2287,-1.1128,-1.0647,-1.0647,-1.0647,-1.0584,-1.0458,-1.0458,-1.0174,-0.9709,-0.9646,-0.9364,-0.9017,-0.9017,-0.9486,-1.011,-1.0015,-0.9767,-0.9362,-0.8849,-0.8291,-0.776,-0.7208,-0.6856,-0.6637,-0.6637,-0.6583,-0.6529,-0.6529,-0.6529,-0.6438,-0.6049,-0.6035,-0.5837,-0.4984,-0.4405,-0.4066,-0.4066,-0.3844,-0.3675,-0.3675,-0.3675,-0.4045,-0.5113,-0.5492,-0.5519,-0.5158,-0.4787,-0.4417,-0.4062,-0.3808,-0.3659,-0.3659,-0.3573,-0.3512,-0.3428,-0.3339,-0.3277,-0.3199,-0.2963,-0.2981,-0.3293,-0.2731,-0.2615,-0.2932,-0.2651,-0.2502,-1.7161,-1.7631,-1.7942,-1.7775,-1.7747,-1.7499,-1.6626,-1.6136,-1.5655,-1.4964,-1.4471,0.0,0.0,0.0,0.0,0.0,0.0,0.0,-1.6206,-1.62,-1.5992,0.0,-1.5324,0.0,-1.4942,-1.493,-1.4837,0.0,-1.4977,-1.5208,-1.5284,-1.5256,-1.5177,-1.4955,-1.4955,-1.482,-1.4605,-1.4461,-1.4238,-1.3977,-1.369,-1.3347,-1.2944,-1.1955,-1.1422,-1.125,0.0,-0.9983,-0.9983,-0.9983,-0.9894,-0.9709,-0.9709,-0.9396,-0.8958,-0.8958,-0.8765,-0.8517,-0.8517,-0.8759,-0.916,-0.9294,-0.9177,-0.8843,-0.8283,-0.7644,-0.6987,-0.649,-0.6112,-0.584,-0.5813,-0.5729,-0.5656,-0.5548,-0.5391,-0.5199,-0.5046,-0.5018,-0.4832,-0.424,-0.3796,-0.3501,-0.3396,-0.3348,-0.3324,-0.3324,-0.3324,-0.3556,-0.4168,-0.4467,-0.45,-0.4242,-0.4001,-0.3759,-0.3502,-0.3303,-0.3192,-0.3192,-0.3062,-0.2973,-0.2973,-0.284,-0.2751,-0.2751,-0.2576,-0.2598,-0.2799,-0.2438,-0.2229,-0.2174,-0.203,-0.1828,-1.6869,-1.7143,-1.7294,-1.6921,-1.6773,-1.652,-1.5723,-1.5158,-1.4602,-1.3787,0.0,0.0,-1.3026,0.0,-1.3095,-1.502,0.0,-1.5245,-1.6275,-1.6393,-1.6228,-1.5797,-1.5355,-1.5133,-1.5133,-1.474,-1.4453,-1.4418,-1.4661,-1.4768,-1.4605,-1.4605,-1.4533,-1.4418,-1.4346,-1.431,-1.4201,-1.3949,-1.3506,-1.2974,-1.2363,-1.1822,-1.1301,-1.0689,-1.0389,-1.0305,0.0,0.0,-0.9799,-0.9799,-0.955,-0.9177,-0.9177,-0.8894,-0.8484,-0.8447,-0.8447,-0.842,-0.8317,-0.8084,-0.7889,-0.8214,-0.8284,-0.8146,-0.7472,-0.6894,-0.6379,-0.5906,-0.5522,-0.5227,-0.5172,-0.5024,-0.4848,-0.464,-0.4301,-0.3996,-0.3996,-0.3968,-0.3877,-0.3761,-0.3696,-0.3571,-0.3417,-0.336,-0.3346,-0.3346,-0.3346,-0.3309,-0.3196,-0.3204,-0.3235,-0.3195,-0.3181,-0.317,-0.3152,-0.3122,-0.3089,-0.3089,-0.2818,-0.2662,-0.2662,-0.237,-0.2191,-0.2098,-0.21,-0.2087,-0.2084,-0.2084,-0.1829,-0.1363,-0.1369,-0.1135,-1.7218,-1.736,-1.7228,-1.6485,-1.6087,-1.5615,-1.4802,-1.4007,0.0,0.0,0.0,-1.2609,-1.2609,-1.277,0.0,-1.3829,0.0,0.0,0.0,0.0,-1.5417,0.0,0.0,0.0,0.0,0.0,0.0,0.0,0.0,0.0,-1.4533,-1.4605,-1.4238,-1.3455,-1.3105,-1.2703,-1.2218,-1.2144,-1.207,-1.1959,-1.1686,-1.1327,-1.0943,-1.0236,-0.9775,-0.9461,0.0,0.0,-0.8765,-0.8765,-0.8705,-0.8641,-0.8641,-0.8576,-0.8452,-0.8182,-0.8084,-0.7987,-0.7265,-0.697,-0.697,-0.7321,-0.7223,-0.6833,-0.5846,-0.5459,-0.5279,-0.4755,-0.4551,-0.4474,-0.4416,-0.4358,-0.4295,-0.4163,-0.4049,-0.3996,-0.3996,-0.3747,-0.3491,-0.347,-0.3118,-0.2786,-0.277,-0.2673,-0.2593,-0.2593,-0.2593,-0.2586,-0.2571,-0.3074,-0.3396,-0.3216,-0.3107,-0.2994,-0.2879,-0.2668,-0.2542,-0.2542,-0.2493,-0.2444,-0.2444,-0.2397,-0.2126,-0.1634,-0.1609,-0.1389,-0.0898,-0.0898,-0.0801,-0.058,-0.065,-0.0547,-1.6507,-1.656,-1.6363,-1.5605,-1.5291,-1.493,-1.3904,0.0,0.0,0.0,0.0,-1.1877,-1.1877,0.0,0.0,0.0,0.0,0.0,0.0,0.0,0.0,0.0,0.0,0.0,0.0,0.0,0.0,0.0,0.0,0.0,-1.3062,-1.3098,-1.2879,-1.2439,-1.2224,-1.2003,-1.1706,-1.1706,-1.1489,-1.1052,-1.0855,-1.041,-0.9843,-0.9353,-0.9039,-0.8861,-0.8608,0.0,-0.8517,-0.8517,-0.8517,-0.8479,-0.8317,-0.8079,-0.7782,-0.7461,-0.7162,-0.6859,-0.6437,-0.6137,-0.5939,-0.5829,-0.6034,-0.6158,-0.5423,-0.4996,-0.4652,-0.4246,-0.4106,-0.4074,-0.4014,-0.398,-0.3964,-0.3786,-0.3542,-0.333,-0.333,-0.3163,-0.3023,-0.3023,-0.2819,-0.2653,-0.2653,-0.2589,-0.256,-0.256,-0.256,-0.2436,-0.2077,-0.2368,-0.2667,-0.2761,-0.2732,-0.2673,-0.2603,-0.2194,-0.194,-0.194,-0.1637,-0.1461,-0.1461,-0.1461,-0.1335,-0.1034,-0.1034,-0.0916,-0.0701,-0.0597,-0.0393,-0.008,-0.0054,0.019,-1.5797,-1.5805,-1.5625,-1.4872,-1.4673,-1.4337,-1.3068,-1.2529,0.0,0.0,0.0,-1.1124,-1.1124,0.0,0.0,0.0,0.0,0.0,0.0,0.0,0.0,0.0,0.0,0.0,0.0,0.0,0.0,0.0,0.0,0.0,-1.1706,-1.1706,-1.1632,-1.1521,-1.1521,-1.1415,-1.1249,-1.1249,-1.09,-1.0211,-0.9979,-0.9514,-0.889,-0.8624,-0.842,-0.8284,-0.8284,0.0,0.0,-0.7987,-0.7954,-0.7917,-0.7657,-0.7288,-0.6887,-0.6535,-0.6141,-0.5738,-0.5543,-0.5279,-0.4948,-0.4381,-0.4812,-0.5411,-0.4981,-0.4513,-0.4105,-0.3903,-0.38,-0.3729,-0.367,-0.3665,-0.3574,-0.323,-0.2828,-0.2486,-0.2354,-0.232,-0.2315,-0.2327,-0.2324,-0.2324,-0.2324,-0.2324,-0.2324,-0.2324,-0.2324,-0.2133,-0.159,-0.1541,-0.1671,-0.1996,-0.2061,-0.208,-0.2065,-0.1644,-0.1368,-0.1368,-0.0929,-0.0645,-0.0619,-0.0619,-0.0542,-0.0387,-0.0387,-0.0365,-0.0346,-0.0188,0.0081,0.0466,0.058,0.0939,-1.5761,-1.5805,-1.5625,-1.4872,-1.4416,-1.3793,-1.2399,0.0,0.0,0.0,-1.0598,-1.0565,-1.0565,0.0,0.0,0.0,0.0,0.0,0.0,0.0,0.0,0.0,0.0,0.0,0.0,0.0,0.0,0.0,0.0,0.0,0.0,-1.1706,-1.1446,-1.0887,-1.0887,-1.0521,-0.9792,-0.9792,-0.963,-0.9303,-0.9104,-0.8984,-0.889,-0.8624,-0.8155,-0.7587,0.0,0.0,0.0,-0.6305,-0.6235,-0.6133,-0.6104,-0.6071,-0.5968,-0.5573,-0.5408,-0.5243,-0.4456,-0.4161,-0.4025,-0.3491,-0.3692,-0.4095,-0.3558,-0.3353,-0.3316,-0.3291,-0.3253,-0.3261,-0.3176,-0.3179,-0.2959,-0.2224,-0.202,-0.1818,-0.1206,-0.1052,-0.1072,-0.1068,-0.1062,-0.1062,-0.1062,-0.1062,-0.1062,-0.1062,-0.1062,-0.1032,-0.0974,-0.0864,-0.0808,-0.0858,-0.0968,-0.1013,-0.0956,-0.0953,-0.0941,-0.0941,-0.0914,-0.0831,-0.0692,-0.0692,-0.0388,0.0306,0.0306,0.0575,0.1119,0.1127,0.1192,0.1301,0.1371,0.1683,-1.5021,-1.5078,-1.4898,-1.4212,-1.3729,-1.3142,-1.1963,0.0,-1.0998,-1.0593,-1.0496,-1.0496,-1.0496,-1.0496,0.0,0.0,0.0,0.0,0.0,0.0,0.0,0.0,0.0,0.0,0.0,0.0,0.0,0.0,0.0,0.0,0.0,-1.0625,-1.0519,-1.0255,-1.0153,-0.9926,-0.9614,-0.9427,-0.9233,-0.8996,-0.8487,-0.8173,-0.8042,-0.7363,-0.69,-0.6666,0.0,0.0,0.0,-0.5972,-0.5939,-0.587,-0.5639,-0.5338,-0.5008,-0.4652,-0.4323,-0.3987,-0.3625,-0.3527,-0.3493,-0.3259,-0.336,-0.3493,-0.3259,-0.3192,-0.3192,-0.3192,-0.2922,-0.2577,-0.2548,-0.2183,-0.1693,-0.1333,-0.1231,-0.1165,-0.0909,-0.0755,-0.0658,-0.0724,-0.0662,-0.0601,-0.0589,-0.0587,-0.0587,-0.0587,-0.0587,-0.0475,-0.0168,-0.0084,0.0112,0.0476,-0.0192,-0.0625,-0.0575,-0.03,-0.011,-0.0112,0.0224,0.0444,0.0489,0.0516,0.0618,0.087,0.087,0.0994,0.1238,0.1309,0.1392,0.1461,0.1563,0.1791,-1.4268,-1.4331,-1.4188,-1.361,-1.3171,-1.2632,0.0,0.0,-1.0689,-1.0301,-1.0223,-1.0223,-1.0223,-1.0223,-1.0205,0.0,0.0,0.0,0.0,0.0,0.0,0.0,0.0,0.0,0.0,0.0,0.0,0.0,0.0,0.0,0.0,-0.975,-0.9744,-0.982,-0.9593,-0.9437,-0.9403,-0.8974,-0.8672,-0.8382,-0.7635,-0.7194,-0.6994,-0.6338,-0.591,-0.5712,0.0,0.0,0.0,-0.518,-0.5147,-0.5077,-0.4782,-0.445,-0.4084,-0.3859,-0.3527,-0.3192,-0.3192,-0.3058,-0.2889,-0.2889,-0.2755,-0.2587,-0.2587,-0.2721,-0.2855,-0.2654,-0.2251,-0.1846,-0.1812,-0.1323,-0.0779,-0.0476,-0.0411,-0.0347,-0.0125,0.0031,0.0093,0.003,0.0089,0.0146,0.0142,0.0113,0.0112,0.0112,0.0112,0.0252,0.0617,0.0729,0.0926,0.1347,0.0651,0.0135,0.0112,0.0461,0.0673,0.0662,0.106,0.1332,0.1381,0.1422,0.142,0.1425,0.141,0.1402,0.1402,0.1719,0.1892,0.1918,0.2162,0.2447,-1.3642,-1.3708,-1.362,-1.322,-1.2853,-1.2345,0.0,-1.0839,-1.0413,-0.9732,-0.9614,-0.9614,-0.9614,-0.9614,-0.9491,0.0,0.0,0.0,0.0,0.0,0.0,0.0,0.0,0.0,0.0,0.0,0.0,0.0,0.0,0.0,0.0,-0.9346,-0.9324,-0.9614,-0.934,-0.9098,-0.8906,-0.8175,-0.7621,-0.7214,-0.647,-0.6042,-0.5906,-0.5906,-0.5507,0.0,0.0,0.0,0.0,-0.3531,-0.3395,-0.3226,-0.3226,-0.3226,-0.3226,-0.3226,-0.3192,-0.3192,-0.3192,-0.2753,-0.2214,-0.2214,-0.1712,-0.1109,-0.1109,-0.1646,-0.2047,-0.131,-0.1109,-0.1076,-0.0874,-0.0806,-0.0571,0.0269,0.047,0.07,0.1425,0.1578,0.1564,0.1486,0.1413,0.1385,0.1385,0.132,0.129,0.129,0.129,0.129,0.129,0.1459,0.16,0.16,0.1634,0.1568,0.1314,0.1278,0.1279,0.128,0.1294,0.1375,0.16,0.1651,0.1792,0.1998,0.1939,0.1908,0.1908,0.2638,0.2941,0.2903,0.343,0.3917,-1.2458,-1.255,-1.2415,-1.1881,-1.1662,-1.1375,-1.06,-1.0342,-1.0063,-0.9327,-0.9185,-0.9106,-0.8837,-0.8784,-0.8771,-0.8807,0.0,0.0,0.0,0.0,0.0,0.0,0.0,0.0,0.0,0.0,0.0,0.0,0.0,0.0,0.0,-0.8623,-0.875,-0.9319,-0.8632,-0.8137,-0.7938,-0.7087,-0.6523,-0.6297,-0.5573,-0.518,-0.511,-0.4522,0.0,0.0,0.0,0.0,0.0,-0.3295,-0.3261,-0.3192,-0.3192,-0.2922,-0.2517,-0.2517,-0.2182,-0.1781,-0.1781,-0.1613,-0.1444,-0.1444,-0.1276,-0.1008,-0.0504,-0.0873,-0.131,-0.0571,-0.0336,-0.0202,0.0336,0.0571,0.0706,0.0975,0.1143,0.1307,0.1562,0.1692,0.1776,0.1726,0.1799,0.1869,0.1831,0.1746,0.171,0.171,0.1679,0.1629,0.1629,0.1685,0.1741,0.1741,0.2094,0.2133,0.168,0.1641,0.1672,0.1709,0.1765,0.2015,0.2521,0.2572,0.2805,0.3287,0.3282,0.3226,0.3123,0.337,0.3431,0.3316,0.3616,0.4024,0.0,-1.1456,-1.1392,-1.1019,-1.069,-1.0379,-0.9979,-0.9657,-0.9328,-0.8858,-0.8771,-0.8692,-0.8448,-0.8395,-0.8372,-0.8345,0.0,0.0,0.0,0.0,0.0,0.0,0.0,0.0,0.0,0.0,0.0,0.0,0.0,0.0,0.0,0.0,-0.7564,-0.7937,-0.7436,-0.7071,-0.6903,-0.6025,-0.5543,-0.5371,-0.4652,-0.4253,-0.4187,-0.3627,0.0,0.0,0.0,0.0,0.0,-0.2922,-0.282,-0.2787,-0.252,-0.215,-0.178,-0.178,-0.1478,-0.1109,-0.1109,-0.0908,-0.0672,-0.0672,-0.0504,-0.0168,0.0336,0.0134,-0.0168,0.0302,0.0437,0.0605,0.1143,0.1412,0.1547,0.1614,0.1748,0.1817,0.1817,0.1918,0.2008,0.1972,0.2045,0.2082,0.2044,0.2199,0.2302,0.2302,0.2447,0.2569,0.2569,0.2512,0.2491,0.2491,0.2772,0.2843,0.2516,0.2463,0.2465,0.2514,0.2566,0.2796,0.3201,0.3266,0.3447,0.3857,0.3838,0.3798,0.3736,0.3987,0.4177,0.4293,0.4414,0.4598,0.0,-1.045,-1.0465,-1.0443,-0.9939,-0.9432,-0.9432,-0.889,0.0,-0.8368,-0.8342,-0.8348,-0.8347,-0.8328,-0.8168,-0.777,0.0,0.0,0.0,0.0,0.0,0.0,0.0,0.0,0.0,0.0,0.0,0.0,0.0,0.0,0.0,0.0,-0.5954,-0.5741,-0.5844,-0.5877,-0.5804,-0.5077,-0.4613,-0.4411,-0.3792,-0.3395,-0.3192,-0.3192,0.0,0.0,0.0,0.0,0.0,-0.2383,-0.2114,-0.2047,-0.1377,-0.1076,-0.1008,-0.1008,-0.0975,-0.0941,-0.0941,-0.0504,0.0067,0.0101,0.0571,0.1143,0.1277,0.121,0.1109,0.1143,0.121,0.1379,0.1547,0.1749,0.1951,0.212,0.2188,0.2188,0.2188,0.2221,0.2255,0.2255,0.2272,0.2262,0.2262,0.271,0.3085,0.3085,0.3513,0.382,0.3812,0.3682,0.3608,0.3599,0.3627,0.3652,0.3652,0.3582,0.352,0.352,0.3583,0.3624,0.368,0.3734,0.3816,0.3961,0.3873,0.3867,0.392,0.4551,0.5114,0.5612,0.5624,0.5514,-0.8971,0.0,-0.9161,-0.897,-0.8784,-0.8657,0.0,-0.8526,-0.8289,0.0,0.0,0.0,0.0,0.0,0.0,0.0,0.0,0.0,0.0,0.0,0.0,0.0,0.0,0.0,0.0,0.0,0.0,0.0,0.0,0.0,0.0,0.0,-0.499,-0.4097,-0.4095,-0.4356,-0.4839,-0.4156,-0.3694,-0.3489,-0.336,-0.3261,-0.3192,-0.3192,0.0,0.0,0.0,0.0,-0.2383,-0.1646,-0.1344,-0.1344,-0.1176,-0.0739,-0.0269,-0.0269,0.0101,0.0571,0.0571,0.0706,0.0874,0.0975,0.121,0.148,0.1513,0.1412,0.1277,0.1446,0.1513,0.1547,0.158,0.1749,0.1918,0.1951,0.2087,0.2188,0.2188,0.2587,0.2952,0.2952,0.34,0.3782,0.3782,0.3856,0.3906,0.3906,0.3994,0.3974,0.3823,0.3785,0.3704,0.3608,0.4015,0.4294,0.4294,0.391,0.3667,0.3667,0.3722,0.3995,0.4499,0.4527,0.4807,0.5396,0.5232,0.5165,0.5177,0.5348,0.5474,0.5616,0.5754,0.5799,-0.8271,-0.8551,-0.8716,-0.8563,-0.839,-0.8254,-0.8254,0.0,0.0,0.0,0.0,0.0,0.0,0.0,0.0,0.0,0.0,0.0,0.0,0.0,0.0,0.0,0.0,0.0,0.0,0.0,0.0,0.0,0.0,0.0,0.0,0.0,-0.4087,-0.3397,-0.3362,-0.3527,-0.3885,-0.356,-0.3295,-0.3192,-0.3192,-0.3025,-0.2753,-0.2753,0.0,0.0,0.0,0.0,-0.1646,-0.0907,-0.0605,-0.0571,-0.0235,0.0168,0.0504,0.0504,0.0773,0.1109,0.1176,0.1244,0.1344,0.1412,0.1513,0.1614,0.1715,0.1883,0.2016,0.1681,0.1681,0.1748,0.1748,0.1884,0.2119,0.2418,0.2586,0.2753,0.3088,0.3453,0.3718,0.3718,0.4018,0.4287,0.4287,0.4561,0.4738,0.4738,0.494,0.5037,0.4928,0.483,0.4726,0.4674,0.4955,0.5132,0.5132,0.4888,0.464,0.445,0.4455,0.4646,0.502,0.5024,0.5261,0.5758,0.5746,0.5738,0.5738,0.5738,0.5738,0.5742,0.5839,0.5888,-0.7998,-0.8363,-0.8589,-0.8494,-0.8215,-0.7981,-0.7946,0.0,0.0,0.0,0.0,0.0,0.0,0.0,0.0,0.0,0.0,0.0,0.0,0.0,0.0,0.0,0.0,0.0,0.0,0.0,0.0,0.0,0.0,0.0,0.0,0.0,0.0,-0.3192,-0.3192,-0.3159,-0.3058,-0.3159,-0.3159,-0.3058,-0.3058,-0.2686,-0.2047,-0.2047,-0.1679,0.0,0.0,0.0,-0.0874,-0.0134,0.0168,0.0235,0.084,0.1109,0.1109,0.1109,0.1143,0.1143,0.1311,0.148,0.1648,0.1748,0.1816,0.1916,0.2228,0.2737,0.3076,0.231,0.2165,0.2252,0.2252,0.2386,0.2654,0.3218,0.3382,0.3551,0.4154,0.4386,0.4453,0.4453,0.4553,0.4619,0.4619,0.515,0.5543,0.5543,0.5923,0.6208,0.6211,0.6049,0.5947,0.5892,0.5888,0.5888,0.5888,0.5888,0.5758,0.5426,0.5378,0.5378,0.5378,0.5378,0.5474,0.5653,0.5807,0.5888,0.5888,0.6034,0.6107,0.6137,0.6258,0.6328,-0.8212,-0.8282,-0.8132,-0.7511,-0.7428,-0.7476,0.0,0.0,0.0,0.0,0.0,0.0,0.0,0.0,0.0,0.0,0.0,0.0,0.0,0.0,0.0,0.0,0.0,0.0,0.0,0.0,0.0,0.0,0.0,0.0,0.0,0.0,0.0,-0.3192,-0.3192,-0.2922,-0.2348,-0.2922,-0.2922,-0.2348,-0.2348,-0.1981,-0.1276,-0.1276,-0.121,0.0,0.0,-0.0168,-0.0101,0.0638,0.0941,0.0941,0.1042,0.1109,0.1109,0.1244,0.1277,0.1311,0.148,0.1681,0.1951,0.252,0.2818,0.3096,0.3922,0.4259,0.4349,0.4308,0.4131,0.392,0.392,0.3954,0.402,0.412,0.412,0.4154,0.4287,0.4782,0.5246,0.5246,0.5679,0.6086,0.6086,0.6185,0.6251,0.6251,0.6326,0.6319,0.6227,0.6186,0.6082,0.5904,0.5888,0.5888,0.5888,0.5888,0.5864,0.5811,0.5807,0.5807,0.5807,0.5807,0.5819,0.5848,0.5872,0.5888,0.5888,0.6643,0.7057,0.7176,0.7928,0.8371,-0.8034,-0.8001,-0.7789,-0.6936,-0.6977,-0.72,0.0,0.0,0.0,0.0,0.0,0.0,0.0,0.0,0.0,0.0,0.0,0.0,0.0,0.0,0.0,0.0,0.0,0.0,0.0,0.0,0.0,0.0,0.0,0.0,0.0,0.0,0.0,0.0,-0.2653,-0.2316,-0.1612,-0.1914,-0.1914,-0.1612,-0.1612,-0.1209,-0.0504,-0.0504,-0.0302,0.0101,0.0,0.0605,0.0605,0.0975,0.1109,0.1109,0.1176,0.121,0.1244,0.1412,0.1782,0.2218,0.2285,0.2686,0.3261,0.3682,0.3799,0.3917,0.4536,0.4897,0.5183,0.536,0.4989,0.4581,0.4581,0.4581,0.4688,0.5073,0.5177,0.5227,0.5528,0.5876,0.6086,0.5966,0.6181,0.6387,0.6387,0.6387,0.6387,0.6387,0.6387,0.6388,0.6302,0.6294,0.6262,0.6185,0.6176,0.6176,0.6176,0.6176,0.6091,0.59,0.5888,0.5888,0.5888,0.6008,0.6057,0.6057,0.6124,0.6236,0.6331,0.7103,0.7555,0.7741,0.8521,0.8924,-0.8012,-0.7903,-0.7605,-0.6726,0.0,0.0,0.0,0.0,0.0,0.0,0.0,0.0,0.0,0.0,0.0,0.0,0.0,0.0,0.0,0.0,0.0,0.0,0.0,0.0,0.0,0.0,0.0,0.0,0.0,0.0,0.0,0.0,0.0,0.0,-0.1946,-0.1577,-0.084,-0.084,-0.084,-0.084,-0.084,-0.047,0.0269,0.0269,0.0571,0.1109,0.1109,0.1109,0.1109,0.1109,0.1109,0.1176,0.1445,0.1713,0.1947,0.2115,0.2663,0.3356,0.332,0.3772,0.4487,0.4787,0.4786,0.4754,0.523,0.5662,0.6029,0.6226,0.5865,0.5404,0.5342,0.5326,0.5473,0.6018,0.6162,0.6275,0.6681,0.6784,0.6722,0.6518,0.6481,0.6465,0.6391,0.6387,0.6387,0.6387,0.6387,0.6387,0.6387,0.6387,0.6387,0.6387,0.6387,0.6387,0.6387,0.6387,0.6302,0.603,0.6014,0.6014,0.6014,0.6171,0.6273,0.6304,0.6571,0.6802,0.6999,0.7837,0.835,0.857,0.9212,0.957,-0.8623,-0.821,-0.7647,-0.7027,0.0,0.0,0.0,0.0,0.0,0.0,0.0,0.0,0.0,0.0,0.0,0.0,0.0,0.0,0.0,0.0,0.0,0.0,0.0,0.0,0.0,0.0,0.0,0.0,0.0,0.0,0.0,0.0,0.0,0.0,0.0,-0.084,-0.0101,-0.0067,-0.0067,-0.0067,-0.0067,0.0302,0.1008,0.1008,0.1042,0.1109,0.1109,0.1109,0.1109,0.1109,0.1176,0.1344,0.2048,0.2915,0.3816,0.3816,0.412,0.4492,0.4484,0.4591,0.4869,0.5565,0.5815,0.5946,0.6776,0.7048,0.7113,0.7319,0.7329,0.7253,0.6929,0.6841,0.6845,0.6916,0.6916,0.6912,0.6971,0.6967,0.6918,0.6708,0.6668,0.6607,0.6444,0.6387,0.6387,0.6387,0.6387,0.6387,0.6387,0.6387,0.6387,0.6387,0.6387,0.6387,0.6387,0.6387,0.6375,0.6384,0.6379,0.6379,0.6379,0.6392,0.6461,0.6654,0.7279,0.7707,0.7897,0.9212,0.992,1.0148,1.0818,1.124,-0.7594,-0.731,-0.6962,-0.5862,0.0,0.0,0.0,0.0,0.0,0.0,0.0,0.0,0.0,0.0,0.0,0.0,0.0,0.0,0.0,0.0,0.0,0.0,0.0,0.0,0.0,0.0,0.0,0.0,0.0,0.0,0.0,0.0,0.0,0.0,0.0,-0.0067,0.0672,0.0672,0.0672,0.0672,0.0672,0.084,0.1109,0.1109,0.1109,0.1109,0.1109,0.1143,0.1244,0.1713,0.2014,0.2251,0.3084,0.3716,0.4192,0.4332,0.4731,0.5243,0.5364,0.5749,0.6244,0.6609,0.6647,0.6681,0.7222,0.7309,0.7223,0.7435,0.7484,0.749,0.7355,0.7318,0.7318,0.7318,0.7318,0.729,0.7147,0.7123,0.707,0.6926,0.6886,0.6861,0.6796,0.6784,0.6784,0.6784,0.6784,0.6784,0.6784,0.6784,0.6708,0.6603,0.6485,0.6581,0.7036,0.7101,0.726,0.7679,0.6999,0.6773,0.7195,0.7321,0.7642,0.8124,0.8382,0.8674,0.9052,1.0048,1.0699,1.1076,1.1718,1.2094,-0.6725,-0.6445,-0.621,0.0,0.0,0.0,0.0,0.0,0.0,0.0,0.0,0.0,0.0,0.0,0.0,0.0,0.0,0.0,0.0,0.0,0.0,0.0,0.0,0.0,0.0,0.0,0.0,0.0,0.0,0.0,0.0,0.0,0.0,0.0,0.0,0.0605,0.1109,0.1109,0.1109,0.1109,0.1109,0.1109,0.1109,0.1109,0.1109,0.1109,0.131,0.1478,0.1612,0.2417,0.3017,0.352,0.4181,0.4649,0.5,0.5204,0.5599,0.6053,0.6255,0.667,0.718,0.7265,0.7224,0.72,0.7445,0.7403,0.733,0.7452,0.7484,0.7484,0.7484,0.7484,0.7484,0.7484,0.7484,0.7452,0.7334,0.7305,0.7253,0.711,0.7073,0.7057,0.7,0.6988,0.6988,0.6988,0.6988,0.6988,0.6988,0.7237,0.7434,0.7545,0.7434,0.7549,0.8051,0.8117,0.8317,0.8843,0.8141,0.7816,0.7999,0.8156,0.8506,0.9084,0.9391,0.975,1.0124,1.0929,1.1484,1.1819,1.2274,1.2485,-0.6328,-0.5793,0.0,0.0,0.0,0.0,0.0,0.0,0.0,0.0,0.0,0.0,0.0,0.0,0.0,0.0,0.0,0.0,0.0,0.0,0.0,0.0,0.0,0.0,0.0,0.0,0.0,0.0,0.0,0.0,0.0,0.0,0.0,0.0,0.0,0.0,0.1109,0.1109,0.1109,0.1109,0.1109,0.1109,0.1109,0.1109,0.1109,0.1143,0.1812,0.2114,0.2179,0.3117,0.4154,0.512,0.5348,0.5815,0.644,0.6619,0.6833,0.7016,0.7163,0.7338,0.7484,0.7484,0.7484,0.7484,0.7484,0.7484,0.7484,0.7484,0.7484,0.7484,0.7484,0.7484,0.7484,0.7484,0.7484,0.7484,0.7484,0.7484,0.7431,0.7223,0.7191,0.7171,0.7024,0.6992,0.6992,0.6992,0.6992,0.6992,0.6992,0.7699,0.8508,0.93,0.9405,0.9405,0.9405,0.9405,0.9509,0.9713,0.9846,0.9547,0.8759,0.871,0.893,0.9314,1.0295,1.0877,1.1034,1.2023,1.2499,1.2499,1.2499,1.2499,-0.526,-0.5052,0.0,0.0,0.0,0.0,0.0,0.0,0.0,0.0,0.0,0.0,0.0,0.0,0.0,0.0,0.0,0.0,0.0,0.0,0.0,0.0,0.0,0.0,0.0,0.0,0.0,0.0,0.0,0.0,0.0,0.0,0.0,0.0,0.0,0.0,0.1109,0.1109,0.1109,0.1109,0.1577,0.1544,0.1109,0.1577,0.1812,0.1846,0.2547,0.305,0.3387,0.4417,0.5315,0.6032,0.6217,0.6441,0.6652,0.6952,0.7098,0.7171,0.7346,0.7439,0.7484,0.7484,0.7484,0.7484,0.7484,0.7484,0.7484,0.7484,0.7484,0.7484,0.7484,0.7484,0.7484,0.7484,0.7484,0.7484,0.7484,0.7484,0.7468,0.7415,0.7407,0.7391,0.7371,0.7363,0.7363,0.7363,0.7363,0.7363,0.7363,0.7946,0.8433,0.8681,0.9115,0.9643,1.0268,1.0309,1.0585,1.1279,1.1348,1.1091,1.0472,1.06,1.0942,1.1556,1.1847,1.2144,1.2399,1.2707,1.298,1.3206,1.3206,1.3206,-0.4582,0.0,0.0,0.0,0.0,0.0,0.0,0.0,0.0,0.0,0.0,0.0,0.0,0.0,0.0,0.0,0.0,0.0,0.0,0.0,0.0,0.0,0.0,0.0,0.0,0.0,0.0,0.0,0.0,0.0,0.0,0.0,0.0,0.0,0.1109,0.1109,0.1109,0.1109,0.1244,0.1511,0.1913,0.208,0.208,0.2382,0.2547,0.2581,0.3418,0.4151,0.4818,0.5448,0.598,0.6395,0.6542,0.6631,0.6729,0.7013,0.7163,0.7215,0.7423,0.7484,0.7484,0.7484,0.7484,0.7484,0.7484,0.7484,0.7484,0.7484,0.7484,0.7484,0.7484,0.7484,0.7484,0.7484,0.7484,0.7484,0.7484,0.7484,0.7484,0.7484,0.7484,0.7484,0.7484,0.7484,0.7484,0.7484,0.7787,0.8203,0.8846,0.9255,0.9611,1.0047,1.0425,1.0907,1.1516,1.1587,1.1841,1.2452,1.2487,1.2375,1.2115,1.1923,1.2037,1.2485,1.2616,1.2811,1.3009,1.314,1.3301,1.3492,1.3492,1.3492,0.0,0.0,0.0,0.0,0.0,0.0,0.0,0.0,0.0,0.0,0.0,0.0,0.0,0.0,0.0,0.0,0.0,0.0,0.0,0.0,0.0,0.0,0.0,0.0,0.0,0.0,0.0,0.0,0.0,0.0,0.0,0.0,0.0,0.0,0.1109,0.1109,0.1109,0.1109,0.1411,0.0,0.2147,0.2683,0.3487,0.3384,0.3382,0.3482,0.4356,0.5286,0.621,0.6214,0.628,0.6391,0.6457,0.657,0.6741,0.6967,0.7106,0.7269,0.7431,0.7484,0.7484,0.7484,0.7484,0.7484,0.7484,0.7484,0.7484,0.7484,0.7484,0.7484,0.7484,0.7484,0.7484,0.7484,0.7484,0.7484,0.7484,0.7484,0.7484,0.7484,0.7561,0.7595,0.7595,0.7684,0.7778,0.7795,0.841,0.9395,1.0848,1.111,1.1471,1.2378,1.2562,1.2673,1.2863,1.2936,1.301,1.32,1.3236,1.3309,1.3492,1.2789,1.2477,1.258,1.2899,1.3053,1.3053,1.3353,1.3492,1.3492,1.3492,1.3492,0.0,-0.3971,0.0,0.0,0.0,0.0,0.0,0.0,0.0,0.0,0.0,0.0,0.0,0.0,0.0,0.0,0.0,0.0,0.0,0.0,0.0,0.0,0.0,0.0,0.0,0.0,0.0,0.0,0.0,0.0,0.0,0.0,0.0,0.1109,0.1109,0.1109,0.1109,0.1109,0.1176,0.0,0.2582,0.3318,0.352,0.4056,0.4688,0.5352,0.5716,0.598,0.6214,0.6317,0.6383,0.6444,0.6763,0.6898,0.6971,0.729,0.7395,0.7435,0.7472,0.7484,0.7484,0.7484,0.7484,0.7484,0.7484,0.7484,0.7484,0.7484,0.7484,0.7484,0.7484,0.7484,0.7484,0.7484,0.7484,0.7484,0.7484,0.7484,0.7484,0.7484,0.8016,0.8432,0.8432,0.913,0.9805,1.006,1.0251,1.0385,1.0462,1.1023,1.1417,1.1434,1.212,1.2673,1.2863,1.3046,1.3229,1.3419,1.3455,1.3455,1.3492,1.3324,1.3251,1.3287,1.3353,1.3389,1.3389,1.3462,1.3492,1.3492,1.3492,1.3492,0.0,0.0,0.0,0.0,0.0,0.0,0.0,0.0,0.0,0.0,0.0,0.0,0.0,0.0,0.0,0.0,0.0,0.0,0.0,0.0,0.0,0.0,0.0,0.0,0.0,0.0,0.0,0.0,0.0,0.0,0.0,0.1109,0.1109,0.1109,0.1109,0.1109,0.1109,0.1411,0.1813,0.2248,0.3453,0.4287,0.4815,0.509,0.5521,0.605,0.6148,0.6295,0.6445,0.6508,0.6595,0.6692,0.6914,0.7045,0.7106,0.7289,0.7411,0.7484,0.7484,0.7484,0.7484,0.7484,0.7484,0.7484,0.7484,0.7484,0.7484,0.7484,0.7484,0.7599,0.7978,0.7787,0.771,0.8466,0.805,0.7595,0.7978,0.8093,0.8203,0.858,0.9076,0.9453,0.9453,1.006,1.0733,1.1307,1.137,1.1443,1.167,1.2122,1.237,1.2162,1.2736,1.3198,1.3422,1.3503,1.368,1.3953,1.396,1.3894,1.3733,1.3726,1.3653,1.3499,1.3492,1.3492,1.3492,1.3492,1.3579,1.3726,1.3726,1.3814,0.0,0.0,0.0,0.0,0.0,0.0,0.0,0.0,0.0,0.0,0.0,0.0,0.0,0.0,0.0,0.0,0.0,0.0,0.0,0.0,0.0,0.0,0.0,0.0,0.0,0.0,0.0,0.0,0.0,0.0,0.1109,0.1109,0.1109,0.1109,0.1109,0.1143,0.1276,0.1846,0.2616,0.352,0.4289,0.5219,0.6214,0.6053,0.6086,0.6247,0.6247,0.6417,0.6692,0.6714,0.682,0.6992,0.7024,0.7094,0.7191,0.7223,0.7362,0.7484,0.7484,0.7484,0.7484,0.7484,0.7484,0.7484,0.7484,0.762,0.776,0.776,0.7932,0.8228,0.888,0.8571,0.8417,0.9752,0.9024,0.8206,0.8789,0.8956,0.9166,0.984,1.0297,1.0634,1.083,1.109,1.1531,1.2237,1.2404,1.2633,1.3247,1.3505,1.3579,1.3428,1.3637,1.3865,1.4024,1.4062,1.4218,1.4489,1.4511,1.4386,1.4115,1.4108,1.3976,1.3667,1.355,1.3521,1.3579,1.3579,1.3748,1.4108,1.4108,1.4324,0.0,0.0,0.0,0.0,0.0,0.0,0.0,0.0,0.0,0.0,0.0,0.0,0.0,0.0,0.0,0.0,0.0,0.0,0.0,0.0,0.0,0.0,0.0,0.0,0.0,0.0,0.0,0.0,0.0,0.0,0.1109,0.1109,0.1109,0.1109,0.1109,0.1377,0.1946,0.2214,0.2751,0.352,0.4553,0.5521,0.6383,0.635,0.6354,0.6383,0.6383,0.6484,0.671,0.671,0.682,0.7004,0.7127,0.7167,0.7207,0.7395,0.7464,0.7484,0.7484,0.7484,0.7484,0.7484,0.7484,0.7484,0.7484,0.813,0.889,0.889,0.9602,1.0383,1.0503,1.0423,1.0423,1.0623,1.0503,1.0232,0.9829,0.9942,1.0119,1.0235,1.1066,1.2086,1.2982,1.3181,1.3374,1.3761,1.3948,1.4014,1.3926,1.4061,1.4104,1.3842,1.4002,1.4126,1.4165,1.4321,1.446,1.4504,1.4511,1.4489,1.4445,1.4445,1.4423,1.4379,1.3784,1.3631,1.3916,1.3916,1.4122,1.4445,1.4445,1.4833,0.0,0.0,0.0,0.0,0.0,0.0,0.0,0.0,0.0,0.0,0.0,0.0,0.0,0.0,0.0,0.0,0.0,0.0,0.0,0.0,0.0,0.0,0.0,0.0,0.0,0.0,0.0,0.0,0.0,0.1109,0.1109,0.1109,0.1276,0.1646,0.1644,0.2047,0.2883,0.3387,0.4087,0.5017,0.555,0.602,0.6387,0.6387,0.6387,0.6391,0.6522,0.6698,0.6873,0.6944,0.709,0.7294,0.7338,0.737,0.7378,0.7456,0.7484,0.7484,0.7484,0.7484,0.7484,0.7484,0.7484,0.7616,0.822,0.8739,0.9227,0.9856,1.0038,1.0115,1.0565,1.0358,1.0237,1.1135,1.1416,1.1511,1.1723,1.1486,1.1447,1.2034,1.2537,1.3127,1.3758,1.3964,1.4088,1.4258,1.4447,1.4518,1.4428,1.4586,1.463,1.4318,1.4449,1.4576,1.4576,1.4656,1.4809,1.4999,1.5006,1.4926,1.4743,1.4735,1.4648,1.4511,1.4225,1.4114,1.4291,1.4291,1.4678,1.5457,1.5457,1.6016,0.0,0.0,0.0,0.0,0.0,0.0,0.0,0.0,0.0,0.0,0.0,0.0,0.0,0.0,0.0,0.0,0.0,0.0,0.0,0.0,0.0,0.0,0.0,0.0,0.0,0.0,0.0,0.0,0.0,0.1176,0.1344,0.1344,0.1678,0.2449,0.2447,0.2882,0.3818,0.4622,0.5422,0.6247,0.635,0.6411,0.6489,0.6489,0.6513,0.6558,0.6643,0.682,0.7004,0.7151,0.7326,0.7484,0.7484,0.7484,0.7484,0.7484,0.7484,0.7484,0.7484,0.7638,0.7834,0.788,0.7897,0.8043,0.8902,0.9358,0.9752,1.0603,1.0735,1.0742,1.1321,1.1029,1.0906,1.2113,1.2479,1.2662,1.3173,1.2827,1.2656,1.3571,1.3754,1.3897,1.4126,1.4321,1.4482,1.4482,1.465,1.4783,1.4783,1.4999,1.5079,1.4842,1.4943,1.5024,1.5024,1.5024,1.5126,1.5374,1.5389,1.5279,1.5039,1.5024,1.4915,1.4714,1.4714,1.467,1.4589,1.4589,1.5212,1.6341,1.6341,1.7046,0.0,0.0,0.0,0.0,0.0,0.0,0.0,0.0,0.0,0.0,0.0,0.0,0.0,0.0,0.0,0.0,0.0,0.0,0.0,0.0,0.0,0.0,0.0,0.0,0.0,0.0,0.0,0.0,0.0,0.1377,0.2013,0.2047,0.248,0.3387,0.342,0.3851,0.4716,0.5646,0.6214,0.6383,0.6387,0.6509,0.668,0.668,0.6769,0.6951,0.6761,0.6829,0.7004,0.7151,0.7326,0.7484,0.7484,0.7484,0.7484,0.7484,0.7484,0.7484,0.7484,0.8016,0.8694,0.893,0.8987,0.8985,0.9309,1.0085,1.0923,1.0976,1.2374,1.3866,1.3909,1.3909,1.3866,1.3957,1.3999,1.3919,1.364,1.3539,1.3625,1.4008,1.4216,1.4378,1.4391,1.4566,1.4692,1.4692,1.4915,1.509,1.509,1.5264,1.5382,1.5367,1.536,1.536,1.536,1.536,1.5374,1.5389,1.5389,1.5382,1.536,1.536,1.5352,1.5338,1.5338,1.5185,1.4878,1.4878,1.5511,1.6667,1.6667,1.7568,0.0,0.0,0.0,0.0,0.0,0.0,0.0,0.0,0.0,0.0,0.0,0.0,0.0,0.0,0.0,0.0,0.0,0.0,0.0,0.0,0.0,0.0,0.0,0.0,0.0,0.0,0.0,0.0,0.0,0.0,0.2079,0.2547,0.3251,0.4189,0.4189,0.4686,0.5679,0.6115,0.635,0.6387,0.653,0.6623,0.67,0.6845,0.6931,0.6992,0.7013,0.707,0.7143,0.7317,0.7427,0.7484,0.7484,0.7484,0.7484,0.7484,0.7484,0.7484,0.7484,0.7755,0.8138,0.8247,0.8702,0.9399,1.0182,1.1139,1.2034,1.2763,1.3098,1.3179,1.3179,1.3179,1.3349,1.3955,1.4088,1.4097,1.4102,1.4116,1.415,1.4258,1.444,1.4608,1.4608,1.4783,1.4957,1.4957,1.5131,1.5305,1.5305,1.5347,1.5389,1.5389,1.5389,1.5389,1.5389,1.5389,1.5389,1.5389,1.5389,1.5389,1.5389,1.5389,1.5389,1.5389,1.594,1.5887,1.5214,1.5766,1.6539,1.7553,1.8118,1.9006,0.0,0.0,0.0,0.0,0.0,0.0,0.0,0.0,0.0,0.0,0.0,0.0,0.0,0.0,0.0,0.0,0.0,0.0,0.0,0.0,0.0,0.0,0.0,0.0,0.0,0.0,0.0,0.0,0.0,0.0,0.2988,0.3435,0.412,0.512,0.519,0.5554,0.6247,0.635,0.6387,0.6387,0.6599,0.6751,0.6824,0.7,0.711,0.7175,0.7261,0.7281,0.7203,0.7411,0.7484,0.7484,0.7484,0.7484,0.7484,0.7484,0.7484,0.7569,0.7897,0.8312,0.8718,0.9171,0.9791,1.0526,1.1344,1.2009,1.2678,1.3425,1.3398,1.3179,1.3179,1.3179,1.3349,1.4033,1.4201,1.4271,1.4613,1.4509,1.4433,1.4482,1.4692,1.4824,1.4824,1.5041,1.5215,1.5215,1.5305,1.5389,1.5389,1.5389,1.5389,1.5389,1.5389,1.5389,1.5389,1.5389,1.5389,1.5389,1.5389,1.5389,1.5389,1.5389,1.5389,1.5389,1.6263,1.6419,1.5824,1.6706,1.7594,1.8447,1.9015,1.9775,0.0,0.0,0.0,0.0,0.0,0.0,0.0,0.0,0.0,0.0,0.0,0.0,0.0,0.0,0.0,0.0,0.0,0.0,0.0,0.0,0.0,0.0,0.0,0.0,0.0,0.0,0.0,0.0,0.0,0.2954,0.4697,0.4695,0.513,0.6185,0.6325,0.6391,0.6387,0.6387,0.6387,0.6395,0.6615,0.6829,0.7004,0.7151,0.7326,0.7484,0.7484,0.7387,0.7211,0.7415,0.7484,0.7484,0.7484,0.7484,0.7522,0.7518,0.7526,0.7705,0.8783,0.9674,1.0538,1.1916,1.2348,1.2373,1.2626,1.2705,1.2747,1.2747,1.3398,1.4088,1.413,1.4137,1.4179,1.437,1.4419,1.4585,1.5104,1.4801,1.451,1.472,1.4929,1.5146,1.5153,1.5285,1.5411,1.5403,1.5411,1.5411,1.5403,1.5411,1.5411,1.5403,1.5403,1.5403,1.5403,1.5403,1.5403,1.5403,1.5403,1.5403,1.5403,1.5445,1.5445,1.546,1.6368,1.6812,1.6812,1.7642,1.8487,1.9301,1.935,1.9843,0.0507,0.0,0.0,0.0,0.0,0.0,0.0,0.0,0.0,0.0,0.0,0.0,0.0,0.0,0.0,0.0,0.0,0.0,0.0,0.0,0.0,0.0,0.0,0.0,0.0,0.0,0.0,0.0,0.3726,0.4234,0.4775,0.5501,0.6029,0.6335,0.6513,0.6554,0.6387,0.6387,0.6485,0.6619,0.6833,0.7012,0.7155,0.733,0.7439,0.7484,0.7484,0.7456,0.7415,0.7464,0.7484,0.7484,0.7484,0.7484,0.7557,0.8169,0.8485,0.8774,0.9683,1.0351,1.086,1.1244,1.1925,1.2608,1.2681,1.3179,1.3695,1.3695,1.3913,1.4124,1.4279,1.4484,1.4733,1.4941,1.5158,1.5434,1.5701,1.5651,1.5588,1.5631,1.567,1.5762,1.598,1.6111,1.603,1.5818,1.5965,1.603,1.5811,1.5972,1.6023,1.5804,1.5739,1.5739,1.5739,1.5739,1.5739,1.5739,1.5739,1.5739,1.5739,1.6473,1.6954,1.711,1.8726,1.9522,1.9522,1.9124,1.9054,1.9311,2.0254,2.098,0.0,0.0,0.0,0.0,0.0,0.0,0.0,0.0976,0.0,0.0,0.0,0.0,0.0,0.0,0.0,0.0,0.0,0.0,0.0,0.0,0.0,0.0,0.0,0.0,0.0,0.0,0.0,0.442,0.47,0.5042,0.5569,0.627,0.6622,0.652,0.6623,0.6643,0.6534,0.6457,0.655,0.6841,0.6943,0.7086,0.7195,0.7403,0.7484,0.7484,0.7484,0.7484,0.7518,0.7863,0.7787,0.7522,0.7863,0.8016,0.8102,0.9019,0.948,0.9768,1.0795,1.1375,1.1643,1.2135,1.2747,1.3264,1.3264,1.3652,1.4088,1.4088,1.4166,1.4271,1.4555,1.4805,1.5101,1.5451,1.5671,1.5922,1.6282,1.6247,1.6153,1.6153,1.614,1.6162,1.6382,1.6411,1.6353,1.6133,1.6148,1.6118,1.5943,1.6074,1.6111,1.5935,1.603,1.6104,1.6104,1.6104,1.6104,1.6104,1.6487,1.6695,1.6695,1.7659,1.8251,1.8415,1.9842,2.0796,2.115,2.0618,2.0382,2.0391,2.1144,2.1681,0.0,0.0,0.0,0.0,0.0,0.0,0.0987,0.104,0.0,0.0,0.0,0.0,0.0,0.0,0.0,0.0,0.0,0.0,0.0,0.0,0.0,0.0,0.0,0.0,0.0,0.4056,0.4427,0.5651,0.5424,0.565,0.6693,0.6925,0.6951,0.6761,0.6753,0.6745,0.6725,0.6542,0.6627,0.7016,0.7,0.7094,0.7223,0.7411,0.7484,0.7522,0.7599,0.7638,0.771,0.8508,0.8356,0.771,0.8508,0.8813,0.8951,1.0043,1.0456,1.0662,1.2079,1.2566,1.2758,1.3785,1.4088,1.4088,1.4088,1.4088,1.4088,1.4124,1.4306,1.455,1.491,1.5165,1.5465,1.5969,1.6106,1.6296,1.6843,1.6727,1.6521,1.6521,1.6492,1.6477,1.6514,1.6521,1.6507,1.647,1.6221,1.606,1.6023,1.6052,1.606,1.6023,1.6265,1.6463,1.6463,1.6551,1.6595,1.6595,1.7497,1.8012,1.8012,1.8998,1.9539,1.9582,2.041,2.1282,2.2021,2.1934,2.1904,2.1953,2.1953,2.2097,0.0903,0.0943,0.0953,0.0,0.0,0.0,0.0,0.1203,0.0,0.0,0.0,0.0,0.0,0.0,0.0,0.0,0.0,0.0,0.0,0.0,0.0,0.0,0.0,0.0,0.0,0.5187,0.563,0.6588,0.6569,0.6704,0.7075,0.7137,0.7155,0.7086,0.7086,0.7054,0.6939,0.6751,0.681,0.7171,0.7061,0.7159,0.7435,0.7468,0.7484,0.7522,0.8169,0.8475,0.8508,0.9334,0.9183,0.8546,0.9334,0.9669,0.9814,1.0858,1.1441,1.1826,1.2973,1.3539,1.3791,1.4026,1.4088,1.4088,1.4088,1.4088,1.4124,1.4279,1.4661,1.5126,1.5411,1.5846,1.6328,1.6657,1.6914,1.7072,1.7177,1.7186,1.7143,1.7143,1.6938,1.6888,1.7099,1.7143,1.7055,1.6844,1.6923,1.696,1.6749,1.6894,1.6952,1.6741,1.6771,1.6807,1.6807,1.7506,1.7937,1.7937,1.8869,1.9397,1.9397,2.0313,2.0953,2.1227,2.2133,2.2717,2.2847,2.2217,2.206,2.2393,2.2393,2.2696,0.0917,0.0984,0.1113,0.1095,0.0,0.0,0.0,0.0,0.0,0.0,0.0,0.0,0.0,0.0,0.0,0.0,0.0,0.0,0.0,0.0,0.0,0.0,0.0,0.0,0.0,0.6276,0.6475,0.7022,0.7133,0.7235,0.733,0.7365,0.7313,0.7191,0.7187,0.7139,0.6992,0.6898,0.6952,0.7187,0.7135,0.7228,0.7522,0.7902,0.8093,0.8131,0.896,0.9296,0.9372,1.0164,1.0276,0.9943,1.0351,1.0576,1.0833,1.1924,1.252,1.2881,1.3589,1.3961,1.4088,1.4088,1.4088,1.4088,1.4088,1.4166,1.4313,1.471,1.5084,1.5504,1.5948,1.6353,1.6764,1.7055,1.7216,1.7279,1.7279,1.7279,1.7279,1.7279,1.7201,1.7143,1.7304,1.7279,1.7274,1.7113,1.7091,1.7033,1.6917,1.7042,1.7033,1.6917,1.6996,1.7091,1.7091,1.7987,1.8571,1.8571,1.9913,2.0766,2.0766,2.1655,2.2248,2.2413,2.2872,2.3091,2.3091,2.2715,2.2617,2.2779,2.2779,2.3069,0.0,0.0,0.0,0.0,0.0,0.1642,0.0,0.0,0.0,0.0,0.0,0.0,0.0,0.0,0.0,0.0,0.0,0.0,0.0,0.0,0.0,0.0,0.0,0.0,0.0,0.7003,0.7026,0.7253,0.7347,0.7449,0.748,0.7484,0.7419,0.7281,0.7277,0.7204,0.7094,0.7057,0.7094,0.7277,0.7385,0.7538,0.7748,0.8546,0.8922,0.8965,0.9782,1.0121,1.0196,1.0993,1.1335,1.1335,1.1335,1.1495,1.1888,1.2857,1.3353,1.3646,1.3981,1.4088,1.4088,1.4088,1.4124,1.4166,1.4166,1.4368,1.4711,1.5176,1.5554,1.5943,1.6461,1.6771,1.7011,1.7267,1.7279,1.7279,1.7279,1.7279,1.7279,1.7279,1.7279,1.7279,1.7279,1.7279,1.7279,1.7279,1.7113,1.6991,1.6991,1.6991,1.6991,1.6991,1.7172,1.7372,1.7552,1.8519,1.9155,1.9338,2.1006,2.1971,2.1971,2.2687,2.3091,2.3091,2.3091,2.3091,2.3091,2.3091,2.3091,2.3091,2.3091,2.3276,0.0,0.0,0.0,0.0,0.2008,0.0,0.0,0.0,0.0,0.0,0.0,0.0,0.0,0.0,0.0,0.0,0.0,0.0,0.0,0.0,0.0,0.0,0.0,0.0,0.0,0.0,0.7106,0.746,0.7229,0.7188,0.7468,0.7484,0.7476,0.7456,0.7452,0.7443,0.7461,0.7273,0.7281,0.749,0.7989,0.8384,0.8589,0.941,0.9744,0.982,1.0614,1.0956,1.1031,1.1818,1.2157,1.2157,1.2157,1.2373,1.2709,1.3054,1.3353,1.3646,1.3981,1.4088,1.4088,1.4088,1.4201,1.4356,1.4356,1.4894,1.5469,1.5555,1.6139,1.6762,1.6843,1.7062,1.7235,1.7271,1.7279,1.7279,1.7279,1.7279,1.7279,1.7279,1.7279,1.7279,1.7279,1.7279,1.7279,1.7279,1.725,1.7274,1.7274,1.7274,1.7274,1.7274,1.7264,1.7645,1.8557,1.9513,2.0413,2.1329,2.2369,2.296,2.296,2.3047,2.3091,2.3091,2.3091,2.3091,2.3091,2.3091,2.3091,2.3091,2.3091,2.3353,0.0,0.0,0.0,0.0,0.0,0.0,0.0,0.0,0.4191,0.0,0.0,0.0,0.0,0.0,0.0,0.0,0.0,0.0,0.0,0.0,0.0,0.0,0.0,0.0,0.0,0.0,0.0,0.0,0.0,0.7102,0.7322,0.7431,0.7484,0.7484,0.7484,0.7435,0.7334,0.7362,0.758,0.8029,0.8403,0.8872,0.941,1.0239,1.0619,1.0651,1.144,1.1781,1.1818,1.2157,1.2405,1.2596,1.2596,1.2784,1.3053,1.3313,1.3647,1.3915,1.4041,1.4088,1.413,1.4243,1.4405,1.4601,1.4823,1.519,1.5684,1.6006,1.6517,1.6947,1.7084,1.723,1.7279,1.7279,1.7279,1.7279,1.7279,1.7279,1.7279,1.7279,1.7279,1.7279,1.7279,1.7279,1.7279,1.7279,1.7279,1.7279,1.7279,1.7831,1.8149,1.8149,1.865,1.9147,1.9604,2.0512,2.1239,2.165,2.2599,2.3091,2.3091,2.3091,2.3091,2.3091,2.3091,2.3091,2.3091,2.3091,2.3188,2.3319,2.3319,2.345,0.1794,0.0,0.0,0.0,0.0,0.0,0.0,0.0,0.0,0.0,0.0,0.0,0.0,0.0,0.0,0.0,0.0,0.0,0.0,0.0,0.0,0.0,0.0,0.0,0.0,0.0,0.0,0.0,0.0,0.0,0.7171,0.7342,0.7435,0.748,0.7484,0.7423,0.7297,0.7647,0.8056,0.8504,0.9075,0.9679,1.0271,1.1068,1.1446,1.1446,1.204,1.2305,1.2311,1.2392,1.2589,1.2804,1.2965,1.3133,1.3313,1.3527,1.3793,1.4088,1.4088,1.413,1.4208,1.4398,1.4608,1.4881,1.5197,1.5533,1.5929,1.6478,1.6786,1.7033,1.7267,1.7279,1.7279,1.7279,1.7279,1.7279,1.7279,1.7279,1.7279,1.7279,1.7279,1.7279,1.7279,1.7279,1.7279,1.7279,1.7279,1.7419,1.7692,1.8334,1.888,1.9155,1.9778,2.0322,2.0602,2.1284,2.1828,2.2059,2.2731,2.3091,2.3091,2.3091,2.3091,2.3091,2.3091,2.3091,2.3091,2.3178,2.3319,2.3503,2.3503,2.359,0.0,0.0,0.0,0.3252,0.0,0.0,0.0,0.0,0.5575,0.0,0.0,0.0,0.0,0.0,0.0,0.0,0.0,0.0,0.0,0.0,0.0,0.0,0.0,0.0,0.0,0.0,0.0,0.0,0.0,0.0,0.7151,0.7191,0.7309,0.748,0.7484,0.748,0.7476,0.828,0.8661,0.8689,1.0282,1.1037,1.1074,1.1892,1.2261,1.2261,1.2298,1.2305,1.2325,1.265,1.2777,1.2844,1.3387,1.358,1.3586,1.36,1.3793,1.4088,1.4088,1.4243,1.444,1.4608,1.4866,1.5147,1.5512,1.5944,1.647,1.6807,1.7077,1.7271,1.7279,1.7279,1.7279,1.7279,1.7279,1.7279,1.7279,1.7279,1.7279,1.7279,1.7279,1.7279,1.7279,1.7279,1.7279,1.7279,1.7279,1.7652,1.8611,1.8788,1.9155,2.0051,2.0187,2.0602,2.1561,2.1695,2.2104,2.3003,2.3091,2.3091,2.3091,2.3091,2.3091,2.3091,2.3091,2.3091,2.3091,2.3363,2.3503,2.3503,2.3503,2.3721,0.0,0.0,0.4974,0.4694,0.0,0.0,0.0,0.0,0.0,0.0,0.0,0.0,0.0,0.0,0.0,0.0,0.0,0.0,0.0,0.0,0.0,0.0,0.0,0.0,0.0,0.0,0.0,0.0,0.6359,0.0,0.0,0.7094,0.7215,0.7309,0.7423,0.7484,0.7484,0.8284,0.896,0.9523,1.0582,1.1372,1.1892,1.2187,1.2305,1.2305,1.2305,1.2412,1.2643,1.2744,1.3018,1.336,1.3527,1.3726,1.3935,1.3935,1.4001,1.4088,1.4088,1.4243,1.444,1.465,1.505,1.5505,1.5777,1.6263,1.6762,1.6907,1.7113,1.7279,1.7279,1.7279,1.7279,1.7279,1.7279,1.7279,1.7279,1.7279,1.7279,1.7279,1.7279,1.7279,1.7279,1.7279,1.7512,1.8195,1.8288,1.865,1.9604,2.0286,2.0827,2.115,2.173,2.228,2.2599,2.2643,2.2775,2.3091,2.3091,2.3091,2.3091,2.3418,2.3574,2.3574,2.3983,2.422,2.422,2.4501,2.4736,2.4881,2.4881,2.4645,0.4547,0.5215,0.0,0.5472,0.5809,0.0,0.5959,0.0,0.0,0.0,0.0,0.0,0.0,0.0,0.0,0.0,0.0,0.0,0.0,0.0,0.0,0.0,0.0,0.0,0.0,0.0,0.616,0.6269,0.6172,0.0,0.0,0.0,0.7188,0.7313,0.7728,0.797,0.8039,0.9037,0.9825,1.0351,1.1143,1.1781,1.2305,1.2305,1.2305,1.2305,1.2305,1.2472,1.279,1.2904,1.32,1.3613,1.372,1.3915,1.413,1.4166,1.4201,1.4208,1.4286,1.4363,1.4454,1.4867,1.5262,1.5684,1.6152,1.6606,1.6923,1.7066,1.72,1.7279,1.7279,1.7279,1.7279,1.7279,1.7279,1.7279,1.7279,1.7279,1.7279,1.7279,1.7279,1.7279,1.7279,1.7606,1.8056,1.8703,1.8788,1.9293,2.0557,2.1284,2.1828,2.2148,2.2731,2.3091,2.3091,2.3237,2.3369,2.3369,2.3471,2.3549,2.3549,2.3867,2.4059,2.415,2.4562,2.4848,2.494,2.5224,2.5417,2.5609,2.569,2.5361]},{"header":{"parameterUnit":"m.s-1","parameterCategory":1,"la1":30.6,"la2":29.2853,"lo1":-89.7004,"lo2":-87.6739,"dy":0.0162,"dx":0.0183,"nx":112,"ny":82,"refTime":"2026-03-15T00:00:00:Z","depth":0,"parameterNumber":3,"parameterNumberName":"V-component_of_WINDS"},"data":[0.0,0.0,0.0,0.0,0.0,0.0,0.0,0.0,0.0,0.0,0.0,0.0,0.0,0.0,0.0,0.0,0.0,0.0,0.0,0.0,0.0,0.0,0.0,0.0,0.0,0.0,0.0,0.0,0.0,0.0,0.0,0.0,0.0,0.0,0.0,0.0,0.0,0.0,0.0,0.0,0.0,0.0,0.0,0.0,0.0,0.0,0.0,0.0,0.0,0.0,0.0,0.0,0.0,0.0,0.0,0.0,0.0,0.0,0.0,0.0,0.0,0.0,0.0,0.0,0.0,0.0,0.0,0.0,0.0,0.0,0.0,0.0,0.0,0.0,0.0,0.0,0.0,0.0,0.0,0.0,0.0,0.0,0.0,0.0,0.0,0.0,0.0,0.0,0.0,0.0,0.0,0.3053,0.2819,0.2802,0.3049,0.2813,0.2598,0.2463,0.0,0.0,0.0,0.0,0.0,0.0,0.0,0.0,0.0,0.0,0.0,0.0,0.0,0.0,0.0,0.0,0.0,0.0,0.0,0.0,0.0,0.0,0.0,0.0,0.0,0.0,0.0,0.0,0.0,0.0,0.0,0.0,0.0,0.0,0.0,0.0,0.0,0.0,0.0,0.0,0.0,0.0,0.0,0.0,0.0,0.0,0.0,0.0,0.0,0.0,0.0,0.0,0.0,0.0,0.0,0.0,0.0,0.0,0.0,0.0,0.0,0.0,0.0,0.0,0.0,0.0,0.0,0.0,0.0,0.0,0.0,0.0,0.0,0.0,0.0,0.0,0.0,0.0,0.0,0.0,0.0,0.0,0.0,0.0,0.0,0.0,0.0,0.0,0.0,0.0,0.0,0.0,0.0,0.0,0.0,0.0,0.0,0.0,0.0,0.0,0.0,0.0,0.0,0.0,0.3194,0.3096,0.2858,0.2775,0.2916,0.2592,0.2221,0.1867,0.0,0.0,0.0,0.0,0.0,0.0,0.0,0.0,0.0,0.0,0.0,0.0,0.0,0.0,0.0,0.0,0.0,0.0,0.0,0.0,0.0,0.0,0.0,0.0,0.0,0.0,0.0,0.0,0.0,0.0,0.0,0.0,0.0,0.0,0.0,0.0,0.0,0.0,0.0,0.0,0.0,0.0,0.0,0.0,0.0,0.0,0.0,0.0,0.0,0.0,0.0,0.0,0.0,0.0,0.0,0.0,0.0,0.0,0.0,0.0,0.0,0.0,0.0,0.0,0.0,0.0,0.0,0.0,0.0,0.0,0.0,0.0,0.0,0.0,0.0,0.0,0.0,0.0,0.0,0.0,0.0,0.0,0.0,0.0,0.0,0.0,0.0,0.0,0.0,0.0,0.0,0.0,0.0,0.0,0.0,0.0,0.0,0.0,0.0,0.0,0.0,0.0,0.0,0.3016,0.3014,0.3101,0.2573,0.2268,0.2408,0.1874,0.145,0.1218,0.1273,0.0,0.0,0.0,0.0,0.0,0.0,0.0,0.0,0.0,0.0,0.0,0.0,0.0,0.0,0.0,0.0,0.0,0.0,0.0,0.0,0.0,0.0,0.0,0.0,0.0,0.0,0.0,0.0,0.0,0.0,0.0,0.0,0.0,0.0,0.0,0.0,0.0,0.0,0.0,0.0,0.0,0.0,0.0,0.0,0.0,0.0,0.0,0.0,0.0,0.0,0.0,0.0,0.0,0.0,0.0,0.0,0.0,0.0,0.0,0.0,0.0,0.0,0.0,0.0,0.0,0.0,0.0,0.0,0.0,0.0,0.0,0.0,0.0,0.0,0.0,0.0,0.0,0.0,0.0,0.0,0.0,0.0,0.0,0.0,0.0,0.0,0.0,0.0,0.0,0.0,0.0,0.0,0.0,0.0,0.0,0.0,0.0,0.0,0.0,0.0,0.0,0.0,0.315,0.3044,0.3106,0.2348,0.1874,0.1959,0.1295,0.0776,0.0542,0.0285,0.0,0.0,0.0,0.0,0.0,0.0,0.0,0.0,0.0,0.0,0.0,0.0,0.0,0.0,0.0,0.0,0.0,0.0,0.0,0.0,0.0,0.0,0.0,0.0,0.0,0.0,0.0,0.0,0.0,0.0,0.0,0.0,0.0,0.0,0.0,0.0,0.0,0.0,0.0,0.0,0.0,0.0,0.0,0.0,0.0,0.0,0.0,0.0,0.0,0.0,0.0,0.0,0.0,0.0,0.0,0.0,0.0,0.0,0.0,0.0,0.0,0.0,0.0,0.0,0.0,0.0,0.0,0.0,0.0,0.0,0.0,0.0,0.0,0.0,0.0,0.0,0.0,0.0,0.0,0.0,0.0,0.0,0.0,0.0,0.0,0.0,0.0,0.0,0.0,0.0,0.0,0.0,0.0,0.0,0.0,0.0,0.0,0.0,0.0,0.0,0.0,0.0,0.3444,0.3575,0.3155,0.2434,0.193,0.1818,0.1187,0.049,-0.027,-0.0269,0.0,0.0,0.0,0.0,0.0,0.0,0.0,0.0,0.0,0.0,0.0,0.0,0.0,0.0,0.0,0.0,0.0,0.0,0.0,0.0,0.0,0.0,0.0,0.0,0.0,0.0,0.0,0.0,0.0,0.0,0.0,0.0,0.0,0.0,0.0,0.0,0.0,0.0,0.0,0.0,0.0,0.0,0.0,0.0,0.0,0.0,0.0,0.0,0.0,0.0,0.0,0.0,0.0,0.0,0.0,0.0,0.0,0.0,0.0,0.0,0.0,0.0,0.0,0.0,0.0,0.0,0.0,0.0,0.0,0.0,0.0,0.0,0.0,0.0,0.0,0.0,0.0,0.0,0.0,0.0,0.0,0.0,0.0,0.0,0.0,0.0,0.0,0.0,0.0,0.0,0.0,0.0,0.0,0.0,0.0,0.0,0.0,0.0,0.0,0.0,0.0,0.0,0.3276,0.3411,0.0,0.249,0.1846,0.179,0.0884,0.0101,-0.0374,0.0,0.0,0.0,0.0,0.0,0.0,0.0,0.0,0.0,0.0,0.0,0.0,0.0,0.0,0.0,0.0,0.0,0.0,0.0,0.0,0.0,0.0,0.0,0.0,0.0,0.0,0.0,0.0,0.0,0.0,0.0,0.0,0.0,0.0,0.0,0.0,0.0,0.0,0.0,0.0,0.0,0.0,0.0,0.0,0.0,0.0,0.0,0.0,0.0,0.0,0.0,0.0,0.0,0.0,0.0,0.0,0.0,0.0,0.0,0.0,0.0,0.0,0.0,0.0,0.0,0.0,0.0,0.0,0.0,0.0,0.0,0.0,0.0,0.0,0.0,0.0,0.0,0.0,0.0,0.0,0.0,0.0,0.0,0.0,0.0,0.0,0.0,0.0,0.0,0.0,0.0,0.0,0.0,0.0,0.0,0.0,0.0,0.0,0.0,0.0,0.0,0.0,0.3074,0.3318,0.3467,0.0,0.2642,0.1963,0.1787,0.0902,0.0147,-0.0361,0.0,0.0,0.0,0.0,0.0,0.0,0.0,0.0,0.0,0.0,0.0,0.0,0.0,0.0,0.0,0.0,0.0,0.0,0.0,0.0,0.0,0.0,0.0,0.0,0.0,0.0,0.0,0.0,0.0,0.0,0.0,0.0,0.0,0.0,0.0,0.0,0.0,0.0,0.0,0.0,0.0,0.0,0.0,0.0,0.0,0.0,0.0,0.0,0.0,0.0,0.0,0.0,0.0,0.0,0.0,0.0,0.0,0.0,0.0,0.0,0.0,0.0,0.0,0.0,0.0,0.0,0.0,0.0,0.0,0.0,0.0,0.0,0.0,0.0,0.0,0.0,0.0,0.0,0.0,0.0,0.0,0.0,0.0,0.0,0.0,0.0,0.0,0.0,0.0,0.0,0.0,0.0,0.0,0.0,0.0,0.0,0.0,0.0,0.0,0.0,0.0,0.0,0.3105,0.3615,0.3845,0.3453,0.2863,0.2289,0.1767,0.135,0.069,0.0,0.0,0.0,0.0,0.0,0.0,0.0,0.0,0.0,0.0,0.0,0.0,0.0,0.0,0.0,0.0,0.0,0.0,0.0,0.0,0.0,0.0,0.0,0.0,0.0,0.0,0.0,0.0,0.0,0.0,0.0,0.0,0.0,0.0,0.0,0.0,0.0,0.0,0.0,0.0,0.0,0.0,0.0,0.0,0.0,0.0,0.0,0.0,0.0,0.0,0.0,0.0,0.0,0.0,0.0,0.0,0.0,0.0,0.0,0.0,0.0,0.0,0.0,0.0,0.0,0.0,0.0,0.0,0.0,0.0,0.0,0.0,0.0,0.0,0.0,0.0,0.0,0.0,0.0,0.0,0.0,0.0,0.0,0.0,0.0,0.0,0.0,0.0,0.0,0.0,0.0,0.0,0.0,0.0,0.0,0.0,0.0,0.0,0.0,0.0,0.0,0.0,0.0,0.3194,0.3664,0.3906,0.3701,0.3217,0.2829,0.2571,0.2058,0.1331,0.0371,0.0,0.0,0.0,0.0,0.0,0.0,0.0,0.0,0.0,0.0,0.0,0.0,0.0,0.0,0.0,0.0,0.0,0.0,0.0,0.0,0.0,0.0,0.0,0.0,0.0,0.0,0.0,0.0,0.0,0.0,0.0,0.0,0.0,0.0,0.0,0.0,0.0,0.0,0.0,0.0,0.0,0.0,0.0,0.0,0.0,0.0,0.0,0.0,0.0,0.0,0.0,0.0,0.0,0.0,0.0,0.0,0.0,0.0,0.0,0.0,0.0,0.0,0.0,0.0,0.0,0.0,0.0,0.0,0.0,0.0,0.0,0.0,0.0,0.0,0.0,0.0,0.0,0.0,0.0,0.0,0.0,0.0,0.0,0.0,0.0,0.0,0.0,0.0,0.0,0.0,0.0,0.0,0.0,0.0,0.0,0.0,0.0,0.0,0.0,0.0,0.0,0.0,0.3234,0.3778,0.4077,0.376,0.3417,0.3123,0.2882,0.2521,0.1927,0.1015,0.0,0.0,0.0,0.0,0.0,0.0,0.0,0.0,0.0,0.0,0.0,0.0,0.0,0.0,0.0,0.0,0.0,0.0,0.0,0.0,0.0,0.0,0.0,0.0,0.0,0.0,0.0,0.0,0.0,0.0,0.0,0.0,0.0,0.0,0.0,0.0,0.0,0.0,0.0,0.0,0.0,0.0,0.0,0.0,0.0,0.0,0.0,0.0,0.0,0.0,0.0,0.0,0.0,0.0,0.0,0.0,0.0,0.0,0.0,0.0,0.0,0.0,0.0,0.0,0.0,0.0,0.0,0.0,0.0,0.0,0.0,0.0,0.0,0.0,0.0,0.0,0.0,0.0,0.0,0.0,0.0,0.0,0.0,0.0,0.0,0.0,0.0,0.0,0.0,0.0,0.0,0.0,0.0,0.0,0.0,0.0,0.0,0.0,0.0,0.0,0.0,0.0,0.329,0.3965,0.426,0.3671,0.3481,0.3225,0.284,0.2802,0.2452,0.1594,0.0,0.0,0.0,0.0,0.0,0.0,0.0,0.0,0.0,0.0,0.0,0.0,0.0,0.0,0.0,0.0,0.0,0.0,0.0,0.0,0.0,0.0,0.0,0.0,0.0,0.0,0.0,0.0,0.0,0.0,0.0,0.0,0.0,0.0,0.0,0.0,0.0,0.0,0.0,0.0,0.0,0.0,0.0,0.0,0.0,0.0,0.0,0.0,0.0,0.0,0.0,0.0,0.0,0.0,0.0,0.0,0.0,0.0,0.0,0.0,0.8814,0.0,0.0,0.0,0.0,0.0,0.0,0.0,0.0,0.0,0.0,0.0,0.0,0.0,0.0,0.0,0.0,0.0,0.0,0.0,0.0,0.0,0.0,0.0,0.0,0.0,0.0,0.0,0.0,0.0,0.0,0.0,0.0,0.0,0.0,0.0,0.0,0.0,0.0,0.0,0.0,0.0,0.3598,0.4054,0.4248,0.381,0.3399,0.3086,0.2897,0.2884,0.2593,0.1927,0.0,0.0,0.0,0.0,0.0,0.0,0.0,0.0,0.0,0.0,0.0,0.0,0.0,0.0,0.0,0.0,0.0,0.0,0.0,0.0,0.0,0.0,0.0,0.0,0.0,0.0,0.0,0.0,0.0,0.0,0.0,0.0,0.0,0.0,0.0,0.0,0.0,0.0,0.0,0.0,0.0,0.0,0.0,0.0,0.0,0.0,0.0,0.0,0.0,0.0,0.0,0.0,0.0,0.0,0.0,0.0,0.0,0.0,0.0,0.0,0.0,1.0083,0.0,0.0,0.0,0.0,0.0,0.0,0.0,0.0,0.0,0.0,0.0,0.0,0.0,0.0,0.0,0.0,0.0,0.0,0.0,0.0,0.0,0.0,0.0,0.0,0.0,0.0,0.0,0.0,0.0,0.0,0.0,0.0,0.0,0.0,0.0,0.0,0.0,0.0,0.0,0.0,0.3925,0.4366,0.4577,0.4132,0.3659,0.3353,0.3287,0.3046,0.2744,0.2367,0.2088,0.0,0.0,0.0,0.0,0.0,0.0,0.0,0.0,0.0,0.0,0.0,0.0,0.0,0.0,0.0,0.0,0.0,0.0,0.0,0.0,0.0,0.0,0.0,0.0,0.0,0.0,0.0,0.0,0.0,0.0,0.0,0.0,0.0,0.0,0.0,0.0,0.0,0.0,0.0,0.0,0.0,0.0,0.0,0.0,0.0,0.0,0.0,0.0,0.0,0.0,0.0,0.0,0.0,0.0,1.3466,1.3126,1.3332,1.3475,1.358,1.3475,1.3086,1.2485,0.0,0.0,0.0,0.0,0.0,0.0,0.0,0.0,0.0,0.0,0.0,0.0,0.0,0.0,0.0,0.0,0.0,0.0,0.0,0.0,0.0,0.0,0.0,0.0,0.0,1.0596,1.0204,0.0,0.0,0.0,0.0,0.0,0.0,0.0,0.0,0.0,0.0,0.0,0.0,0.4301,0.4761,0.4959,0.4516,0.4033,0.3761,0.3778,0.3369,0.3071,0.3008,0.2641,0.2329,0.0,0.0,0.0,0.0,0.0,0.0,0.0,0.0,0.0,0.0,0.0,0.0,0.0,0.0,0.0,0.0,0.0,0.0,0.0,0.0,0.0,0.0,0.0,0.0,0.0,0.0,0.0,0.0,0.0,0.0,0.0,0.0,1.1213,1.0991,0.0,0.0,0.0,0.0,0.0,0.0,0.0,0.0,0.0,0.0,0.0,0.0,0.0,0.0,1.2368,1.3608,1.4096,1.3831,1.5502,1.6057,1.5645,1.6053,1.6269,1.6269,1.6269,0.0,1.3805,1.3288,0.0,0.0,0.0,0.0,0.0,0.0,0.0,0.0,0.0,0.0,0.0,0.0,0.0,0.0,0.0,0.0,0.0,0.0,0.0,0.0,0.0,0.0,1.3694,1.3148,1.2733,1.2171,0.0,0.985,0.8644,0.7746,0.0,0.0,0.0,0.0,0.0,0.0,0.0,0.0,0.4857,0.5017,0.5072,0.4778,0.4279,0.3985,0.4035,0.3977,0.4012,0.4167,0.37,0.3322,0.3114,0.25,0.0,0.0,0.0,0.0,0.0,0.0,0.0,0.0,0.0,0.0,0.0,0.0,0.0,0.0,0.0,0.0,0.0,0.0,0.0,0.0,0.0,0.0,0.0,0.0,0.0,0.0,0.0,0.0,0.0,1.2409,1.2723,1.2487,1.2474,1.2338,0.0,0.0,0.0,0.0,0.0,0.0,0.0,0.0,0.0,1.3487,1.4342,1.4987,1.5358,1.5687,1.5862,1.598,1.6514,1.6701,1.6509,1.6785,1.6909,1.6909,1.7043,1.6629,1.5823,1.4733,1.4022,1.3431,0.0,0.0,0.0,0.0,0.0,1.2243,1.3225,0.0,0.0,0.0,0.0,0.0,0.0,0.0,0.0,0.0,0.0,0.0,0.0,0.0,0.0,1.3701,1.3246,1.273,1.2332,1.1693,1.0726,0.0,0.8896,0.8519,0.719,0.0,0.0,0.0,0.0,0.0,0.5818,0.5859,0.5881,0.5774,0.5172,0.4814,0.4875,0.451,0.4323,0.444,0.4234,0.4018,0.3812,0.356,0.3293,0.0,0.0,0.0,0.0,0.0,0.0,0.0,0.0,0.0,0.0,0.0,0.0,0.0,0.0,0.0,0.0,0.0,0.0,0.0,0.0,0.0,0.0,0.0,0.0,0.0,0.0,0.0,0.0,1.377,1.4497,1.4071,1.4368,1.4307,0.0,0.0,0.0,0.0,0.0,0.0,1.4245,1.4928,1.5282,1.5237,1.6047,1.6811,1.7532,1.7259,1.722,1.7452,1.7284,1.7151,1.7043,1.7217,1.729,1.729,1.7551,1.7661,1.755,1.6111,1.5283,1.4835,1.3782,1.3507,1.366,1.3628,1.3648,1.3847,1.4948,1.5158,1.4965,1.4965,0.0,1.4785,1.3761,0.0,0.0,0.0,0.0,1.4684,1.4666,0.0,1.4132,1.4256,1.3727,1.319,1.3069,1.3046,1.2519,0.0,1.0502,1.0199,0.8775,0.0,0.0,0.0,0.0,0.6966,0.6529,0.6511,0.6518,0.6518,0.6014,0.5704,0.5774,0.5273,0.4963,0.4957,0.4909,0.4769,0.449,0.4483,0.4252,0.3789,0.0,0.0,0.0,0.0,0.0,0.0,0.0,0.0,0.0,0.0,0.0,0.0,0.0,0.0,0.0,0.0,0.0,0.0,0.0,0.0,0.0,0.0,0.0,0.0,0.0,0.0,0.0,0.0,0.0,1.5333,1.6342,0.0,0.0,0.0,0.0,1.5983,1.5631,1.5656,1.6213,1.6726,1.6807,1.6438,1.6945,1.7267,1.7311,1.7719,1.7719,1.7311,1.8,1.8092,1.7656,1.7931,1.803,1.8084,1.8471,1.8635,1.8546,1.7383,1.6826,1.6658,1.6398,1.6528,1.6905,1.7159,1.7209,1.719,1.7451,1.7208,1.6774,1.6774,1.6183,1.5447,1.5457,1.4945,0.0,0.0,1.5865,1.6217,1.7082,1.6551,1.5758,1.5631,1.4808,1.3921,1.3547,1.3478,1.3234,0.0,1.1913,1.144,1.0846,0.0,0.8817,0.8372,0.7677,0.7074,0.673,0.6633,0.6595,0.6595,0.6511,0.6473,0.6542,0.652,0.6413,0.6214,0.6021,0.5719,0.5257,0.4885,0.4643,0.4553,0.4112,0.0,0.0,0.0,0.0,0.0,0.0,0.0,0.0,0.0,0.0,0.0,0.0,0.0,0.0,0.0,0.0,0.0,0.0,0.0,0.0,0.0,0.0,0.0,0.0,0.0,0.0,0.0,0.0,1.6786,1.8161,0.0,0.0,1.7593,1.7922,1.8169,1.8118,1.8289,1.8824,1.9329,1.9724,1.998,2.0445,2.0718,2.0718,2.0222,1.99,1.9756,1.9395,1.9091,1.8853,1.8963,1.8978,1.8936,1.9083,1.915,1.9137,1.8915,1.8674,1.8432,1.8012,1.8031,1.8302,1.8099,1.8084,1.8185,1.8254,1.8006,1.7674,1.7615,1.7377,1.715,1.7376,1.7351,1.724,1.7256,1.7382,1.7535,1.7619,1.6773,1.59,1.5896,1.5042,1.4192,1.4043,1.401,1.3937,1.3674,1.3029,1.2306,1.1535,1.1292,1.0721,0.9385,0.918,0.8848,0.7919,0.7777,0.7686,0.7467,0.7178,0.7059,0.7175,0.6933,0.6783,0.6747,0.6686,0.6427,0.597,0.5805,0.5616,0.5369,0.5208,0.4921,0.0,0.0,0.0,0.0,0.0,0.0,0.0,0.0,0.0,0.0,0.0,0.0,0.0,0.0,0.0,0.0,0.0,0.0,0.0,0.0,0.0,0.0,0.0,0.0,0.0,0.0,1.8908,1.8585,1.9891,2.0368,1.9253,1.9675,2.0071,2.0173,2.0252,2.0439,2.0758,2.1099,2.1412,2.163,2.193,2.2085,2.2085,2.1618,2.1288,2.1107,2.0729,2.0344,1.9913,1.9995,1.9902,1.9669,1.9811,1.9863,1.9914,2.0194,2.0295,2.0143,1.9584,1.9445,1.9605,1.9426,1.9365,1.9314,1.8985,1.859,1.8225,1.8179,1.8175,1.822,1.8523,1.8683,1.8745,1.8442,1.8461,1.85,1.8246,1.7434,1.6632,1.6451,1.5666,1.4858,1.4568,1.4479,1.4431,1.4351,1.3732,1.3059,1.2467,1.2382,1.1894,1.0399,1.0223,0.9875,0.8774,0.8577,0.8442,0.8231,0.7878,0.7744,0.7927,0.7496,0.7266,0.7424,0.7355,0.7161,0.6855,0.6753,0.6593,0.6344,0.6323,0.6058,0.5541,0.0,0.0,0.0,0.0,0.0,0.0,0.0,0.0,0.0,0.0,0.0,0.0,0.0,0.0,0.0,0.0,0.0,0.0,0.0,0.0,0.0,0.0,0.0,1.7934,1.9355,2.0438,2.0669,2.151,2.1732,2.0808,2.1019,2.143,2.1948,2.1985,2.1985,2.1985,2.1985,2.1737,2.1247,2.1235,2.1235,2.1235,2.1737,2.1696,2.1207,2.1979,2.1804,2.0799,2.1038,2.0836,2.0309,2.0698,2.0845,2.087,2.1264,2.1592,2.1746,2.1104,2.0833,2.0894,2.1288,2.1223,2.0789,1.9789,1.9071,1.8574,1.8531,1.8517,1.8562,1.8765,1.8822,1.886,1.9064,1.9101,1.9101,1.9101,1.8637,1.8013,1.7359,1.6677,1.5946,1.511,1.4873,1.4747,1.447,1.4052,1.3719,1.3702,1.2999,1.2205,1.1467,1.0732,0.0,0.9247,0.897,0.8839,0.8825,0.8586,0.8555,0.882,0.823,0.7994,0.8329,0.8092,0.7935,0.7913,0.7675,0.7502,0.7448,0.7376,0.7302,0.7246,0.0,0.0,0.0,0.0,0.0,0.0,0.0,0.0,0.0,0.0,0.0,0.0,0.0,0.0,0.0,0.0,0.0,0.0,0.0,0.0,0.0,0.0,2.0684,1.9965,2.0942,2.1935,2.2432,2.3498,2.39,2.3203,2.3613,2.3811,2.3531,2.3505,2.3505,2.3505,2.3505,2.3624,2.3932,2.3945,2.3945,2.3945,2.3733,2.3576,2.342,2.3299,2.315,2.2935,2.2471,2.2283,2.2267,2.1853,2.1722,2.1803,2.1935,2.202,2.2067,2.1674,2.1636,2.1841,2.1935,2.1932,2.1703,2.0684,2.0229,1.9979,1.9176,1.9064,1.9236,1.9277,1.931,1.9328,1.9369,1.9254,1.912,1.9213,1.8392,1.7532,1.7441,1.6519,1.5638,1.5388,1.5314,1.5284,1.521,1.4891,1.447,1.395,1.3687,1.3275,1.2441,0.0,0.0,1.0283,1.007,0.9831,0.9292,0.916,0.9332,0.9843,0.9312,0.9149,0.0,0.9175,0.8754,0.8419,0.8332,0.8293,0.8268,0.8214,0.8165,0.0,0.0,0.0,0.0,0.0,0.0,0.0,0.0,0.0,0.0,0.0,0.0,0.0,0.0,0.0,0.0,0.0,0.0,0.0,0.0,0.0,0.0,2.1516,2.2337,2.2427,2.2795,2.3358,2.416,2.4587,2.4764,2.4586,2.4829,2.4856,2.4489,2.4462,2.4462,2.4462,2.4462,2.4708,2.5174,2.5216,2.5272,2.537,2.509,2.4978,2.4978,2.4681,2.4471,2.4299,2.3863,2.3442,0.0,2.2646,2.2376,2.2208,2.2356,2.2472,0.0,0.0,0.0,0.0,0.0,2.2603,2.2272,2.1497,2.1067,2.0695,1.9838,1.9678,1.9806,1.9894,1.9912,1.9912,1.9912,1.9806,1.9699,1.9785,1.9213,1.8522,1.7997,1.7287,1.6577,1.6031,1.5797,1.5682,1.574,0.0,0.0,1.4501,1.4294,1.398,1.33,1.3158,1.2746,1.1717,1.1284,1.0918,1.049,1.0058,1.0129,1.0895,1.0389,0.0,0.0,0.0,0.9904,0.9379,0.9354,0.0,0.0,0.0,0.0,0.0,0.0,0.0,0.0,0.8133,0.8063,0.0,0.0,0.0,0.0,0.0,0.0,0.0,0.0,0.0,0.0,0.0,0.0,0.0,0.0,0.0,0.0,2.3238,2.3387,2.5,2.4813,2.4836,2.5631,2.5133,2.4886,2.5231,2.5174,2.509,2.509,2.509,2.509,2.509,0.0,0.0,0.0,0.0,2.5647,2.5893,2.5893,2.5893,2.5893,2.5893,2.5639,2.5158,2.5113,2.449,2.3465,2.3334,2.2989,2.2525,2.276,2.2979,2.315,2.2609,2.2572,2.2897,2.3443,2.3263,0.0,0.0,0.0,0.0,2.0621,2.0383,2.0326,2.0591,2.061,2.0548,2.0548,2.0531,2.0497,2.0514,2.0452,2.0061,1.8749,1.8374,1.7983,1.6768,1.6227,1.6022,1.6136,1.5925,1.5624,1.5345,1.4907,1.4456,1.4066,1.3897,1.3674,1.3251,1.2499,1.1981,1.1943,0.0,0.0,1.1945,1.1442,1.1362,1.208,1.1721,1.1227,1.0611,1.0584,1.057,1.0515,1.0551,1.0722,1.1036,1.1071,1.1071,1.1045,0.9692,0.9384,0.0,0.0,0.0,0.0,0.0,0.0,0.0,0.0,0.0,0.0,0.0,0.0,0.0,0.0,0.0,2.3701,2.5039,2.621,2.6561,2.6935,2.6838,2.596,2.5741,2.5685,2.577,2.5729,2.5729,2.5729,2.5729,2.5729,2.5729,2.5729,0.0,2.5825,2.5825,2.5853,2.5893,2.5893,2.5893,2.5893,0.0,0.0,2.6044,2.5779,2.5697,2.5712,2.4838,2.4477,2.4417,2.3943,2.3775,2.3797,2.3689,2.3689,2.3754,2.3882,2.3849,2.3663,2.3217,2.257,2.199,2.2095,2.1509,2.089,2.1527,2.1289,0.0,2.0828,2.0664,2.0514,2.0564,2.0174,1.9578,1.8822,1.8236,1.7602,1.677,1.6514,1.6488,1.6581,1.6525,1.6485,1.647,1.5738,1.5028,1.4672,1.4604,1.4369,1.3808,1.3137,1.2553,1.2182,1.1469,1.1535,1.2757,1.231,1.2413,1.3445,1.2982,1.2407,1.1792,1.1764,1.1587,1.1205,1.142,1.1641,1.1873,1.2087,1.2184,1.2174,1.1183,1.0812,0.0,0.0,0.0,0.0,0.0,0.0,0.0,0.0,0.0,0.0,0.0,2.2828,2.3685,0.0,2.5077,2.5962,2.6595,2.7103,2.7422,2.7701,2.764,2.689,2.6733,2.668,2.6628,2.6534,2.6508,2.6508,2.6508,2.6508,2.6508,2.6508,2.6561,2.6707,2.6707,2.6785,2.6901,2.6901,2.6901,2.6901,2.6901,2.6979,2.7119,2.6935,2.6797,2.6672,2.5895,2.5391,2.5111,2.4725,2.4655,2.4795,2.4791,2.463,2.4431,2.4695,2.4795,2.4705,2.4112,2.342,2.2772,2.2685,2.2019,2.1342,2.1761,2.1709,2.1491,2.1491,2.1491,2.1506,2.1538,2.1054,2.0372,1.9583,1.8854,1.8111,1.7289,1.6993,1.6917,1.6939,1.6837,1.6763,1.6789,1.6378,1.5978,1.5823,1.5681,1.5371,1.473,1.4037,1.3386,1.2804,1.224,1.2285,1.3266,1.3418,1.3693,1.4259,1.4046,1.3597,1.2924,1.2909,1.2625,1.2014,1.2128,1.224,1.2345,1.296,1.3248,1.3239,1.3414,1.3188,0.0,0.0,0.0,0.0,0.0,0.0,0.0,0.0,2.2274,2.2415,2.3489,2.4815,2.6207,2.6005,2.6244,2.8124,2.7843,2.7576,2.8058,2.8134,2.8039,2.7811,2.7665,2.754,2.7424,2.7308,2.7257,2.7257,2.7257,2.7257,2.7257,2.7257,2.7359,2.7565,2.759,2.7675,2.7898,2.7898,2.7938,2.7972,2.7972,2.8012,2.8046,2.8119,2.7891,2.7402,2.6831,2.6146,2.543,2.5318,2.546,2.5756,2.5807,2.5549,2.5211,2.5551,2.568,2.5617,2.5105,2.4436,2.38,2.3605,2.2826,2.2046,2.2298,2.2276,2.2167,2.2192,2.2351,2.2521,2.2548,2.2151,2.1489,2.0435,1.9713,1.9013,1.7963,1.7572,1.7415,1.7427,1.726,1.7113,1.7138,1.7138,1.7064,1.6828,1.6623,1.6226,1.555,1.4836,1.4108,1.3432,1.2903,1.2879,1.3536,1.4298,1.4721,1.4721,1.4928,1.4751,1.4022,1.414,1.3911,1.3234,1.3218,1.3247,1.3284,1.4046,1.434,1.4214,1.5527,1.5498,2.2683,2.2352,2.243,2.2397,2.2342,2.263,0.0,0.0,2.4632,2.5356,2.6623,2.7457,2.7076,2.7904,2.8511,2.8201,2.8533,2.8888,2.8967,2.8982,2.8746,2.8133,2.795,2.7849,2.7824,2.7824,2.7799,2.7799,2.7799,2.7799,2.7799,2.7799,2.7824,2.7849,2.7864,2.7874,2.7898,2.7898,2.8021,2.8255,2.8255,2.8376,2.8614,2.8904,2.9034,2.8914,2.794,2.6931,2.593,2.5919,2.6068,2.6333,2.6505,2.6539,2.6436,2.6085,2.5959,2.5997,2.6335,2.5966,2.5476,2.6281,2.5086,2.3502,2.4166,2.3482,2.2467,2.2533,2.2569,2.2621,2.2738,2.2707,2.2273,2.0813,2.0397,1.9946,1.8523,1.8208,1.8198,1.8256,1.8236,1.8246,1.8307,1.8318,1.7969,1.6952,1.6763,1.6496,1.577,1.5065,1.4376,1.3637,1.2987,1.2879,1.3536,1.4331,1.4794,1.4794,1.5572,1.574,1.5061,1.571,1.5896,1.5455,1.5438,1.5537,1.5714,1.581,1.5497,1.4846,1.6596,1.6747,2.4158,0.0,0.0,0.0,2.4001,2.4646,2.4934,2.5877,2.6819,2.7162,2.8015,2.8593,2.8309,2.8719,2.905,0.0,2.9159,2.938,2.9477,2.9147,2.8756,2.8474,2.8062,2.7897,2.8161,2.8306,2.8555,2.8988,2.8996,2.8996,2.8996,2.8996,2.8996,2.8996,2.8996,2.8996,2.8996,2.8996,2.9065,2.9157,2.9157,2.9241,2.9332,2.9489,2.9259,2.8727,2.8279,2.7535,2.6573,2.6573,2.6641,2.6758,2.6841,2.6858,2.6841,2.6641,2.6573,2.6607,2.6808,2.6397,2.5851,2.6221,2.5167,2.3763,2.4076,2.3577,2.291,2.2938,2.3025,2.314,2.3188,2.2923,2.2421,2.1666,2.083,1.9994,1.9219,1.8716,1.8418,1.8445,1.8455,1.8465,1.8512,1.8495,1.8338,1.7854,1.762,1.7255,1.6544,1.5771,1.4876,1.3827,1.3472,1.3413,1.3692,1.4447,1.4924,1.4924,1.6128,1.6316,1.514,1.5813,1.5757,1.4775,1.4748,1.4818,1.4936,1.5992,1.6332,1.6055,1.7819,1.839,2.4846,0.0,0.0,2.4207,2.5108,2.593,2.565,2.6899,2.8047,2.7857,2.8408,2.8858,2.8668,2.8846,0.0,2.9249,2.9454,2.9569,2.9513,2.9049,2.8558,2.817,2.7802,2.7725,2.8089,2.8477,2.9016,2.9745,2.9793,2.9793,2.9793,2.9793,2.9793,2.9793,2.9793,2.9793,2.9793,2.9881,2.9968,3.0032,3.0102,3.0187,3.0251,3.0032,2.9463,2.8613,2.8412,2.7858,2.7103,2.7103,2.7151,2.7197,2.7197,2.7197,2.7197,2.7261,2.7214,2.7119,2.7246,2.6932,2.648,2.6509,2.5678,2.4644,2.4417,2.401,2.3584,2.3378,2.3435,2.3573,2.3578,2.3225,2.2761,2.2418,2.1509,2.0572,1.9945,1.9388,1.8943,1.875,1.8696,1.8668,1.8668,1.8668,1.8687,1.8716,1.8514,1.8046,1.7195,1.6165,1.5158,1.4219,1.3936,1.3795,1.3795,1.439,1.475,1.475,1.6293,1.6583,1.5218,1.6144,1.6107,1.485,1.4832,1.497,1.5238,1.6563,1.7217,1.7243,1.8758,1.9344,0.0,0.0,2.5056,2.4974,2.5492,2.6182,2.6878,2.7589,2.7921,2.7273,2.782,2.8205,2.7577,2.8131,2.8715,2.8736,2.9318,2.9529,2.8833,2.8704,2.8186,2.6827,2.7054,2.7336,0.0,2.8199,2.9016,2.9745,2.9793,2.9793,2.9793,2.9793,2.9793,2.9793,2.9793,2.9793,2.9793,3.0123,3.0377,3.0584,3.0908,3.1198,3.143,3.064,2.9873,2.9141,2.8425,2.7823,2.7388,2.7388,2.7509,2.7686,2.7686,2.7686,2.7701,2.7896,2.7721,2.745,2.7839,2.795,2.7965,2.8101,2.7571,2.6769,2.5971,2.5229,2.451,2.3871,2.3689,2.3721,2.3764,2.3777,2.3578,2.2851,2.2652,2.2221,2.0705,2.0316,2.0055,1.9407,1.9162,1.9078,1.9078,1.9078,1.9127,1.9263,1.9268,1.8778,1.747,1.5965,1.5014,1.4969,1.4259,1.3795,1.3795,1.4005,1.4135,1.4135,1.5887,1.6501,1.5621,1.7236,1.7743,1.6931,1.6913,1.7295,1.8077,1.82,1.8247,1.8285,1.9187,1.9188,0.0,0.0,2.566,2.6627,2.7359,2.7788,2.7559,2.8025,2.8308,2.765,2.774,2.7862,2.7642,2.7849,2.8244,2.8865,2.9371,2.9803,3.0177,2.9995,2.9444,2.8436,2.8025,0.0,0.0,0.0,0.0,3.0043,3.0127,3.0365,3.0908,3.0925,3.0925,3.0925,3.0925,3.0925,3.0925,3.1024,3.114,3.1198,3.1315,3.1408,3.1487,3.0755,3.0126,2.9555,2.8905,2.8358,2.7936,2.7936,2.7979,2.8035,2.8035,2.8083,2.817,2.8242,2.8264,2.8246,2.8156,2.8136,2.815,2.8191,2.781,2.7266,2.7013,2.6132,2.5183,2.4957,2.4518,2.4105,2.4143,2.4125,2.407,2.3813,2.3345,2.284,2.237,2.1826,2.1216,2.0493,2.0329,2.0115,1.9519,1.9427,1.9448,1.9485,1.9427,1.9015,1.8015,1.7364,1.6823,1.6363,1.6084,1.5954,1.6042,1.6121,1.6158,1.6158,1.725,1.7523,1.6697,1.7752,1.7993,1.7277,1.7262,1.7415,1.7732,1.8383,1.8683,1.8657,1.9533,1.9797,2.5863,2.6265,2.6698,2.7879,2.8276,2.8336,2.8126,2.8202,2.8068,2.7114,2.6976,2.6954,2.6695,2.6781,2.7309,2.8619,2.9095,2.958,3.0491,3.0381,2.9972,2.9313,2.8905,0.0,0.0,0.0,0.0,3.0216,3.0576,3.0953,3.1468,3.1485,3.1485,3.1485,3.1485,3.1485,3.1485,3.1598,3.1728,3.1894,3.1966,3.2002,3.1967,3.0976,3.0325,2.9994,2.9059,2.8479,2.8201,2.8201,2.8242,2.8259,2.8259,2.8373,2.8516,2.8554,2.8664,2.8736,2.8527,2.8456,2.8469,2.8507,2.8324,2.7961,2.7394,2.6607,2.5818,2.5236,2.4718,2.433,2.433,2.4356,2.4383,2.4383,2.3984,2.3543,2.3358,2.2865,2.2256,2.1538,2.1124,2.0716,2.016,1.9876,1.9707,1.9707,1.9638,1.9372,1.8773,1.837,1.798,1.756,1.7244,1.7117,1.7189,1.72,1.72,1.72,1.8027,1.813,1.7303,1.8113,1.824,1.7514,1.7505,1.7666,1.8006,1.8632,1.9054,1.9316,1.9907,2.0338,2.7068,2.7512,2.8099,2.8695,2.8313,2.7936,2.8503,2.8109,2.7215,2.5775,2.5601,2.5517,0.0,0.0,2.6083,2.8002,2.859,2.9061,2.9825,2.9998,2.9858,0.0,0.0,0.0,0.0,0.0,0.0,3.0342,0.0,3.1507,3.1542,3.1559,3.1559,3.156,3.156,3.156,3.156,3.1821,3.2179,3.2622,3.2802,3.2882,3.2793,3.1222,3.049,3.0365,2.8889,2.8255,2.8255,2.8255,2.8326,2.8446,2.8446,2.8554,2.876,2.8877,2.8922,2.8952,2.8952,2.8941,2.8922,2.9053,2.9115,2.883,2.7259,2.676,2.6401,2.4848,2.4401,2.4424,2.4424,2.4464,2.4522,2.4522,2.4522,2.4356,2.3726,2.3476,2.3184,2.2519,2.1593,2.0931,2.0931,2.0363,1.9926,1.9926,1.9923,1.9849,1.9632,1.8946,1.8477,1.8483,1.78,1.7353,1.7359,1.7364,1.7364,1.7364,1.8254,1.8408,1.7584,1.845,1.8605,1.7858,1.7843,1.8216,1.8962,1.9034,1.9472,2.0219,2.0322,2.0794,2.7753,2.8507,2.9065,2.9206,2.9103,2.8744,2.7855,2.7095,2.6319,2.5399,2.4808,2.4413,0.0,0.0,0.0,2.6972,2.8867,0.0,3.0539,3.127,0.0,0.0,0.0,3.0603,3.0044,3.0565,0.0,0.0,3.1252,3.1533,3.2144,3.2161,3.2214,3.2318,3.2318,3.2386,3.2538,3.2622,3.2705,3.2818,3.2884,3.2581,3.1976,3.1218,3.0536,2.994,2.918,2.886,2.886,2.886,2.8883,2.8929,2.8929,2.9031,2.923,2.9251,2.9363,2.9492,2.9492,2.9304,2.9053,2.9086,2.9191,2.9138,2.8174,2.7549,2.6952,2.5992,2.5258,2.4771,2.4771,2.4785,2.4799,2.4799,2.4799,2.4783,2.472,2.4663,2.443,2.37,2.2403,2.1414,2.1414,2.074,2.0196,2.0196,2.0196,2.0105,1.986,1.9556,1.9406,1.9505,1.9378,1.9326,1.9423,1.9475,1.9503,1.9503,1.9758,1.9788,1.9565,1.9818,1.9848,1.9643,1.968,1.9796,1.9945,2.0069,2.0203,2.0376,2.1025,2.1141,2.9061,2.9782,3.0233,2.9878,2.9462,2.8767,2.7332,2.6396,2.5546,2.448,2.4025,0.0,0.0,0.0,0.0,0.0,0.0,0.0,3.1132,3.1794,3.2074,0.0,3.1771,0.0,3.1239,3.1656,3.2001,0.0,3.1936,3.2064,3.259,3.2625,3.264,3.2721,3.2721,3.2804,3.29,3.2963,3.3039,3.3129,3.2847,3.2524,3.214,3.1144,3.0448,2.999,0.0,2.9097,2.9097,2.9097,2.9148,2.923,2.923,2.9353,2.9531,2.9531,2.9589,2.9701,2.9701,2.957,2.9387,2.9365,2.9443,2.9382,2.8651,2.7918,2.7263,2.6904,2.6211,2.5552,2.5558,2.5577,2.5513,2.5157,2.5091,2.5132,2.5223,2.5228,2.5006,2.4202,2.3306,2.2582,2.2222,2.1755,2.1443,2.1443,2.1443,2.1247,2.0718,2.0255,1.9988,2.0064,2.0114,2.016,2.0246,2.028,2.0297,2.0297,2.0337,2.035,2.035,2.0369,2.0382,2.0382,2.0424,2.0599,2.0907,2.0992,2.1211,2.159,2.2094,2.2288,3.051,3.1006,3.128,3.037,2.9422,2.8328,2.6826,2.5798,2.4789,2.3523,0.0,0.0,2.344,0.0,2.489,2.7448,0.0,2.9364,3.1515,3.1915,3.2109,3.2388,3.2557,3.2639,3.2639,3.2818,3.2945,3.2961,3.2832,3.2784,3.29,3.29,3.2932,3.2961,3.2993,3.3008,3.3055,3.3162,3.3324,3.3472,3.2848,3.259,3.2588,3.1043,3.0279,3.0142,0.0,0.0,2.918,2.918,2.9283,2.9443,2.9443,2.955,2.9711,2.9701,2.9701,2.9729,2.9738,2.9782,2.9834,2.9746,2.9747,2.9623,2.8893,2.8173,2.7632,2.7638,2.7139,2.6581,2.6452,2.6461,2.6315,2.5499,2.5361,2.541,2.541,2.5415,2.5192,2.4439,2.4192,2.3895,2.3207,2.2998,2.2901,2.2901,2.2901,2.265,2.1877,2.1125,2.0567,2.0317,2.0517,2.0597,2.0481,2.0585,2.0669,2.0669,2.0708,2.0748,2.0748,2.0803,2.0842,2.0832,2.0852,2.1187,2.1893,2.1893,2.2308,2.3104,2.3221,2.3625,3.1143,3.1399,3.116,2.974,2.88,2.7811,2.6296,2.4883,0.0,0.0,0.0,2.2689,2.2689,2.3891,0.0,2.6424,0.0,0.0,0.0,0.0,3.2506,0.0,0.0,0.0,0.0,0.0,0.0,0.0,0.0,0.0,3.2932,3.29,3.3039,3.3302,3.3484,3.3638,3.3797,3.3823,3.385,3.3889,3.3116,3.2435,3.1782,3.0928,3.0196,2.9558,0.0,0.0,2.9589,2.9589,2.9626,2.9645,2.9645,2.9664,2.972,2.9755,2.9782,2.9808,2.9972,3.0042,3.0042,2.9918,2.9942,2.9893,2.9226,2.8923,2.8658,2.8037,2.7754,2.747,2.6747,2.6579,2.6371,2.5562,2.5382,2.541,2.541,2.5448,2.5445,2.529,2.4726,2.4215,2.4079,2.3461,2.2979,2.2979,2.2979,2.2921,2.2785,2.2585,2.1906,2.0452,2.1594,2.2182,2.1507,2.2125,2.2533,2.2533,2.2538,2.2544,2.2544,2.2568,2.2595,2.2656,2.2658,2.2711,2.2853,2.2853,2.2935,2.3118,2.3839,2.3861,3.1878,3.1982,3.1601,3.0058,2.8987,2.7786,2.5876,0.0,0.0,0.0,0.0,2.2816,2.2816,0.0,0.0,0.0,0.0,0.0,0.0,0.0,0.0,0.0,0.0,0.0,0.0,0.0,0.0,0.0,0.0,0.0,3.348,3.3465,3.355,3.3716,3.3815,3.3895,3.3998,3.3998,3.3845,3.3518,3.2678,3.192,3.1219,3.0472,2.9914,2.956,2.9655,0.0,2.9701,2.9701,2.9701,2.9692,2.9738,2.9763,2.9822,2.9924,2.9977,3.0007,3.0121,3.0163,3.0203,3.0165,3.0164,3.0099,2.9804,2.9462,2.9163,2.9284,2.8988,2.8539,2.8113,2.7664,2.7134,2.6311,2.5813,2.5506,2.5506,2.5527,2.5544,2.5544,2.5234,2.4977,2.4977,2.463,2.4358,2.4358,2.4358,2.4194,2.3737,2.4044,2.3639,2.1897,2.2452,2.2793,2.2408,2.2785,2.3043,2.3043,2.3047,2.3059,2.3059,2.3059,2.3067,2.3102,2.3102,2.3322,2.3779,2.3782,2.4001,2.4453,2.4883,2.4843,3.2388,3.2406,3.2037,3.0492,2.9349,2.7987,2.5718,2.459,0.0,0.0,0.0,2.3193,2.3193,0.0,0.0,0.0,0.0,0.0,0.0,0.0,0.0,0.0,0.0,0.0,0.0,0.0,0.0,0.0,0.0,0.0,3.3998,3.3998,3.4023,3.4061,3.4061,3.3994,3.3864,3.3864,3.3547,3.2885,3.2016,3.1362,3.0875,3.0077,2.9729,2.9747,2.9747,0.0,0.0,2.9808,2.9816,2.9806,2.9874,2.9926,2.9981,3.0099,3.0182,3.0222,3.0278,3.0325,3.0381,3.0448,3.0383,3.0302,3.0375,2.9975,2.9678,3.0415,3.0132,2.957,2.9361,2.8811,2.8094,2.729,2.6628,2.6112,2.5928,2.5873,2.5814,2.5637,2.5598,2.5598,2.5598,2.5598,2.5598,2.5598,2.5598,2.534,2.4675,2.5187,2.5081,2.3705,2.3562,2.3482,2.3307,2.3517,2.3632,2.3632,2.3634,2.3643,2.3644,2.3644,2.3646,2.3669,2.3669,2.3903,2.4392,2.4589,2.4844,2.5152,2.5325,2.5315,3.2405,3.2406,3.2037,3.0492,2.9476,2.828,2.6069,0.0,0.0,0.0,2.3459,2.3453,2.3453,0.0,0.0,0.0,0.0,0.0,0.0,0.0,0.0,0.0,0.0,0.0,0.0,0.0,0.0,0.0,0.0,0.0,0.0,3.3998,3.4086,3.4269,3.4269,3.4015,3.346,3.346,3.3039,3.2178,3.1362,3.0949,3.0875,3.0077,2.9783,2.9872,0.0,0.0,0.0,3.0148,3.0143,3.0144,3.017,3.0177,3.0177,3.0253,3.0283,3.0312,3.0496,3.0577,3.0576,3.0642,3.0618,3.0586,3.0634,3.0618,3.0582,3.0664,3.0628,3.0392,2.9596,2.932,2.9068,2.8252,2.8013,2.7733,2.6946,2.6776,2.6541,2.5759,2.5603,2.5603,2.5603,2.5603,2.5603,2.5603,2.5603,2.5565,2.5489,2.5552,2.5534,2.5376,2.5353,2.5077,2.4337,2.4943,2.5373,2.5373,2.5374,2.5377,2.5362,2.5362,2.5407,2.5467,2.5467,2.5111,2.4408,2.519,2.4815,2.3362,2.4141,2.4062,3.2583,3.2707,3.2317,3.0741,2.9781,2.8589,2.625,0.0,2.4415,2.3654,2.3505,2.3505,2.3505,2.3505,0.0,0.0,0.0,0.0,0.0,0.0,0.0,0.0,0.0,0.0,0.0,0.0,0.0,0.0,0.0,0.0,0.0,3.4351,3.4404,3.4484,3.4005,3.3644,3.339,3.2874,3.2198,3.1372,3.1129,3.0769,3.0278,3.0089,3.0038,3.0071,0.0,0.0,0.0,3.0196,3.0203,3.0196,3.024,3.0275,3.0332,3.0447,3.0516,3.0542,3.0626,3.0657,3.0661,3.0687,3.0676,3.0661,3.0687,3.0694,3.0694,3.0694,3.0701,3.0614,3.0264,2.9822,2.9248,2.8406,2.8196,2.8101,2.7759,2.7685,2.7414,2.6553,2.6378,2.6224,2.5696,2.5599,2.5599,2.5599,2.5599,2.5601,2.5644,2.5664,2.5664,2.566,2.5155,2.4894,2.5091,2.4979,2.5097,2.5625,2.5663,2.5426,2.4897,2.4877,2.4641,2.4144,2.4144,2.3964,2.362,2.3968,2.4042,2.3881,2.4247,2.4466,3.2045,3.2188,3.1867,3.0478,2.9583,2.8455,0.0,0.0,2.4509,2.3762,2.3582,2.3582,2.3582,2.3582,2.3611,0.0,0.0,0.0,0.0,0.0,0.0,0.0,0.0,0.0,0.0,0.0,0.0,0.0,0.0,0.0,0.0,3.4001,3.3982,3.4245,3.3456,3.2912,3.2658,3.2089,3.1403,3.0611,3.0766,3.0551,2.9996,3.0142,3.0228,3.0266,0.0,0.0,0.0,3.0342,3.0348,3.034,3.0407,3.0458,3.0509,3.0597,3.0657,3.0694,3.0694,3.0707,3.0704,3.0704,3.0716,3.0731,3.0731,3.0719,3.0707,3.0725,3.0738,3.0726,3.0728,3.0303,2.9736,2.9117,2.8962,2.8904,2.8632,2.8574,2.834,2.7441,2.709,2.6738,2.6113,2.58,2.5625,2.5625,2.5625,2.5643,2.5696,2.5693,2.5706,2.5707,2.4874,2.4687,2.5566,2.4878,2.4659,2.5284,2.5564,2.5414,2.4805,2.5038,2.4999,2.4627,2.4354,2.4217,2.4217,2.4197,2.438,2.4711,2.471,2.4841,3.055,3.052,3.0324,2.9519,2.8699,2.7727,0.0,2.538,2.4606,2.3937,2.3795,2.3795,2.3795,2.3795,2.3865,0.0,0.0,0.0,0.0,0.0,0.0,0.0,0.0,0.0,0.0,0.0,0.0,0.0,0.0,0.0,0.0,3.2593,3.2518,3.339,3.2574,3.1729,3.0931,3.1051,3.0709,2.9904,3.0114,3.0202,3.0209,3.0209,3.0265,0.0,0.0,0.0,0.0,3.0696,3.0692,3.069,3.069,3.069,3.069,3.069,3.0694,3.0694,3.0694,3.0697,3.0701,3.0701,3.0734,3.08,3.08,3.0757,3.0713,3.0773,3.08,3.0801,3.0808,3.079,3.0776,3.078,3.0778,3.0539,2.9673,2.9489,2.9235,2.8359,2.7542,2.6996,2.6996,2.6275,2.569,2.569,2.569,2.569,2.569,2.5701,2.5692,2.5692,2.4927,2.4755,2.5611,2.4909,2.44,2.442,2.5221,2.5705,2.5692,2.6511,2.7344,2.8132,2.7294,2.6866,2.6866,2.6784,2.6321,2.548,2.5414,2.4909,2.9891,3.0021,2.9697,2.8332,2.781,2.721,2.5671,2.5122,2.4751,2.414,2.4006,2.4036,2.4115,2.4135,2.4347,2.4956,0.0,0.0,0.0,0.0,0.0,0.0,0.0,0.0,0.0,0.0,0.0,0.0,0.0,0.0,0.0,3.2751,3.2373,3.2499,3.1798,3.1324,3.1113,3.0696,3.0362,3.011,3.0253,3.0342,3.0334,3.0487,0.0,0.0,0.0,0.0,0.0,3.0703,3.0706,3.0694,3.0694,3.0701,3.0698,3.0698,3.0723,3.0769,3.0769,3.0778,3.0767,3.0767,3.0774,3.0804,3.0797,3.0788,3.0773,3.0795,3.0799,3.08,3.0799,3.0795,3.0793,3.0805,3.0799,3.0714,3.0448,3.0383,3.0123,2.9265,2.8889,2.8513,2.7928,2.7092,2.6527,2.6527,2.6059,2.571,2.571,2.5707,2.5703,2.5703,2.4873,2.4693,2.5629,2.5455,2.5512,2.6077,2.6934,2.7113,2.6482,2.6712,2.6689,2.6299,2.6024,2.5579,2.4981,2.4969,2.4803,2.4562,2.5132,2.5228,0.0,2.8444,2.8196,2.7188,2.6794,2.635,2.5332,2.4913,2.462,2.4253,2.4181,2.4209,2.4275,2.4294,2.4487,2.5032,0.0,0.0,0.0,0.0,0.0,0.0,0.0,0.0,0.0,0.0,0.0,0.0,0.0,0.0,0.0,0.0,3.1507,3.1395,3.0975,3.078,3.0818,3.0464,3.0278,3.0269,3.0447,3.0506,3.0515,3.0645,0.0,0.0,0.0,0.0,0.0,3.0701,3.0691,3.0694,3.0737,3.0745,3.0749,3.0749,3.0765,3.08,3.08,3.0807,3.0793,3.0793,3.0797,3.08,3.0799,3.08,3.08,3.0799,3.0798,3.0795,3.0799,3.0807,3.0801,3.0798,3.079,3.0806,3.0806,3.08,3.0637,3.0092,2.9715,2.9321,2.8775,2.7941,2.7345,2.7345,2.6626,2.6085,2.6085,2.5796,2.5582,2.5582,2.5062,2.4956,2.554,2.529,2.531,2.5815,2.6654,2.6886,2.631,2.6597,2.6633,2.6399,2.6067,2.5796,2.5568,2.553,2.5302,2.4985,2.552,2.5586,0.0,2.6111,2.6148,2.6093,2.5641,2.5228,2.5228,2.4761,0.0,2.4303,2.4312,2.433,2.4413,2.4358,2.4412,2.4644,0.0,0.0,0.0,0.0,0.0,0.0,0.0,0.0,0.0,0.0,0.0,0.0,0.0,0.0,0.0,0.0,3.0279,3.0241,3.0241,3.0235,3.0209,3.034,3.0414,3.0424,3.0606,3.0692,3.0694,3.0694,0.0,0.0,0.0,0.0,0.0,3.0708,3.0709,3.0713,3.077,3.0801,3.0804,3.0804,3.0805,3.0806,3.0806,3.0797,3.0801,3.0801,3.0795,3.0799,3.0794,3.0796,3.08,3.0799,3.0796,3.0809,3.0801,3.081,3.0798,3.0806,3.0801,3.0801,3.0801,3.0799,3.0796,3.0796,3.0129,2.9562,2.9562,2.8799,2.8171,2.8171,2.7373,2.676,2.6702,2.599,2.5468,2.541,2.5406,2.5383,2.5383,2.4703,2.4277,2.4277,2.5097,2.5584,2.5576,2.6358,2.7155,2.7963,2.7127,2.7089,2.789,2.7754,2.7259,2.6402,2.646,2.6084,2.4649,0.0,2.5515,2.4898,2.4633,2.4533,0.0,2.4413,2.433,0.0,0.0,0.0,0.0,0.0,0.0,0.0,0.0,0.0,0.0,0.0,0.0,0.0,0.0,0.0,0.0,0.0,0.0,0.0,0.0,0.0,0.0,0.0,3.1067,3.0606,3.0586,3.0511,3.0339,3.0539,3.0637,3.0622,3.0676,3.0706,3.0694,3.0694,0.0,0.0,0.0,0.0,3.0708,3.0757,3.0771,3.0771,3.0798,3.0792,3.08,3.08,3.0801,3.0795,3.0795,3.0793,3.0808,3.0805,3.0796,3.0804,3.0803,3.0807,3.0794,3.0806,3.0803,3.0801,3.0799,3.081,3.08,3.0798,3.0808,3.0801,3.0801,3.0731,3.0659,3.0659,3.0436,3.0253,3.0253,2.9534,2.8937,2.8937,2.8195,2.7409,2.6779,2.6508,2.6145,2.5468,2.5348,2.5322,2.5322,2.5779,2.6091,2.6091,2.6912,2.7346,2.7248,2.7422,2.7612,2.7762,2.6918,2.6573,2.6789,2.6736,2.6611,2.6421,2.7071,2.7281,2.481,2.519,2.5402,2.4958,2.4894,2.4939,2.4939,0.0,0.0,0.0,0.0,0.0,0.0,0.0,0.0,0.0,0.0,0.0,0.0,0.0,0.0,0.0,0.0,0.0,0.0,0.0,0.0,0.0,0.0,0.0,0.0,0.0,3.1041,3.0711,3.0695,3.0657,3.0535,3.0653,3.0703,3.0694,3.0694,3.0711,3.0697,3.0697,0.0,0.0,0.0,0.0,3.0757,3.0787,3.0795,3.0795,3.08,3.08,3.0797,3.0797,3.0791,3.08,3.0798,3.0795,3.0791,3.0807,3.0803,3.0798,3.0792,3.0782,3.0754,3.0794,3.0794,3.079,3.079,3.0802,3.0786,3.0725,3.0712,3.0697,3.0665,3.0607,3.0556,3.0556,3.0518,3.0501,3.0501,3.0066,2.9703,2.9703,2.8937,2.8206,2.7769,2.739,2.6972,2.6505,2.6414,2.64,2.64,2.6864,2.6828,2.6068,2.6444,2.6688,2.6601,2.662,2.6753,2.709,2.7033,2.6995,2.6995,2.6995,2.6995,2.7014,2.7472,2.7701,2.5759,2.5931,2.5857,2.5477,2.5568,2.5703,2.5591,0.0,0.0,0.0,0.0,0.0,0.0,0.0,0.0,0.0,0.0,0.0,0.0,0.0,0.0,0.0,0.0,0.0,0.0,0.0,0.0,0.0,0.0,0.0,0.0,0.0,0.0,3.0694,3.0694,3.0697,3.0707,3.0697,3.0697,3.0707,3.0707,3.0703,3.0713,3.0713,3.0755,0.0,0.0,0.0,3.0808,3.08,3.08,3.08,3.0809,3.08,3.08,3.08,3.0799,3.0799,3.0792,3.0804,3.0796,3.079,3.0786,3.078,3.0896,3.0895,3.0882,3.1086,3.0959,3.0757,3.0757,3.0747,3.0725,3.0613,3.0575,3.0576,3.0519,3.0487,3.0477,3.0477,3.0462,3.0452,3.0452,3.0367,3.0278,3.0278,2.9609,2.9051,2.8911,2.8306,2.7829,2.772,2.7701,2.7701,2.7701,2.7701,2.709,2.5663,2.5573,2.5573,2.5573,2.5573,2.5892,2.6593,2.7319,2.7701,2.7701,2.779,2.7834,2.7827,2.794,2.7965,2.6859,2.7409,2.7454,2.5356,2.5381,2.5753,0.0,0.0,0.0,0.0,0.0,0.0,0.0,0.0,0.0,0.0,0.0,0.0,0.0,0.0,0.0,0.0,0.0,0.0,0.0,0.0,0.0,0.0,0.0,0.0,0.0,0.0,0.0,3.0694,3.0694,3.0701,3.0691,3.0701,3.0701,3.0691,3.0691,3.0737,3.0774,3.0774,3.0796,0.0,0.0,3.08,3.0801,3.0794,3.0806,3.0806,3.0803,3.08,3.08,3.0795,3.0794,3.0792,3.0804,3.0794,3.0798,3.0737,3.0671,3.0743,3.1377,3.155,3.1695,3.245,3.1645,3.055,3.055,3.0546,3.0537,3.0524,3.0524,3.0519,3.0501,3.0407,3.0331,3.0331,3.0273,3.0253,3.0253,3.0233,3.0219,3.0219,3.0084,2.9726,2.8987,2.8796,2.8459,2.7778,2.7701,2.7701,2.7701,2.7701,2.7587,2.7338,2.7319,2.7319,2.7319,2.7319,2.7377,2.751,2.7625,2.7701,2.7701,2.8213,2.8434,2.8384,2.8954,2.9194,2.7014,2.7451,2.739,2.5884,2.6499,2.7349,0.0,0.0,0.0,0.0,0.0,0.0,0.0,0.0,0.0,0.0,0.0,0.0,0.0,0.0,0.0,0.0,0.0,0.0,0.0,0.0,0.0,0.0,0.0,0.0,0.0,0.0,0.0,0.0,3.0706,3.0714,3.0758,3.0741,3.0741,3.0758,3.0758,3.0777,3.0797,3.0797,3.0799,3.0801,0.0,3.0795,3.0795,3.0805,3.08,3.08,3.0798,3.0796,3.0795,3.0807,3.0788,3.076,3.0755,3.0703,3.0706,3.1111,3.0939,3.0787,3.2024,3.205,3.1827,3.2688,3.2411,3.184,3.184,3.184,3.1844,3.1805,3.1788,3.1661,3.1154,3.0951,3.0771,3.0337,3.0214,3.0211,3.0211,3.0211,3.0211,3.0211,3.0211,3.0051,2.965,2.9612,2.9459,2.9096,2.9058,2.9058,2.9058,2.9058,2.8657,2.7759,2.7701,2.7701,2.7701,2.8115,2.8344,2.8344,2.8809,2.9025,2.9005,2.9167,2.9215,2.9146,2.9355,2.9418,2.7265,2.7337,2.7077,2.6604,0.0,0.0,0.0,0.0,0.0,0.0,0.0,0.0,0.0,0.0,0.0,0.0,0.0,0.0,0.0,0.0,0.0,0.0,0.0,0.0,0.0,0.0,0.0,0.0,0.0,0.0,0.0,0.0,0.0,0.0,3.072,3.0741,3.0809,3.0809,3.0809,3.0809,3.0809,3.0797,3.08,3.08,3.0795,3.08,3.08,3.08,3.08,3.08,3.08,3.0798,3.0786,3.0753,3.0739,3.0728,3.0823,3.0951,3.0936,3.1002,3.1183,3.179,3.1553,3.1341,3.2789,3.2737,3.2333,3.319,3.3474,3.3413,3.3028,3.2931,3.2927,3.2872,3.2845,3.2664,3.1945,3.1744,3.1458,3.0663,3.0491,3.0414,3.023,3.0211,3.0211,3.0211,3.0211,3.0211,3.0211,3.0211,3.0211,3.0211,3.0211,3.0211,3.0211,3.0211,2.965,2.837,2.8294,2.8294,2.8294,2.8879,2.9197,2.919,2.9792,3.006,3.0015,2.9767,2.9607,2.9523,2.9329,2.9235,2.8203,2.7716,2.7228,2.7293,0.0,0.0,0.0,0.0,0.0,0.0,0.0,0.0,0.0,0.0,0.0,0.0,0.0,0.0,0.0,0.0,0.0,0.0,0.0,0.0,0.0,0.0,0.0,0.0,0.0,0.0,0.0,0.0,0.0,0.0,0.0,3.0809,3.0801,3.0801,3.0801,3.0801,3.0801,3.0799,3.0804,3.0804,3.0803,3.08,3.08,3.08,3.08,3.08,3.0798,3.0791,3.0733,3.0623,3.0524,3.0524,3.1036,3.1715,3.1657,3.2154,3.2824,3.2813,3.2769,3.2885,3.3681,3.3884,3.401,3.4805,3.5043,3.4679,3.3131,3.271,3.2729,3.2714,3.2714,3.2695,3.2623,3.2604,3.2374,3.156,3.1369,3.1083,3.0319,3.0211,3.0211,3.0211,3.0211,3.0211,3.0211,3.0211,3.0211,3.0211,3.0211,3.0211,3.0211,3.0211,3.0154,3.0032,3.0013,3.0013,3.0013,3.007,3.0075,3.0013,2.9888,2.9801,2.9731,2.9329,2.9118,2.906,2.8838,2.8718,2.704,2.7522,2.8055,2.7727,0.0,0.0,0.0,0.0,0.0,0.0,0.0,0.0,0.0,0.0,0.0,0.0,0.0,0.0,0.0,0.0,0.0,0.0,0.0,0.0,0.0,0.0,0.0,0.0,0.0,0.0,0.0,0.0,0.0,0.0,0.0,3.0801,3.0793,3.0793,3.0793,3.0793,3.0793,3.0809,3.08,3.08,3.08,3.08,3.08,3.0799,3.0795,3.0753,3.0735,3.0738,3.0626,3.0536,3.0554,3.1067,3.1423,3.1758,3.2272,3.2602,3.2889,3.3415,3.3228,3.3022,3.4346,3.4388,3.4167,3.498,3.5209,3.5048,3.4418,3.4246,3.4246,3.4246,3.4246,3.4113,3.3624,3.3509,3.3261,3.2413,3.2222,3.2107,3.1801,3.1744,3.1744,3.1744,3.1744,3.1744,3.1744,3.1744,3.156,3.1064,3.051,3.015,3.0026,3.0011,2.9953,2.9828,3.0015,3.0087,2.9969,2.9918,2.9817,2.967,2.9598,2.9758,3.0196,2.992,3.0005,3.043,3.023,3.0124,2.6725,2.7236,2.8011,0.0,0.0,0.0,0.0,0.0,0.0,0.0,0.0,0.0,0.0,0.0,0.0,0.0,0.0,0.0,0.0,0.0,0.0,0.0,0.0,0.0,0.0,0.0,0.0,0.0,0.0,0.0,0.0,0.0,0.0,0.0,0.0,3.0795,3.08,3.08,3.08,3.08,3.08,3.08,3.08,3.08,3.08,3.08,3.0773,3.0765,3.0758,3.0706,3.0633,3.0599,3.0476,3.0428,3.0491,3.1309,3.1756,3.2071,3.2947,3.3343,3.3597,3.4178,3.3987,3.3692,3.4838,3.4827,3.4483,3.5057,3.5209,3.5209,3.5209,3.5209,3.5209,3.5209,3.5209,3.5057,3.4503,3.4369,3.412,3.3272,3.31,3.3024,3.2756,3.2699,3.2699,3.2699,3.2699,3.2699,3.2699,3.2645,3.236,3.1732,3.1116,3.0707,3.0579,3.0561,3.0508,3.0339,3.0515,3.0358,2.9724,2.9661,2.9542,2.9369,2.956,2.9896,3.0368,3.0441,3.0716,3.1195,3.1061,3.0998,2.7684,2.6963,0.0,0.0,0.0,0.0,0.0,0.0,0.0,0.0,0.0,0.0,0.0,0.0,0.0,0.0,0.0,0.0,0.0,0.0,0.0,0.0,0.0,0.0,0.0,0.0,0.0,0.0,0.0,0.0,0.0,0.0,0.0,0.0,0.0,0.0,3.08,3.08,3.08,3.08,3.08,3.08,3.08,3.08,3.08,3.0799,3.0728,3.0709,3.0684,3.0623,3.0519,3.0392,3.0333,3.0267,3.03,3.114,3.1973,3.2833,3.37,3.4522,3.5209,3.5209,3.5209,3.5209,3.5209,3.5209,3.5209,3.5209,3.5209,3.5209,3.5209,3.5209,3.5209,3.5209,3.5209,3.5209,3.5209,3.5209,3.4961,3.4167,3.4014,3.3738,3.2871,3.2718,3.2718,3.2718,3.2718,3.2718,3.2718,3.2539,3.2317,3.2037,3.2006,3.2006,3.2006,3.2006,3.1975,3.1894,3.1832,3.1107,2.957,2.9523,2.9437,2.9318,2.9898,3.019,3.0112,3.0719,3.1034,3.1034,3.1034,3.1034,2.6295,2.7092,0.0,0.0,0.0,0.0,0.0,0.0,0.0,0.0,0.0,0.0,0.0,0.0,0.0,0.0,0.0,0.0,0.0,0.0,0.0,0.0,0.0,0.0,0.0,0.0,0.0,0.0,0.0,0.0,0.0,0.0,0.0,0.0,0.0,0.0,3.08,3.08,3.08,3.08,3.0741,3.0742,3.08,3.0741,3.0728,3.0726,3.0656,3.063,3.0614,3.0463,3.0339,3.0324,3.0904,3.1138,3.1293,3.2707,3.3394,3.3738,3.456,3.4999,3.5209,3.5209,3.5209,3.5209,3.5209,3.5209,3.5209,3.5209,3.5209,3.5209,3.5209,3.5209,3.5209,3.5209,3.5209,3.5209,3.5209,3.5209,3.5133,3.4885,3.4846,3.477,3.4495,3.4456,3.4456,3.4456,3.4456,3.4456,3.4456,3.3745,3.3204,3.3119,3.2455,3.1915,3.1719,3.1727,3.1635,3.1415,3.1391,3.1213,3.0849,3.0785,3.0686,3.0501,3.0662,3.1028,3.1579,3.1751,3.2125,3.2687,3.2687,3.2687,2.7017,0.0,0.0,0.0,0.0,0.0,0.0,0.0,0.0,0.0,0.0,0.0,0.0,0.0,0.0,0.0,0.0,0.0,0.0,0.0,0.0,0.0,0.0,0.0,0.0,0.0,0.0,0.0,0.0,0.0,0.0,0.0,0.0,0.0,3.08,3.08,3.08,3.08,3.0795,3.0764,3.0722,3.0711,3.0711,3.0689,3.0656,3.0653,3.0591,3.05,3.0422,3.0315,3.0235,3.0249,3.0777,3.1197,3.1656,3.2993,3.37,3.4128,3.4923,3.5209,3.5209,3.5209,3.5209,3.5209,3.5209,3.5209,3.5209,3.5209,3.5209,3.5209,3.5209,3.5209,3.5209,3.5209,3.5209,3.5209,3.5209,3.5209,3.5209,3.5209,3.5209,3.5209,3.5209,3.5209,3.5209,3.5209,3.5124,3.5009,3.4832,3.424,3.3797,3.3649,3.3063,3.2599,3.2409,3.2384,3.2313,3.2124,3.2111,3.2133,3.219,3.1574,3.1154,3.0998,3.1324,3.1709,3.2198,3.2524,3.2922,3.3393,3.3393,3.3393,0.0,0.0,0.0,0.0,0.0,0.0,0.0,0.0,0.0,0.0,0.0,0.0,0.0,0.0,0.0,0.0,0.0,0.0,0.0,0.0,0.0,0.0,0.0,0.0,0.0,0.0,0.0,0.0,0.0,0.0,0.0,0.0,0.0,0.0,3.08,3.08,3.08,3.08,3.0768,0.0,3.0706,3.0664,3.0603,3.0595,3.0575,3.0564,3.0511,3.0364,3.0188,3.0207,3.0194,3.023,3.0376,3.0911,3.1713,3.2604,3.3433,3.4197,3.4961,3.5209,3.5209,3.5209,3.5209,3.5209,3.5209,3.5209,3.5209,3.5209,3.5209,3.5209,3.5209,3.5209,3.5209,3.5209,3.5209,3.5209,3.5209,3.5209,3.5209,3.5209,3.5193,3.5166,3.5166,3.5206,3.5266,3.5342,3.5201,3.491,3.4405,3.4321,3.416,3.378,3.3712,3.3671,3.3619,3.3591,3.3563,3.3509,3.3495,3.3466,3.3393,3.2055,3.1275,3.1234,3.1926,3.2306,3.2306,3.3049,3.3393,3.3393,3.3393,3.3393,0.0,2.8257,0.0,0.0,0.0,0.0,0.0,0.0,0.0,0.0,0.0,0.0,0.0,0.0,0.0,0.0,0.0,0.0,0.0,0.0,0.0,0.0,0.0,0.0,0.0,0.0,0.0,0.0,0.0,0.0,0.0,0.0,0.0,3.08,3.08,3.08,3.08,3.08,3.0798,0.0,3.0673,3.0602,3.0599,3.0552,3.0462,3.0352,3.0286,3.0235,3.0207,3.0206,3.0192,3.0319,3.1649,3.2279,3.2623,3.4113,3.4789,3.498,3.5152,3.5209,3.5209,3.5209,3.5209,3.5209,3.5209,3.5209,3.5209,3.5209,3.5209,3.5209,3.5209,3.5209,3.5209,3.5209,3.5209,3.5209,3.5209,3.5209,3.5209,3.5209,3.5072,3.4954,3.4954,3.5303,3.5811,3.6429,3.6498,3.6216,3.5461,3.523,3.4878,3.4173,3.3873,3.3671,3.3619,3.3549,3.3477,3.3422,3.3408,3.3408,3.3393,3.3082,3.29,3.2886,3.3049,3.314,3.314,3.3321,3.3393,3.3393,3.3393,3.3393,0.0,0.0,0.0,0.0,0.0,0.0,0.0,0.0,0.0,0.0,0.0,0.0,0.0,0.0,0.0,0.0,0.0,0.0,0.0,0.0,0.0,0.0,0.0,0.0,0.0,0.0,0.0,0.0,0.0,0.0,0.0,3.08,3.08,3.08,3.08,3.08,3.08,3.0768,3.0747,3.0699,3.0607,3.0501,3.0402,3.0417,3.0342,3.0241,3.0221,3.043,3.0818,3.0784,3.1026,3.1484,3.2355,3.2967,3.3433,3.4292,3.4866,3.5209,3.5209,3.5209,3.5209,3.5209,3.5209,3.5209,3.5209,3.5209,3.5209,3.5209,3.5209,3.5185,3.5081,3.5124,3.5141,3.4926,3.5044,3.5166,3.5081,3.5054,3.5009,3.4898,3.5095,3.5279,3.5279,3.5821,3.6379,3.6696,3.6758,3.6572,3.6049,3.5837,3.5422,3.4584,3.4293,3.416,3.4073,3.4062,3.418,3.4534,3.4552,3.4389,3.3991,3.3973,3.3791,3.3411,3.3393,3.3393,3.3393,3.3393,3.361,3.3973,3.3973,3.419,0.0,0.0,0.0,0.0,0.0,0.0,0.0,0.0,0.0,0.0,0.0,0.0,0.0,0.0,0.0,0.0,0.0,0.0,0.0,0.0,0.0,0.0,0.0,0.0,0.0,0.0,0.0,0.0,0.0,0.0,3.08,3.08,3.08,3.08,3.08,3.0799,3.0774,3.0726,3.067,3.0599,3.052,3.0375,3.0207,3.026,3.0253,3.02,3.02,3.0684,3.1484,3.1419,3.1916,3.2718,3.2871,3.3375,3.4014,3.4167,3.4636,3.5209,3.5209,3.5209,3.5209,3.5209,3.5209,3.5209,3.5209,3.528,3.537,3.537,3.5412,3.5464,3.5287,3.5363,3.54,3.5015,3.521,3.5369,3.4927,3.4945,3.4971,3.4747,3.5327,3.5899,3.5984,3.6558,3.6994,3.6973,3.6938,3.6819,3.6519,3.6362,3.5959,3.5097,3.4954,3.4864,3.4821,3.4806,3.508,3.575,3.5804,3.5496,3.4826,3.4808,3.4482,3.3828,3.3538,3.3465,3.361,3.361,3.4027,3.4808,3.4808,3.5121,0.0,0.0,0.0,0.0,0.0,0.0,0.0,0.0,0.0,0.0,0.0,0.0,0.0,0.0,0.0,0.0,0.0,0.0,0.0,0.0,0.0,0.0,0.0,0.0,0.0,0.0,0.0,0.0,0.0,0.0,3.08,3.08,3.08,3.08,3.08,3.077,3.072,3.0701,3.0678,3.0599,3.0462,3.0342,3.0192,3.0199,3.0218,3.0192,3.0192,3.067,3.14,3.14,3.1916,3.2776,3.3528,3.3899,3.409,3.4789,3.5114,3.5209,3.5209,3.5209,3.5209,3.5209,3.5209,3.5209,3.5209,3.5567,3.5989,3.5989,3.631,3.6663,3.6629,3.6652,3.6652,3.6595,3.6629,3.628,3.4851,3.5104,3.5581,3.5548,3.6055,3.6652,3.7173,3.7352,3.7636,3.8327,3.8322,3.7986,3.7247,3.7113,3.6741,3.5942,3.5775,3.5747,3.5732,3.567,3.5677,3.5786,3.5804,3.575,3.5641,3.5641,3.5587,3.5478,3.4117,3.3737,3.4443,3.4443,3.4844,3.5641,3.5641,3.5481,0.0,0.0,0.0,0.0,0.0,0.0,0.0,0.0,0.0,0.0,0.0,0.0,0.0,0.0,0.0,0.0,0.0,0.0,0.0,0.0,0.0,0.0,0.0,0.0,0.0,0.0,0.0,0.0,0.0,3.08,3.08,3.08,3.0774,3.0757,3.0737,3.0713,3.0646,3.0614,3.0528,3.0389,3.0316,3.0266,3.0211,3.0211,3.0211,3.023,3.0682,3.1343,3.2164,3.2669,3.3356,3.4132,3.4522,3.4674,3.4713,3.5076,3.5209,3.5209,3.5209,3.5209,3.5209,3.5209,3.5209,3.5261,3.5606,3.5885,3.6166,3.6465,3.682,3.7103,3.6998,3.7036,3.7069,3.6851,3.6764,3.6509,3.5682,3.5882,3.6304,3.6628,3.6934,3.7329,3.8058,3.8108,3.8187,3.852,3.8512,3.8319,3.7956,3.7874,3.7501,3.67,3.6565,3.6536,3.6536,3.6504,3.6653,3.7123,3.7142,3.6942,3.649,3.6472,3.6254,3.5804,3.5098,3.4932,3.5261,3.5261,3.5546,3.6087,3.6087,3.6077,0.0,0.0,0.0,0.0,0.0,0.0,0.0,0.0,0.0,0.0,0.0,0.0,0.0,0.0,0.0,0.0,0.0,0.0,0.0,0.0,0.0,0.0,0.0,0.0,0.0,0.0,0.0,0.0,0.0,3.0798,3.0771,3.0771,3.0735,3.0684,3.0664,3.0626,3.0543,3.0472,3.0359,3.02,3.0199,3.0326,3.0529,3.0529,3.0643,3.0854,3.1255,3.1916,3.2776,3.3643,3.4464,3.5209,3.5209,3.5209,3.5209,3.5209,3.5209,3.5209,3.5209,3.5176,3.5153,3.5363,3.5439,3.5547,3.6207,3.6515,3.6715,3.7129,3.7437,3.7617,3.7468,3.7534,3.757,3.7281,3.716,3.7036,3.6691,3.6731,3.7017,3.7669,3.779,3.7924,3.8548,3.8559,3.8478,3.8478,3.8415,3.8385,3.8385,3.8322,3.8038,3.7439,3.7336,3.7303,3.7303,3.7303,3.7557,3.8172,3.8209,3.7937,3.7339,3.7303,3.7031,3.6417,3.6417,3.6309,3.6109,3.6109,3.6276,3.6595,3.6595,3.666,0.0,0.0,0.0,0.0,0.0,0.0,0.0,0.0,0.0,0.0,0.0,0.0,0.0,0.0,0.0,0.0,0.0,0.0,0.0,0.0,0.0,0.0,0.0,0.0,0.0,0.0,0.0,0.0,0.0,3.077,3.0715,3.0713,3.0661,3.0614,3.061,3.0539,3.0418,3.0279,3.0207,3.0192,3.0211,3.0624,3.1427,3.1427,3.1847,3.2527,3.1809,3.1954,3.2776,3.3643,3.4464,3.5209,3.5209,3.5209,3.5209,3.5209,3.5209,3.5209,3.5209,3.5072,3.5031,3.5817,3.6045,3.6206,3.6991,3.7637,3.8094,3.8119,3.8366,3.8621,3.8606,3.8606,3.8621,3.8609,3.8594,3.8374,3.7603,3.7452,3.7691,3.8487,3.8535,3.8455,3.8491,3.8446,3.8399,3.8399,3.8354,3.8307,3.8307,3.8259,3.8191,3.8154,3.8136,3.8136,3.8136,3.8136,3.8172,3.8209,3.8209,3.8191,3.8136,3.8136,3.8118,3.8082,3.8082,3.7701,3.6941,3.6941,3.7103,3.7434,3.7434,3.7041,0.0,0.0,0.0,0.0,0.0,0.0,0.0,0.0,0.0,0.0,0.0,0.0,0.0,0.0,0.0,0.0,0.0,0.0,0.0,0.0,0.0,0.0,0.0,0.0,0.0,0.0,0.0,0.0,0.0,0.0,3.0691,3.0656,3.0609,3.0534,3.0534,3.0442,3.0273,3.0227,3.0199,3.0211,3.072,3.1159,3.1522,3.2031,3.2432,3.2718,3.2993,3.3261,3.3605,3.4426,3.4942,3.5209,3.5209,3.5209,3.5209,3.5209,3.5209,3.5209,3.5209,3.5531,3.5966,3.6261,3.6597,3.7009,3.7672,3.7909,3.8024,3.8424,3.8724,3.8964,3.8964,3.8964,3.8906,3.8735,3.8707,3.86,3.8224,3.8135,3.8227,3.852,3.8494,3.843,3.843,3.8385,3.8338,3.8338,3.829,3.8242,3.8242,3.8225,3.8209,3.8209,3.8209,3.8209,3.8209,3.8209,3.8209,3.8209,3.8209,3.8209,3.8209,3.8209,3.8209,3.8209,3.7897,3.7771,3.7774,3.7483,3.7256,3.7113,3.6841,3.6412,0.0,0.0,0.0,0.0,0.0,0.0,0.0,0.0,0.0,0.0,0.0,0.0,0.0,0.0,0.0,0.0,0.0,0.0,0.0,0.0,0.0,0.0,0.0,0.0,0.0,0.0,0.0,0.0,0.0,0.0,3.1028,3.0746,3.0524,3.0392,3.04,3.0336,3.02,3.0199,3.0211,3.0211,3.1045,3.1591,3.1935,3.2756,3.3272,3.3578,3.4159,3.4254,3.4071,3.4866,3.5209,3.5209,3.5209,3.5209,3.5209,3.5209,3.5209,3.5231,3.5439,3.5826,3.6312,3.6784,3.719,3.7638,3.8297,3.838,3.8308,3.8715,3.891,3.8964,3.8964,3.8964,3.8906,3.8686,3.8624,3.8682,3.8825,3.8677,3.8476,3.8478,3.8399,3.8368,3.8368,3.8305,3.8257,3.8257,3.8242,3.8209,3.8209,3.8209,3.8209,3.8209,3.8209,3.8209,3.8209,3.8209,3.8209,3.8209,3.8209,3.8209,3.8209,3.8209,3.8209,3.8209,3.7739,3.765,3.7967,3.7523,3.7094,3.6698,3.643,3.6045,0.0,0.0,0.0,0.0,0.0,0.0,0.0,0.0,0.0,0.0,0.0,0.0,0.0,0.0,0.0,0.0,0.0,0.0,0.0,0.0,0.0,0.0,0.0,0.0,0.0,0.0,0.0,0.0,0.0,3.1032,3.1665,3.0954,3.045,3.0233,3.0244,3.023,3.0211,3.0211,3.0211,3.0249,3.1121,3.1954,3.2776,3.3643,3.4464,3.5209,3.5209,3.4751,3.4109,3.4885,3.5209,3.5209,3.5209,3.5209,3.5201,3.5182,3.522,3.5302,3.5894,3.5947,3.6009,3.7365,3.7862,3.8079,3.8859,3.9101,3.9087,3.9087,3.891,3.8707,3.8692,3.871,3.8695,3.8562,3.8564,3.8752,3.9475,3.9067,3.8551,3.8471,3.8391,3.8327,3.8345,3.8313,3.8263,3.8245,3.8263,3.8263,3.8245,3.8263,3.8263,3.8245,3.8245,3.8245,3.8245,3.8245,3.8245,3.8245,3.8245,3.8245,3.8245,3.8228,3.8228,3.8264,3.7757,3.754,3.754,3.7092,3.6678,3.6301,3.6297,3.6075,2.3217,0.0,0.0,0.0,0.0,0.0,0.0,0.0,0.0,0.0,0.0,0.0,0.0,0.0,0.0,0.0,0.0,0.0,0.0,0.0,0.0,0.0,0.0,0.0,0.0,0.0,0.0,0.0,3.2699,3.2164,3.1713,3.1397,3.12,3.1139,3.1143,3.0835,3.0211,3.0211,3.051,3.114,3.1973,3.2814,3.3662,3.4483,3.4999,3.5209,3.5209,3.5076,3.4885,3.5114,3.5209,3.5209,3.5209,3.5209,3.5174,3.5037,3.5343,3.5856,3.5824,3.6551,3.7563,3.7959,3.8406,3.8804,3.9027,3.8964,3.8807,3.8807,3.875,3.8673,3.8575,3.8999,3.9406,3.9307,3.9747,4.0206,4.0375,4.0247,4.0084,4.0066,3.9527,3.9259,3.9802,3.9876,3.9677,3.9152,3.9514,3.9677,3.9134,3.9532,3.9659,3.9115,3.9078,3.9078,3.9078,3.9078,3.9078,3.9078,3.9078,3.9078,3.9078,3.869,3.8759,3.9351,3.8608,3.8212,3.8212,3.7033,3.6409,3.6318,3.6539,3.6893,0.0,0.0,0.0,0.0,0.0,0.0,0.0,2.7952,0.0,0.0,0.0,0.0,0.0,0.0,0.0,0.0,0.0,0.0,0.0,0.0,0.0,0.0,0.0,0.0,0.0,0.0,0.0,3.4149,3.3441,3.2759,3.2198,3.2069,3.1838,3.152,3.1499,3.1255,3.0739,3.0376,3.0815,3.2012,3.2489,3.3158,3.4033,3.4827,3.5209,3.5209,3.5209,3.5209,3.5182,3.5107,3.5124,3.5201,3.5107,3.5072,3.5092,3.5191,3.5534,3.5983,3.6443,3.7206,3.8084,3.834,3.8656,3.8935,3.8935,3.8822,3.8707,3.8707,3.8658,3.8682,3.893,3.9337,3.9727,3.999,4.0428,4.0813,4.107,4.0853,4.0617,4.0617,4.0201,4.0003,4.042,4.0492,4.0347,3.993,3.9967,3.9894,3.946,3.9786,3.9876,3.9441,3.9677,3.9858,3.9858,3.9858,3.9858,3.9858,3.968,3.9571,3.9571,3.9087,3.9029,3.9492,3.8838,3.8402,3.8253,3.7387,3.696,3.6977,3.7182,3.7459,0.0,0.0,0.0,0.0,0.0,0.0,2.7404,2.8028,0.0,0.0,0.0,0.0,0.0,0.0,0.0,0.0,0.0,0.0,0.0,0.0,0.0,0.0,0.0,0.0,0.0,3.4921,3.4798,3.5431,3.4004,3.3095,3.308,3.2932,3.2527,3.1809,3.1771,3.1732,3.1637,3.0777,3.1178,3.2833,3.2756,3.3196,3.4167,3.4866,3.5209,3.5201,3.5185,3.5176,3.5141,3.4936,3.4973,3.5141,3.4936,3.486,3.4926,3.5461,3.5728,3.5993,3.7312,3.7831,3.7993,3.8526,3.8707,3.8707,3.8707,3.8707,3.8707,3.8673,3.8648,3.8786,3.9485,3.9765,4.0026,4.0669,4.0887,4.1106,4.1687,4.127,4.0764,4.0764,4.0691,4.0655,4.0745,4.0764,4.0727,4.0637,4.0148,3.9749,3.9659,3.9731,3.9749,3.9659,4.0256,4.0619,4.0619,4.0583,4.0565,4.0565,4.012,3.987,3.987,3.9388,3.9188,3.9276,3.8896,3.8493,3.8142,3.799,3.7939,3.8024,3.8024,3.7986,2.6684,2.6995,2.7288,0.0,0.0,0.0,0.0,2.6242,0.0,0.0,0.0,0.0,0.0,0.0,0.0,0.0,0.0,0.0,0.0,0.0,0.0,0.0,0.0,0.0,0.0,3.4969,3.5296,3.5328,3.4398,3.4093,3.4776,3.4125,3.3662,3.3517,3.3517,3.3184,3.247,3.1591,3.2038,3.3738,3.3043,3.3501,3.498,3.5133,3.5209,3.5201,3.5037,3.4964,3.4936,3.4684,3.4724,3.4926,3.4684,3.4572,3.4653,3.524,3.5876,3.6532,3.728,3.7971,3.8544,3.8667,3.8707,3.8707,3.8707,3.8707,3.8673,3.8575,3.8953,3.9404,3.9502,4.0486,4.1451,4.1488,4.1995,4.2521,4.2647,4.2538,4.2429,4.2429,4.1922,4.1669,4.2321,4.2429,4.2212,4.156,4.1886,4.1977,4.1325,4.1814,4.1959,4.1307,4.1379,4.1469,4.1469,4.1116,4.0887,4.0887,4.0465,4.0215,4.0215,3.976,3.9824,4.0452,4.0031,3.9747,3.9673,3.8481,3.821,3.8785,3.8785,3.9015,2.7113,2.7326,2.7556,2.7107,0.0,0.0,0.0,0.0,0.0,0.0,0.0,0.0,0.0,0.0,0.0,0.0,0.0,0.0,0.0,0.0,0.0,0.0,0.0,0.0,0.0,3.5147,3.5369,3.5304,3.4864,3.4783,3.5242,3.4835,3.4407,3.4014,3.3995,3.3586,3.2718,3.2279,3.2707,3.3995,3.3566,3.4006,3.5201,3.5098,3.5054,3.5046,3.4803,3.4694,3.4674,3.445,3.4416,3.4534,3.4394,3.4591,3.5023,3.5636,3.6362,3.7146,3.7849,3.8358,3.8707,3.8707,3.8707,3.8707,3.8707,3.8658,3.8666,3.8956,3.9294,3.9739,4.0488,4.1252,4.1887,4.2212,4.2611,4.2901,4.2901,4.2901,4.2901,4.2901,4.2574,4.2429,4.2828,4.2901,4.2755,4.2357,4.2303,4.2158,4.1741,4.2049,4.2158,4.1741,4.2067,4.2303,4.2303,4.1866,4.1589,4.1589,4.0941,4.0537,4.0537,4.0092,4.0034,4.0434,4.0221,4.0096,4.0096,3.9343,3.9174,3.9554,3.9554,3.9657,0.0,0.0,0.0,0.0,0.0,2.7333,0.0,0.0,0.0,0.0,0.0,0.0,0.0,0.0,0.0,0.0,0.0,0.0,0.0,0.0,0.0,0.0,0.0,0.0,0.0,3.481,3.4925,3.5258,3.4939,3.4857,3.519,3.5209,3.4904,3.4254,3.4235,3.3891,3.3196,3.3024,3.3375,3.4235,3.4012,3.4358,3.5132,3.4926,3.4812,3.4821,3.454,3.4442,3.442,3.4215,3.4124,3.4124,3.4124,3.4606,3.5401,3.6057,3.6813,3.7621,3.8414,3.8707,3.8707,3.8707,3.8673,3.8658,3.8658,3.8687,3.883,3.9405,3.974,4.0217,4.1524,4.1905,4.2103,4.2737,4.2901,4.2901,4.2901,4.2901,4.2901,4.2901,4.2901,4.2901,4.2901,4.2901,4.2901,4.2901,4.2357,4.1922,4.1922,4.1922,4.1922,4.1922,4.2502,4.2863,4.2769,4.2338,4.2032,4.1948,4.1116,4.0676,4.0676,4.0303,4.0096,4.0096,4.0096,4.0096,4.0096,4.0096,4.0096,4.0096,4.0096,4.0011,0.0,0.0,0.0,0.0,2.8719,0.0,0.0,0.0,0.0,0.0,0.0,0.0,0.0,0.0,0.0,0.0,0.0,0.0,0.0,0.0,0.0,0.0,0.0,0.0,0.0,0.0,3.3612,3.5095,3.3826,3.3635,3.5133,3.5209,3.5171,3.5076,3.5057,3.5018,3.4915,3.4216,3.4254,3.5048,3.4096,3.4102,3.4936,3.4663,3.4551,3.4529,3.4314,3.4227,3.4203,3.3959,3.386,3.386,3.386,3.4343,3.5156,3.5987,3.6813,3.7621,3.8414,3.8707,3.8707,3.8707,3.8624,3.8525,3.8525,3.8928,3.9396,3.9488,4.0454,4.1488,4.1687,4.223,4.2792,4.2883,4.2901,4.2901,4.2901,4.2901,4.2901,4.2901,4.2901,4.2901,4.2901,4.2901,4.2901,4.2901,4.2829,4.2755,4.2755,4.2755,4.2755,4.2755,4.2865,4.2731,4.23,4.1846,4.1393,4.0972,4.0458,4.0171,4.0171,4.0121,4.0096,4.0096,4.0096,4.0096,4.0096,4.0096,4.0096,4.0096,4.0096,3.9944,0.0,0.0,0.0,0.0,0.0,0.0,0.0,0.0,2.5913,0.0,0.0,0.0,0.0,0.0,0.0,0.0,0.0,0.0,0.0,0.0,0.0,0.0,0.0,0.0,0.0,0.0,0.0,0.0,0.0,3.3234,3.4445,3.4961,3.5209,3.5209,3.5209,3.498,3.4503,3.4636,3.4549,3.4267,3.4338,3.4462,3.4663,3.4428,3.4333,3.4302,3.4068,3.3972,3.3959,3.386,3.4082,3.4491,3.4491,3.5004,3.5862,3.6703,3.7496,3.823,3.8579,3.8707,3.8692,3.8609,3.8528,3.8538,3.8996,3.9316,3.9689,4.0633,4.127,4.1813,4.2285,4.2647,4.2901,4.2901,4.2901,4.2901,4.2901,4.2901,4.2901,4.2901,4.2901,4.2901,4.2901,4.2901,4.2901,4.2901,4.2901,4.2901,4.2901,4.2653,4.2498,4.2498,4.2259,4.2015,4.1803,4.1366,4.1019,4.0825,4.0353,4.0096,4.0096,4.0096,4.0096,4.0096,4.0096,4.0096,4.0096,4.0096,4.0062,3.9986,3.9986,3.991,2.9868,0.0,0.0,0.0,0.0,0.0,0.0,0.0,0.0,0.0,0.0,0.0,0.0,0.0,0.0,0.0,0.0,0.0,0.0,0.0,0.0,0.0,0.0,0.0,0.0,0.0,0.0,0.0,0.0,0.0,3.3918,3.4541,3.498,3.519,3.5209,3.4923,3.4331,3.4854,3.4722,3.3951,3.447,3.4609,3.4398,3.4191,3.4086,3.4086,3.3881,3.3807,3.3825,3.4045,3.4472,3.5059,3.55,3.6083,3.6703,3.729,3.8025,3.8707,3.8707,3.8692,3.8643,3.851,3.843,3.8514,3.9334,3.9686,4.0054,4.1433,4.1941,4.2158,4.2737,4.2901,4.2901,4.2901,4.2901,4.2901,4.2901,4.2901,4.2901,4.2901,4.2901,4.2901,4.2901,4.2901,4.2901,4.2901,4.2901,4.2844,4.2711,4.2418,4.2157,4.2032,4.17,4.1437,4.1321,4.0995,4.0731,4.0628,4.0279,4.0096,4.0096,4.0096,4.0096,4.0096,4.0096,4.0096,4.0096,4.0045,3.9986,3.9901,3.9901,3.9849,0.0,0.0,0.0,2.8546,0.0,0.0,0.0,0.0,2.637,0.0,0.0,0.0,0.0,0.0,0.0,0.0,0.0,0.0,0.0,0.0,0.0,0.0,0.0,0.0,0.0,0.0,0.0,0.0,0.0,0.0,3.3823,3.4014,3.4388,3.519,3.5209,3.519,3.5171,3.4991,3.4898,3.4851,3.4435,3.4221,3.4209,3.3934,3.3802,3.3802,3.3788,3.3807,3.3862,3.4637,3.4986,3.5169,3.678,3.7437,3.7456,3.7492,3.8025,3.8707,3.8707,3.8609,3.8494,3.843,3.8352,3.8452,3.9253,3.9964,4.0637,4.1469,4.2266,4.2883,4.2901,4.2901,4.2901,4.2901,4.2901,4.2901,4.2901,4.2901,4.2901,4.2901,4.2901,4.2901,4.2901,4.2901,4.2901,4.2901,4.2901,4.2749,4.2297,4.2198,4.2032,4.1569,4.1503,4.1321,4.0873,4.0802,4.0604,4.0146,4.0096,4.0096,4.0096,4.0096,4.0096,4.0096,4.0096,4.0096,4.0096,3.9961,3.9901,3.9901,3.9901,3.9772,0.0,0.0,3.097,2.9848,0.0,0.0,0.0,0.0,0.0,0.0,0.0,0.0,0.0,0.0,0.0,0.0,0.0,0.0,0.0,0.0,0.0,0.0,0.0,0.0,0.0,0.0,0.0,0.0,2.9917,0.0,0.0,3.3375,3.4128,3.4388,3.4923,3.5209,3.5209,3.501,3.4803,3.4632,3.4344,3.4111,3.3934,3.3829,3.3807,3.3807,3.3807,3.41,3.4619,3.4894,3.5646,3.6707,3.729,3.7841,3.8285,3.8285,3.8469,3.8707,3.8707,3.8609,3.8494,3.8415,3.87,3.9235,4.0051,4.0762,4.1488,4.2377,4.2757,4.2901,4.2901,4.2901,4.2901,4.2901,4.2901,4.2901,4.2901,4.2901,4.2901,4.2901,4.2901,4.2901,4.2901,4.2901,4.2806,4.2478,4.2438,4.2259,4.1803,4.1477,4.1208,4.1065,4.0761,4.0507,4.0353,4.0328,4.0254,4.0096,4.0096,4.0096,4.0096,4.0561,4.0832,4.0832,4.1227,4.1427,4.1427,4.1285,4.1167,4.1103,4.1103,4.0515,3.0424,3.0752,0.0,3.0073,2.9372,0.0,2.7886,0.0,0.0,0.0,0.0,0.0,0.0,0.0,0.0,0.0,0.0,0.0,0.0,0.0,0.0,0.0,0.0,0.0,0.0,0.0,2.8981,2.9338,2.9039,0.0,0.0,0.0,3.3815,3.4407,3.4857,3.5223,3.5528,3.4944,3.4548,3.4394,3.4166,3.3972,3.3807,3.3807,3.3807,3.3807,3.3807,3.4266,3.5023,3.5334,3.6266,3.7529,3.7823,3.823,3.8692,3.8658,3.8624,3.8643,3.8593,3.8544,3.853,3.8729,3.912,3.9689,4.0743,4.1361,4.1886,4.2776,4.2975,4.2901,4.2901,4.2901,4.2901,4.2901,4.2901,4.2901,4.2901,4.2901,4.2901,4.2901,4.2901,4.2901,4.2901,4.2768,4.2537,4.2257,4.2198,4.1969,4.1343,4.0995,4.0731,4.058,4.0279,4.0096,4.0096,4.035,4.0476,4.0476,4.0756,4.0891,4.0891,4.1339,4.1567,4.1514,4.1907,4.2078,4.2024,4.1877,4.1783,4.1688,4.1615,4.1084]}]]